<?xml version='1.0' encoding='UTF-8'?><gpx version="1.1" creator="JPX - https://github.com/jenetics/jpx" xmlns="http://www.topografix.com/GPX/1/1"><trk><trkseg><trkpt lat="41.725195" lon="13.6233283"><ele>288.75</ele><time>2026-03-29T08:04:44.703Z</time></trkpt><trkpt lat="41.725285" lon="13.6233283"><ele>288.5</ele><time>2026-03-29T08:05:03.2Z</time></trkpt><trkpt lat="41.7253467" lon="13.6232867"><ele>288.25</ele><time>2026-03-29T08:05:07.2Z</time></trkpt><trkpt lat="41.7255" lon="13.6232533"><ele>288.0</ele><time>2026-03-29T08:05:12.201Z</time></trkpt><trkpt lat="41.7256517" lon="13.6233233"><ele>288.0</ele><time>2026-03-29T08:05:14.2Z</time></trkpt><trkpt lat="41.7257383" lon="13.6233633"><ele>288.0</ele><time>2026-03-29T08:05:15.201Z</time></trkpt><trkpt lat="41.7258383" lon="13.6234117"><ele>288.0</ele><time>2026-03-29T08:05:16.2Z</time></trkpt><trkpt lat="41.7259483" lon="13.6234633"><ele>288.0</ele><time>2026-03-29T08:05:17.2Z</time></trkpt><trkpt lat="41.7260683" lon="13.6235167"><ele>288.0</ele><time>2026-03-29T08:05:18.2Z</time></trkpt><trkpt lat="41.7261883" lon="13.6235683"><ele>288.0</ele><time>2026-03-29T08:05:19.2Z</time></trkpt><trkpt lat="41.7263083" lon="13.62362"><ele>288.0</ele><time>2026-03-29T08:05:20.2Z</time></trkpt><trkpt lat="41.726435" lon="13.6236717"><ele>288.0</ele><time>2026-03-29T08:05:21.2Z</time></trkpt><trkpt lat="41.7265767" lon="13.6237233"><ele>288.0</ele><time>2026-03-29T08:05:22.2Z</time></trkpt><trkpt lat="41.72673" lon="13.623775"><ele>288.0</ele><time>2026-03-29T08:05:23.2Z</time></trkpt><trkpt lat="41.7268917" lon="13.6238233"><ele>288.0</ele><time>2026-03-29T08:05:24.2Z</time></trkpt><trkpt lat="41.7270517" lon="13.6238717"><ele>288.0</ele><time>2026-03-29T08:05:25.2Z</time></trkpt><trkpt lat="41.7271917" lon="13.623905"><ele>288.0</ele><time>2026-03-29T08:05:26.2Z</time></trkpt><trkpt lat="41.7273167" lon="13.6239433"><ele>288.0</ele><time>2026-03-29T08:05:27.2Z</time></trkpt><trkpt lat="41.72743" lon="13.62398"><ele>288.0</ele><time>2026-03-29T08:05:28.2Z</time></trkpt><trkpt lat="41.7275317" lon="13.62401"><ele>288.0</ele><time>2026-03-29T08:05:29.2Z</time></trkpt><trkpt lat="41.72761" lon="13.6240267"><ele>288.0</ele><time>2026-03-29T08:05:30.2Z</time></trkpt><trkpt lat="41.7276733" lon="13.6240417"><ele>288.2</ele><time>2026-03-29T08:05:31.2Z</time></trkpt><trkpt lat="41.7277367" lon="13.62405"><ele>288.4</ele><time>2026-03-29T08:05:33.2Z</time></trkpt><trkpt lat="41.72782" lon="13.6240833"><ele>288.59999999999997</ele><time>2026-03-29T08:05:36.2Z</time></trkpt><trkpt lat="41.7279433" lon="13.6241233"><ele>288.8</ele><time>2026-03-29T08:05:38.2Z</time></trkpt><trkpt lat="41.728025" lon="13.624145"><ele>289.0</ele><time>2026-03-29T08:05:39.2Z</time></trkpt><trkpt lat="41.728115" lon="13.6241667"><ele>289.0</ele><time>2026-03-29T08:05:40.2Z</time></trkpt><trkpt lat="41.7282217" lon="13.6241883"><ele>289.0</ele><time>2026-03-29T08:05:41.2Z</time></trkpt><trkpt lat="41.7283367" lon="13.6242117"><ele>289.0</ele><time>2026-03-29T08:05:42.2Z</time></trkpt><trkpt lat="41.72846" lon="13.62423"><ele>289.0</ele><time>2026-03-29T08:05:43.2Z</time></trkpt><trkpt lat="41.7285817" lon="13.62425"><ele>289.25</ele><time>2026-03-29T08:05:44.2Z</time></trkpt><trkpt lat="41.7287017" lon="13.62427"><ele>289.5</ele><time>2026-03-29T08:05:45.2Z</time></trkpt><trkpt lat="41.7288233" lon="13.6242867"><ele>289.75</ele><time>2026-03-29T08:05:46.2Z</time></trkpt><trkpt lat="41.728945" lon="13.6243033"><ele>290.0</ele><time>2026-03-29T08:05:47.2Z</time></trkpt><trkpt lat="41.7290633" lon="13.6243083"><ele>290.0</ele><time>2026-03-29T08:05:48.2Z</time></trkpt><trkpt lat="41.7291717" lon="13.6243167"><ele>290.0</ele><time>2026-03-29T08:05:49.2Z</time></trkpt><trkpt lat="41.7292717" lon="13.624325"><ele>290.0</ele><time>2026-03-29T08:05:50.2Z</time></trkpt><trkpt lat="41.729365" lon="13.6243333"><ele>290.0</ele><time>2026-03-29T08:05:51.2Z</time></trkpt><trkpt lat="41.7294617" lon="13.6243433"><ele>290.0</ele><time>2026-03-29T08:05:52.2Z</time></trkpt><trkpt lat="41.72955" lon="13.62438"><ele>290.0</ele><time>2026-03-29T08:05:53.2Z</time></trkpt><trkpt lat="41.7296317" lon="13.624435"><ele>290.0</ele><time>2026-03-29T08:05:54.2Z</time></trkpt><trkpt lat="41.7297117" lon="13.6245417"><ele>290.0</ele><time>2026-03-29T08:05:55.2Z</time></trkpt><trkpt lat="41.72978" lon="13.62468"><ele>290.0</ele><time>2026-03-29T08:05:56.2Z</time></trkpt><trkpt lat="41.7298517" lon="13.62482"><ele>290.25</ele><time>2026-03-29T08:05:57.2Z</time></trkpt><trkpt lat="41.7299267" lon="13.6249633"><ele>290.5</ele><time>2026-03-29T08:05:58.2Z</time></trkpt><trkpt lat="41.7300033" lon="13.6250967"><ele>290.75</ele><time>2026-03-29T08:05:59.2Z</time></trkpt><trkpt lat="41.730075" lon="13.6252067"><ele>291.0</ele><time>2026-03-29T08:06:00.2Z</time></trkpt><trkpt lat="41.7301633" lon="13.625325"><ele>291.5</ele><time>2026-03-29T08:06:01.201Z</time></trkpt><trkpt lat="41.730255" lon="13.625455"><ele>292.0</ele><time>2026-03-29T08:06:02.2Z</time></trkpt><trkpt lat="41.73035" lon="13.6256"><ele>292.5</ele><time>2026-03-29T08:06:03.2Z</time></trkpt><trkpt lat="41.7304467" lon="13.6257467"><ele>293.0</ele><time>2026-03-29T08:06:04.201Z</time></trkpt><trkpt lat="41.7305483" lon="13.6259033"><ele>293.0</ele><time>2026-03-29T08:06:05.2Z</time></trkpt><trkpt lat="41.7306517" lon="13.62606"><ele>293.0</ele><time>2026-03-29T08:06:06.2Z</time></trkpt><trkpt lat="41.7307533" lon="13.6262083"><ele>293.0</ele><time>2026-03-29T08:06:07.2Z</time></trkpt><trkpt lat="41.73085" lon="13.62635"><ele>293.25</ele><time>2026-03-29T08:06:08.2Z</time></trkpt><trkpt lat="41.7309417" lon="13.62649"><ele>293.5</ele><time>2026-03-29T08:06:09.2Z</time></trkpt><trkpt lat="41.7310283" lon="13.6266217"><ele>293.75</ele><time>2026-03-29T08:06:10.201Z</time></trkpt><trkpt lat="41.7310983" lon="13.6267567"><ele>294.0</ele><time>2026-03-29T08:06:11.2Z</time></trkpt><trkpt lat="41.7311467" lon="13.6268983"><ele>294.5</ele><time>2026-03-29T08:06:12.2Z</time></trkpt><trkpt lat="41.7311733" lon="13.6270633"><ele>295.0</ele><time>2026-03-29T08:06:13.2Z</time></trkpt><trkpt lat="41.7311933" lon="13.6272417"><ele>295.5</ele><time>2026-03-29T08:06:14.2Z</time></trkpt><trkpt lat="41.73121" lon="13.627435"><ele>296.0</ele><time>2026-03-29T08:06:15.2Z</time></trkpt><trkpt lat="41.7312267" lon="13.6276417"><ele>296.6666666666667</ele><time>2026-03-29T08:06:16.2Z</time></trkpt><trkpt lat="41.7312483" lon="13.6278717"><ele>297.3333333333333</ele><time>2026-03-29T08:06:17.2Z</time></trkpt><trkpt lat="41.7312667" lon="13.6280883"><ele>298.0</ele><time>2026-03-29T08:06:18.2Z</time></trkpt><trkpt lat="41.73129" lon="13.6282967"><ele>298.0</ele><time>2026-03-29T08:06:19.2Z</time></trkpt><trkpt lat="41.7313083" lon="13.6285067"><ele>298.0</ele><time>2026-03-29T08:06:20.2Z</time></trkpt><trkpt lat="41.7313267" lon="13.6287133"><ele>298.0</ele><time>2026-03-29T08:06:21.2Z</time></trkpt><trkpt lat="41.731345" lon="13.62892"><ele>298.3333333333333</ele><time>2026-03-29T08:06:22.2Z</time></trkpt><trkpt lat="41.7313583" lon="13.6291367"><ele>298.6666666666667</ele><time>2026-03-29T08:06:23.2Z</time></trkpt><trkpt lat="41.7313767" lon="13.629365"><ele>299.0</ele><time>2026-03-29T08:06:24.2Z</time></trkpt><trkpt lat="41.7313933" lon="13.6295733"><ele>299.5</ele><time>2026-03-29T08:06:25.2Z</time></trkpt><trkpt lat="41.73141" lon="13.62976"><ele>300.0</ele><time>2026-03-29T08:06:26.2Z</time></trkpt><trkpt lat="41.7314233" lon="13.629935"><ele>300.5</ele><time>2026-03-29T08:06:27.2Z</time></trkpt><trkpt lat="41.7314433" lon="13.63009"><ele>301.0</ele><time>2026-03-29T08:06:28.2Z</time></trkpt><trkpt lat="41.73148" lon="13.6302233"><ele>301.16666666666663</ele><time>2026-03-29T08:06:29.2Z</time></trkpt><trkpt lat="41.731535" lon="13.630325"><ele>301.3333333333333</ele><time>2026-03-29T08:06:30.2Z</time></trkpt><trkpt lat="41.7316" lon="13.6304017"><ele>301.5</ele><time>2026-03-29T08:06:31.2Z</time></trkpt><trkpt lat="41.731665" lon="13.6304533"><ele>301.6666666666667</ele><time>2026-03-29T08:06:32.2Z</time></trkpt><trkpt lat="41.73173" lon="13.6304783"><ele>301.83333333333337</ele><time>2026-03-29T08:06:33.2Z</time></trkpt><trkpt lat="41.7318283" lon="13.6305267"><ele>302.0</ele><time>2026-03-29T08:06:35.201Z</time></trkpt><trkpt lat="41.7318383" lon="13.63068"><ele>302.0</ele><time>2026-03-29T08:06:37.201Z</time></trkpt><trkpt lat="41.7318017" lon="13.6308033"><ele>302.0</ele><time>2026-03-29T08:06:38.201Z</time></trkpt><trkpt lat="41.73175" lon="13.6309367"><ele>302.0</ele><time>2026-03-29T08:06:39.201Z</time></trkpt><trkpt lat="41.731675" lon="13.6311"><ele>302.0</ele><time>2026-03-29T08:06:40.201Z</time></trkpt><trkpt lat="41.7316" lon="13.6312633"><ele>302.5</ele><time>2026-03-29T08:06:41.201Z</time></trkpt><trkpt lat="41.7315283" lon="13.6314333"><ele>303.0</ele><time>2026-03-29T08:06:42.201Z</time></trkpt><trkpt lat="41.7314717" lon="13.6316117"><ele>303.5</ele><time>2026-03-29T08:06:43.201Z</time></trkpt><trkpt lat="41.7314317" lon="13.63181"><ele>304.0</ele><time>2026-03-29T08:06:44.201Z</time></trkpt><trkpt lat="41.7314033" lon="13.6320183"><ele>304.3333333333333</ele><time>2026-03-29T08:06:45.201Z</time></trkpt><trkpt lat="41.7313883" lon="13.6322467"><ele>304.6666666666667</ele><time>2026-03-29T08:06:46.201Z</time></trkpt><trkpt lat="41.7313867" lon="13.63247"><ele>305.0</ele><time>2026-03-29T08:06:47.201Z</time></trkpt><trkpt lat="41.7314033" lon="13.63268"><ele>306.5</ele><time>2026-03-29T08:06:48.201Z</time></trkpt><trkpt lat="41.731425" lon="13.6328733"><ele>308.0</ele><time>2026-03-29T08:06:49.201Z</time></trkpt><trkpt lat="41.7314533" lon="13.6330583"><ele>309.5</ele><time>2026-03-29T08:06:50.201Z</time></trkpt><trkpt lat="41.7314767" lon="13.6332433"><ele>311.0</ele><time>2026-03-29T08:06:51.201Z</time></trkpt><trkpt lat="41.7315133" lon="13.6334367"><ele>311.0</ele><time>2026-03-29T08:06:52.201Z</time></trkpt><trkpt lat="41.731545" lon="13.63362"><ele>311.0</ele><time>2026-03-29T08:06:53.201Z</time></trkpt><trkpt lat="41.7315817" lon="13.6338117"><ele>311.0</ele><time>2026-03-29T08:06:54.201Z</time></trkpt><trkpt lat="41.7316233" lon="13.634015"><ele>311.0</ele><time>2026-03-29T08:06:55.201Z</time></trkpt><trkpt lat="41.7316633" lon="13.6342333"><ele>311.6666666666667</ele><time>2026-03-29T08:06:56.201Z</time></trkpt><trkpt lat="41.731705" lon="13.63446"><ele>312.3333333333333</ele><time>2026-03-29T08:06:57.201Z</time></trkpt><trkpt lat="41.7317383" lon="13.6346867"><ele>313.0</ele><time>2026-03-29T08:06:58.201Z</time></trkpt><trkpt lat="41.73177" lon="13.634915"><ele>313.3333333333333</ele><time>2026-03-29T08:06:59.201Z</time></trkpt><trkpt lat="41.731815" lon="13.635155"><ele>313.6666666666667</ele><time>2026-03-29T08:07:00.201Z</time></trkpt><trkpt lat="41.7318583" lon="13.6353883"><ele>314.0</ele><time>2026-03-29T08:07:01.201Z</time></trkpt><trkpt lat="41.7319017" lon="13.6356133"><ele>312.33333333333337</ele><time>2026-03-29T08:07:02.201Z</time></trkpt><trkpt lat="41.7319467" lon="13.635825"><ele>310.6666666666667</ele><time>2026-03-29T08:07:03.201Z</time></trkpt><trkpt lat="41.7319917" lon="13.6360433"><ele>309.0</ele><time>2026-03-29T08:07:04.201Z</time></trkpt><trkpt lat="41.7320333" lon="13.636265"><ele>309.0</ele><time>2026-03-29T08:07:05.201Z</time></trkpt><trkpt lat="41.732075" lon="13.6364867"><ele>309.0</ele><time>2026-03-29T08:07:06.201Z</time></trkpt><trkpt lat="41.7321167" lon="13.6367083"><ele>309.0</ele><time>2026-03-29T08:07:07.201Z</time></trkpt><trkpt lat="41.7321583" lon="13.63694"><ele>310.6666666666667</ele><time>2026-03-29T08:07:08.201Z</time></trkpt><trkpt lat="41.7322017" lon="13.63717"><ele>312.33333333333337</ele><time>2026-03-29T08:07:09.201Z</time></trkpt><trkpt lat="41.7322433" lon="13.6373933"><ele>314.0</ele><time>2026-03-29T08:07:10.201Z</time></trkpt><trkpt lat="41.7322767" lon="13.637605"><ele>313.6666666666667</ele><time>2026-03-29T08:07:11.201Z</time></trkpt><trkpt lat="41.7323067" lon="13.6378117"><ele>313.3333333333333</ele><time>2026-03-29T08:07:12.201Z</time></trkpt><trkpt lat="41.7323383" lon="13.6380167"><ele>313.0</ele><time>2026-03-29T08:07:13.201Z</time></trkpt><trkpt lat="41.7323667" lon="13.6382233"><ele>313.0</ele><time>2026-03-29T08:07:14.201Z</time></trkpt><trkpt lat="41.7324" lon="13.6384317"><ele>313.0</ele><time>2026-03-29T08:07:15.201Z</time></trkpt><trkpt lat="41.732435" lon="13.6386517"><ele>313.0</ele><time>2026-03-29T08:07:16.201Z</time></trkpt><trkpt lat="41.7324717" lon="13.6388767"><ele>313.0</ele><time>2026-03-29T08:07:17.201Z</time></trkpt><trkpt lat="41.73251" lon="13.639095"><ele>313.0</ele><time>2026-03-29T08:07:18.201Z</time></trkpt><trkpt lat="41.7325517" lon="13.6393083"><ele>313.0</ele><time>2026-03-29T08:07:19.201Z</time></trkpt><trkpt lat="41.7326017" lon="13.639515"><ele>313.66666666666663</ele><time>2026-03-29T08:07:20.201Z</time></trkpt><trkpt lat="41.73267" lon="13.6397233"><ele>314.3333333333333</ele><time>2026-03-29T08:07:21.201Z</time></trkpt><trkpt lat="41.7327483" lon="13.63994"><ele>315.0</ele><time>2026-03-29T08:07:22.201Z</time></trkpt><trkpt lat="41.732825" lon="13.6401567"><ele>316.0</ele><time>2026-03-29T08:07:23.201Z</time></trkpt><trkpt lat="41.7329" lon="13.6403617"><ele>317.0</ele><time>2026-03-29T08:07:24.201Z</time></trkpt><trkpt lat="41.7329667" lon="13.64056"><ele>318.0</ele><time>2026-03-29T08:07:25.201Z</time></trkpt><trkpt lat="41.73303" lon="13.64075"><ele>318.0</ele><time>2026-03-29T08:07:26.201Z</time></trkpt><trkpt lat="41.7330883" lon="13.6409433"><ele>318.0</ele><time>2026-03-29T08:07:27.201Z</time></trkpt><trkpt lat="41.733145" lon="13.6411383"><ele>318.0</ele><time>2026-03-29T08:07:28.201Z</time></trkpt><trkpt lat="41.7331917" lon="13.641335"><ele>319.0</ele><time>2026-03-29T08:07:29.201Z</time></trkpt><trkpt lat="41.733235" lon="13.6415383"><ele>320.0</ele><time>2026-03-29T08:07:30.201Z</time></trkpt><trkpt lat="41.733275" lon="13.6417617"><ele>321.0</ele><time>2026-03-29T08:07:31.201Z</time></trkpt><trkpt lat="41.733315" lon="13.6419967"><ele>321.3333333333333</ele><time>2026-03-29T08:07:32.201Z</time></trkpt><trkpt lat="41.73335" lon="13.6422217"><ele>321.66666666666663</ele><time>2026-03-29T08:07:33.201Z</time></trkpt><trkpt lat="41.7333883" lon="13.6424333"><ele>322.0</ele><time>2026-03-29T08:07:34.201Z</time></trkpt><trkpt lat="41.7334267" lon="13.6426383"><ele>322.66666666666663</ele><time>2026-03-29T08:07:35.201Z</time></trkpt><trkpt lat="41.733465" lon="13.6428433"><ele>323.3333333333333</ele><time>2026-03-29T08:07:36.201Z</time></trkpt><trkpt lat="41.7335033" lon="13.643045"><ele>324.0</ele><time>2026-03-29T08:07:37.201Z</time></trkpt><trkpt lat="41.73354" lon="13.6432533"><ele>328.3333333333333</ele><time>2026-03-29T08:07:38.201Z</time></trkpt><trkpt lat="41.7335717" lon="13.6434683"><ele>332.66666666666663</ele><time>2026-03-29T08:07:39.201Z</time></trkpt><trkpt lat="41.7335917" lon="13.6436967"><ele>337.0</ele><time>2026-03-29T08:07:40.201Z</time></trkpt><trkpt lat="41.7335967" lon="13.6439267"><ele>339.0</ele><time>2026-03-29T08:07:41.201Z</time></trkpt><trkpt lat="41.733595" lon="13.6441467"><ele>341.0</ele><time>2026-03-29T08:07:42.201Z</time></trkpt><trkpt lat="41.7335867" lon="13.644365"><ele>343.0</ele><time>2026-03-29T08:07:43.202Z</time></trkpt><trkpt lat="41.73357" lon="13.6445867"><ele>337.3333333333333</ele><time>2026-03-29T08:07:44.201Z</time></trkpt><trkpt lat="41.7335467" lon="13.6448117"><ele>331.6666666666667</ele><time>2026-03-29T08:07:45.201Z</time></trkpt><trkpt lat="41.7335167" lon="13.645045"><ele>326.0</ele><time>2026-03-29T08:07:46.202Z</time></trkpt><trkpt lat="41.7334783" lon="13.6452733"><ele>326.33333333333337</ele><time>2026-03-29T08:07:47.201Z</time></trkpt><trkpt lat="41.733445" lon="13.6454933"><ele>326.6666666666667</ele><time>2026-03-29T08:07:48.201Z</time></trkpt><trkpt lat="41.7334133" lon="13.6457017"><ele>327.0</ele><time>2026-03-29T08:07:49.201Z</time></trkpt><trkpt lat="41.7333883" lon="13.6459033"><ele>327.0</ele><time>2026-03-29T08:07:50.201Z</time></trkpt><trkpt lat="41.7333717" lon="13.6461067"><ele>327.0</ele><time>2026-03-29T08:07:51.201Z</time></trkpt><trkpt lat="41.7333533" lon="13.646305"><ele>327.0</ele><time>2026-03-29T08:07:52.201Z</time></trkpt><trkpt lat="41.7333283" lon="13.6464833"><ele>327.0</ele><time>2026-03-29T08:07:53.201Z</time></trkpt><trkpt lat="41.7332883" lon="13.6466483"><ele>327.5</ele><time>2026-03-29T08:07:54.202Z</time></trkpt><trkpt lat="41.7332267" lon="13.6468167"><ele>328.0</ele><time>2026-03-29T08:07:55.201Z</time></trkpt><trkpt lat="41.7331483" lon="13.6469767"><ele>328.5</ele><time>2026-03-29T08:07:56.201Z</time></trkpt><trkpt lat="41.733055" lon="13.6471433"><ele>329.0</ele><time>2026-03-29T08:07:57.201Z</time></trkpt><trkpt lat="41.73296" lon="13.6473317"><ele>330.6666666666667</ele><time>2026-03-29T08:07:58.201Z</time></trkpt><trkpt lat="41.73288" lon="13.6475383"><ele>332.3333333333333</ele><time>2026-03-29T08:07:59.201Z</time></trkpt><trkpt lat="41.7328133" lon="13.647735"><ele>334.0</ele><time>2026-03-29T08:08:00.201Z</time></trkpt><trkpt lat="41.732755" lon="13.6479183"><ele>333.5</ele><time>2026-03-29T08:08:01.201Z</time></trkpt><trkpt lat="41.7327067" lon="13.6480867"><ele>333.0</ele><time>2026-03-29T08:08:02.201Z</time></trkpt><trkpt lat="41.732665" lon="13.6482567"><ele>332.5</ele><time>2026-03-29T08:08:03.201Z</time></trkpt><trkpt lat="41.7326267" lon="13.6484367"><ele>332.0</ele><time>2026-03-29T08:08:04.201Z</time></trkpt><trkpt lat="41.73259" lon="13.6486117"><ele>332.0</ele><time>2026-03-29T08:08:05.201Z</time></trkpt><trkpt lat="41.7325383" lon="13.6487917"><ele>332.0</ele><time>2026-03-29T08:08:06.201Z</time></trkpt><trkpt lat="41.7324667" lon="13.6489683"><ele>332.0</ele><time>2026-03-29T08:08:07.202Z</time></trkpt><trkpt lat="41.7323767" lon="13.649135"><ele>332.0</ele><time>2026-03-29T08:08:08.201Z</time></trkpt><trkpt lat="41.73229" lon="13.6492967"><ele>332.5</ele><time>2026-03-29T08:08:09.202Z</time></trkpt><trkpt lat="41.7322067" lon="13.64946"><ele>333.0</ele><time>2026-03-29T08:08:10.201Z</time></trkpt><trkpt lat="41.7321383" lon="13.649635"><ele>333.5</ele><time>2026-03-29T08:08:11.201Z</time></trkpt><trkpt lat="41.7320883" lon="13.6498283"><ele>334.0</ele><time>2026-03-29T08:08:12.202Z</time></trkpt><trkpt lat="41.732055" lon="13.650045"><ele>334.0</ele><time>2026-03-29T08:08:13.201Z</time></trkpt><trkpt lat="41.7320267" lon="13.6502767"><ele>334.0</ele><time>2026-03-29T08:08:14.201Z</time></trkpt><trkpt lat="41.7319933" lon="13.6505133"><ele>334.0</ele><time>2026-03-29T08:08:15.201Z</time></trkpt><trkpt lat="41.73196" lon="13.6507333"><ele>334.66666666666663</ele><time>2026-03-29T08:08:16.201Z</time></trkpt><trkpt lat="41.7319217" lon="13.6509433"><ele>335.3333333333333</ele><time>2026-03-29T08:08:17.201Z</time></trkpt><trkpt lat="41.7318883" lon="13.6511517"><ele>336.0</ele><time>2026-03-29T08:08:18.201Z</time></trkpt><trkpt lat="41.7318567" lon="13.651365"><ele>338.3333333333333</ele><time>2026-03-29T08:08:19.202Z</time></trkpt><trkpt lat="41.7318217" lon="13.6515783"><ele>340.66666666666663</ele><time>2026-03-29T08:08:20.201Z</time></trkpt><trkpt lat="41.7317833" lon="13.65179"><ele>343.0</ele><time>2026-03-29T08:08:21.201Z</time></trkpt><trkpt lat="41.7317483" lon="13.6520167"><ele>343.0</ele><time>2026-03-29T08:08:22.201Z</time></trkpt><trkpt lat="41.73171" lon="13.6522483"><ele>343.0</ele><time>2026-03-29T08:08:23.201Z</time></trkpt><trkpt lat="41.7316767" lon="13.6524733"><ele>343.0</ele><time>2026-03-29T08:08:24.201Z</time></trkpt><trkpt lat="41.7316467" lon="13.6526783"><ele>343.25</ele><time>2026-03-29T08:08:25.201Z</time></trkpt><trkpt lat="41.7316167" lon="13.6528617"><ele>343.5</ele><time>2026-03-29T08:08:26.201Z</time></trkpt><trkpt lat="41.7315883" lon="13.6530417"><ele>343.75</ele><time>2026-03-29T08:08:27.201Z</time></trkpt><trkpt lat="41.731565" lon="13.6532183"><ele>344.0</ele><time>2026-03-29T08:08:28.201Z</time></trkpt><trkpt lat="41.731555" lon="13.6533867"><ele>344.0</ele><time>2026-03-29T08:08:29.201Z</time></trkpt><trkpt lat="41.73156" lon="13.6535467"><ele>344.0</ele><time>2026-03-29T08:08:30.201Z</time></trkpt><trkpt lat="41.731585" lon="13.6537017"><ele>344.0</ele><time>2026-03-29T08:08:31.202Z</time></trkpt><trkpt lat="41.7316233" lon="13.653845"><ele>344.0</ele><time>2026-03-29T08:08:32.202Z</time></trkpt><trkpt lat="41.7316667" lon="13.65398"><ele>344.5</ele><time>2026-03-29T08:08:33.201Z</time></trkpt><trkpt lat="41.73172" lon="13.6541233"><ele>345.0</ele><time>2026-03-29T08:08:34.201Z</time></trkpt><trkpt lat="41.7317767" lon="13.6542767"><ele>345.5</ele><time>2026-03-29T08:08:35.201Z</time></trkpt><trkpt lat="41.7318267" lon="13.654425"><ele>346.0</ele><time>2026-03-29T08:08:36.201Z</time></trkpt><trkpt lat="41.7318683" lon="13.6545517"><ele>348.5</ele><time>2026-03-29T08:08:37.201Z</time></trkpt><trkpt lat="41.731905" lon="13.6546567"><ele>351.0</ele><time>2026-03-29T08:08:38.201Z</time></trkpt><trkpt lat="41.7319383" lon="13.6547433"><ele>353.5</ele><time>2026-03-29T08:08:39.201Z</time></trkpt><trkpt lat="41.7319667" lon="13.65482"><ele>356.0</ele><time>2026-03-29T08:08:40.201Z</time></trkpt><trkpt lat="41.7319967" lon="13.6548983"><ele>358.5</ele><time>2026-03-29T08:08:41.201Z</time></trkpt><trkpt lat="41.7320267" lon="13.6549767"><ele>361.0</ele><time>2026-03-29T08:08:42.201Z</time></trkpt><trkpt lat="41.732075" lon="13.655115"><ele>361.0</ele><time>2026-03-29T08:08:44.201Z</time></trkpt><trkpt lat="41.732115" lon="13.6552117"><ele>361.0</ele><time>2026-03-29T08:08:46.201Z</time></trkpt><trkpt lat="41.7321817" lon="13.6552467"><ele>361.0</ele><time>2026-03-29T08:08:48.201Z</time></trkpt><trkpt lat="41.7322733" lon="13.655135"><ele>361.0</ele><time>2026-03-29T08:08:50.201Z</time></trkpt><trkpt lat="41.732325" lon="13.65503"><ele>361.0</ele><time>2026-03-29T08:08:51.201Z</time></trkpt><trkpt lat="41.7323783" lon="13.6549517"><ele>361.0</ele><time>2026-03-29T08:08:52.201Z</time></trkpt><trkpt lat="41.73244" lon="13.65489"><ele>361.0</ele><time>2026-03-29T08:08:53.201Z</time></trkpt><trkpt lat="41.7325017" lon="13.6548533"><ele>361.0</ele><time>2026-03-29T08:08:54.201Z</time></trkpt><trkpt lat="41.73258" lon="13.654855"><ele>361.0</ele><time>2026-03-29T08:08:55.201Z</time></trkpt><trkpt lat="41.732645" lon="13.6548767"><ele>361.0</ele><time>2026-03-29T08:08:56.201Z</time></trkpt><trkpt lat="41.7327117" lon="13.654915"><ele>361.0</ele><time>2026-03-29T08:08:57.201Z</time></trkpt><trkpt lat="41.732775" lon="13.65497"><ele>361.0</ele><time>2026-03-29T08:08:58.201Z</time></trkpt><trkpt lat="41.732825" lon="13.65503"><ele>364.5714285714286</ele><time>2026-03-29T08:08:59.201Z</time></trkpt><trkpt lat="41.73287" lon="13.6550967"><ele>368.1428571428571</ele><time>2026-03-29T08:09:00.201Z</time></trkpt><trkpt lat="41.7329083" lon="13.6551817"><ele>371.7142857142857</ele><time>2026-03-29T08:09:01.201Z</time></trkpt><trkpt lat="41.7329333" lon="13.65528"><ele>375.28571428571433</ele><time>2026-03-29T08:09:02.201Z</time></trkpt><trkpt lat="41.7329533" lon="13.655375"><ele>378.8571428571429</ele><time>2026-03-29T08:09:03.201Z</time></trkpt><trkpt lat="41.7329667" lon="13.65548"><ele>382.42857142857144</ele><time>2026-03-29T08:09:04.201Z</time></trkpt><trkpt lat="41.7329717" lon="13.6555833"><ele>386.0</ele><time>2026-03-29T08:09:05.201Z</time></trkpt><trkpt lat="41.7329717" lon="13.65569"><ele>388.3333333333333</ele><time>2026-03-29T08:09:06.202Z</time></trkpt><trkpt lat="41.7329633" lon="13.6558"><ele>390.66666666666663</ele><time>2026-03-29T08:09:07.201Z</time></trkpt><trkpt lat="41.73296" lon="13.65591"><ele>393.0</ele><time>2026-03-29T08:09:08.201Z</time></trkpt><trkpt lat="41.73296" lon="13.65602"><ele>395.33333333333337</ele><time>2026-03-29T08:09:09.201Z</time></trkpt><trkpt lat="41.7329583" lon="13.65614"><ele>397.6666666666667</ele><time>2026-03-29T08:09:10.201Z</time></trkpt><trkpt lat="41.7329633" lon="13.656265"><ele>400.0</ele><time>2026-03-29T08:09:11.201Z</time></trkpt><trkpt lat="41.7329667" lon="13.6563867"><ele>400.00000000000006</ele><time>2026-03-29T08:09:12.201Z</time></trkpt><trkpt lat="41.7329767" lon="13.6564883"><ele>400.0</ele><time>2026-03-29T08:09:13.201Z</time></trkpt><trkpt lat="41.7329917" lon="13.6565717"><ele>400.0</ele><time>2026-03-29T08:09:14.201Z</time></trkpt><trkpt lat="41.7330167" lon="13.65665"><ele>400.0</ele><time>2026-03-29T08:09:15.201Z</time></trkpt><trkpt lat="41.7330567" lon="13.6567317"><ele>400.00000000000006</ele><time>2026-03-29T08:09:16.201Z</time></trkpt><trkpt lat="41.7331117" lon="13.6568167"><ele>400.0</ele><time>2026-03-29T08:09:17.201Z</time></trkpt><trkpt lat="41.73316" lon="13.656925"><ele>399.4</ele><time>2026-03-29T08:09:18.201Z</time></trkpt><trkpt lat="41.7332033" lon="13.6570533"><ele>398.8</ele><time>2026-03-29T08:09:19.201Z</time></trkpt><trkpt lat="41.7332433" lon="13.6571817"><ele>398.20000000000005</ele><time>2026-03-29T08:09:20.201Z</time></trkpt><trkpt lat="41.7332767" lon="13.6573"><ele>397.6</ele><time>2026-03-29T08:09:21.201Z</time></trkpt><trkpt lat="41.7333" lon="13.6574217"><ele>397.0</ele><time>2026-03-29T08:09:22.201Z</time></trkpt><trkpt lat="41.7333183" lon="13.6575367"><ele>397.0</ele><time>2026-03-29T08:09:23.201Z</time></trkpt><trkpt lat="41.7333333" lon="13.65766"><ele>397.0</ele><time>2026-03-29T08:09:24.201Z</time></trkpt><trkpt lat="41.7333383" lon="13.6578033"><ele>397.0</ele><time>2026-03-29T08:09:25.201Z</time></trkpt><trkpt lat="41.73334" lon="13.6579333"><ele>397.0</ele><time>2026-03-29T08:09:26.201Z</time></trkpt><trkpt lat="41.733335" lon="13.6580633"><ele>397.0</ele><time>2026-03-29T08:09:27.201Z</time></trkpt><trkpt lat="41.7333267" lon="13.6581933"><ele>397.0</ele><time>2026-03-29T08:09:28.201Z</time></trkpt><trkpt lat="41.7333117" lon="13.6583267"><ele>397.0</ele><time>2026-03-29T08:09:29.201Z</time></trkpt><trkpt lat="41.733285" lon="13.6584483"><ele>397.0</ele><time>2026-03-29T08:09:30.201Z</time></trkpt><trkpt lat="41.7332633" lon="13.6585517"><ele>397.0</ele><time>2026-03-29T08:09:31.201Z</time></trkpt><trkpt lat="41.7332367" lon="13.6586633"><ele>397.0</ele><time>2026-03-29T08:09:32.201Z</time></trkpt><trkpt lat="41.7333367" lon="13.6588717"><ele>396.40000000000003</ele><time>2026-03-29T08:09:34.187Z</time></trkpt><trkpt lat="41.7334367" lon="13.65893"><ele>395.8</ele><time>2026-03-29T08:09:37.702Z</time></trkpt><trkpt lat="41.7335317" lon="13.6588367"><ele>395.2</ele><time>2026-03-29T08:09:40.202Z</time></trkpt><trkpt lat="41.73359" lon="13.6587067"><ele>394.6</ele><time>2026-03-29T08:09:42.202Z</time></trkpt><trkpt lat="41.7336167" lon="13.6586067"><ele>394.0</ele><time>2026-03-29T08:09:43.202Z</time></trkpt><trkpt lat="41.73363" lon="13.6584867"><ele>400.2</ele><time>2026-03-29T08:09:44.203Z</time></trkpt><trkpt lat="41.7336367" lon="13.6583483"><ele>406.4</ele><time>2026-03-29T08:09:45.202Z</time></trkpt><trkpt lat="41.7336617" lon="13.658215"><ele>412.6</ele><time>2026-03-29T08:09:46.202Z</time></trkpt><trkpt lat="41.7336767" lon="13.6580867"><ele>418.8</ele><time>2026-03-29T08:09:47.202Z</time></trkpt><trkpt lat="41.7337017" lon="13.65797"><ele>425.0</ele><time>2026-03-29T08:09:48.202Z</time></trkpt><trkpt lat="41.733725" lon="13.6578733"><ele>425.49999999999994</ele><time>2026-03-29T08:09:49.202Z</time></trkpt><trkpt lat="41.7337417" lon="13.65778"><ele>426.0</ele><time>2026-03-29T08:09:50.202Z</time></trkpt><trkpt lat="41.73376" lon="13.6576967"><ele>426.5</ele><time>2026-03-29T08:09:51.202Z</time></trkpt><trkpt lat="41.7338" lon="13.6575567"><ele>427.0</ele><time>2026-03-29T08:09:53.202Z</time></trkpt><trkpt lat="41.733865" lon="13.65754"><ele>427.49999999999994</ele><time>2026-03-29T08:09:55.202Z</time></trkpt><trkpt lat="41.7339467" lon="13.6576633"><ele>428.0</ele><time>2026-03-29T08:09:57.202Z</time></trkpt><trkpt lat="41.7339833" lon="13.657765"><ele>427.49999999999994</ele><time>2026-03-29T08:09:58.202Z</time></trkpt><trkpt lat="41.7339917" lon="13.6578817"><ele>427.0</ele><time>2026-03-29T08:09:59.202Z</time></trkpt><trkpt lat="41.7340017" lon="13.6579783"><ele>426.5</ele><time>2026-03-29T08:10:00.203Z</time></trkpt><trkpt lat="41.734005" lon="13.6580783"><ele>426.0</ele><time>2026-03-29T08:10:01.202Z</time></trkpt><trkpt lat="41.7340633" lon="13.6582"><ele>425.49999999999994</ele><time>2026-03-29T08:10:03.202Z</time></trkpt><trkpt lat="41.7341183" lon="13.658295"><ele>425.0</ele><time>2026-03-29T08:10:05.202Z</time></trkpt><trkpt lat="41.7341817" lon="13.6583983"><ele>425.0</ele><time>2026-03-29T08:10:07.202Z</time></trkpt><trkpt lat="41.7342517" lon="13.6584833"><ele>425.0</ele><time>2026-03-29T08:10:09.202Z</time></trkpt><trkpt lat="41.7343167" lon="13.65852"><ele>425.0</ele><time>2026-03-29T08:10:11.202Z</time></trkpt><trkpt lat="41.7343933" lon="13.6585117"><ele>425.0</ele><time>2026-03-29T08:10:14.202Z</time></trkpt><trkpt lat="41.73438" lon="13.658395"><ele>425.0</ele><time>2026-03-29T08:10:17.202Z</time></trkpt><trkpt lat="41.73443" lon="13.6582117"><ele>429.4</ele><time>2026-03-29T08:10:19.202Z</time></trkpt><trkpt lat="41.7344667" lon="13.65809"><ele>433.8</ele><time>2026-03-29T08:10:20.202Z</time></trkpt><trkpt lat="41.73449" lon="13.6579517"><ele>438.20000000000005</ele><time>2026-03-29T08:10:21.202Z</time></trkpt><trkpt lat="41.7345183" lon="13.6578233"><ele>442.6</ele><time>2026-03-29T08:10:22.202Z</time></trkpt><trkpt lat="41.7345233" lon="13.6577"><ele>447.0</ele><time>2026-03-29T08:10:23.202Z</time></trkpt><trkpt lat="41.7345217" lon="13.6575717"><ele>448.0</ele><time>2026-03-29T08:10:24.202Z</time></trkpt><trkpt lat="41.73451" lon="13.6574317"><ele>449.0</ele><time>2026-03-29T08:10:25.202Z</time></trkpt><trkpt lat="41.73449" lon="13.6573033"><ele>450.0</ele><time>2026-03-29T08:10:26.202Z</time></trkpt><trkpt lat="41.7344617" lon="13.6571933"><ele>451.0</ele><time>2026-03-29T08:10:27.202Z</time></trkpt><trkpt lat="41.734435" lon="13.657095"><ele>452.0</ele><time>2026-03-29T08:10:28.202Z</time></trkpt><trkpt lat="41.734405" lon="13.65701"><ele>453.0</ele><time>2026-03-29T08:10:29.203Z</time></trkpt><trkpt lat="41.73438" lon="13.6569267"><ele>452.3333333333333</ele><time>2026-03-29T08:10:30.202Z</time></trkpt><trkpt lat="41.7343567" lon="13.6568383"><ele>451.66666666666663</ele><time>2026-03-29T08:10:31.202Z</time></trkpt><trkpt lat="41.7343583" lon="13.65675"><ele>451.0</ele><time>2026-03-29T08:10:32.202Z</time></trkpt><trkpt lat="41.7343867" lon="13.6566267"><ele>450.3333333333333</ele><time>2026-03-29T08:10:34.202Z</time></trkpt><trkpt lat="41.7344683" lon="13.6566233"><ele>449.66666666666663</ele><time>2026-03-29T08:10:36.202Z</time></trkpt><trkpt lat="41.7345483" lon="13.6567117"><ele>449.0</ele><time>2026-03-29T08:10:38.202Z</time></trkpt><trkpt lat="41.7345967" lon="13.6567983"><ele>448.99999999999994</ele><time>2026-03-29T08:10:39.202Z</time></trkpt><trkpt lat="41.7346533" lon="13.6568783"><ele>449.0</ele><time>2026-03-29T08:10:40.203Z</time></trkpt><trkpt lat="41.734705" lon="13.656955"><ele>449.0</ele><time>2026-03-29T08:10:41.202Z</time></trkpt><trkpt lat="41.734765" lon="13.6570383"><ele>449.0</ele><time>2026-03-29T08:10:42.202Z</time></trkpt><trkpt lat="41.7348217" lon="13.65713"><ele>448.99999999999994</ele><time>2026-03-29T08:10:43.202Z</time></trkpt><trkpt lat="41.7349" lon="13.6572067"><ele>449.0</ele><time>2026-03-29T08:10:44.202Z</time></trkpt><trkpt lat="41.734975" lon="13.6572983"><ele>449.79999999999995</ele><time>2026-03-29T08:10:45.202Z</time></trkpt><trkpt lat="41.7350483" lon="13.6573733"><ele>450.59999999999997</ele><time>2026-03-29T08:10:46.202Z</time></trkpt><trkpt lat="41.7351233" lon="13.6574383"><ele>451.4</ele><time>2026-03-29T08:10:47.202Z</time></trkpt><trkpt lat="41.7352" lon="13.6575033"><ele>452.2</ele><time>2026-03-29T08:10:48.202Z</time></trkpt><trkpt lat="41.7352783" lon="13.6575667"><ele>453.0</ele><time>2026-03-29T08:10:49.202Z</time></trkpt><trkpt lat="41.7353567" lon="13.65762"><ele>453.4</ele><time>2026-03-29T08:10:50.202Z</time></trkpt><trkpt lat="41.73545" lon="13.657695"><ele>453.79999999999995</ele><time>2026-03-29T08:10:51.202Z</time></trkpt><trkpt lat="41.7355467" lon="13.657745"><ele>454.2</ele><time>2026-03-29T08:10:52.202Z</time></trkpt><trkpt lat="41.7356367" lon="13.65778"><ele>454.6</ele><time>2026-03-29T08:10:53.202Z</time></trkpt><trkpt lat="41.7357167" lon="13.6578533"><ele>455.0</ele><time>2026-03-29T08:10:54.202Z</time></trkpt><trkpt lat="41.7357983" lon="13.6579517"><ele>454.5</ele><time>2026-03-29T08:10:55.202Z</time></trkpt><trkpt lat="41.7358817" lon="13.6580667"><ele>454.0</ele><time>2026-03-29T08:10:56.202Z</time></trkpt><trkpt lat="41.7359717" lon="13.6581883"><ele>453.5</ele><time>2026-03-29T08:10:57.202Z</time></trkpt><trkpt lat="41.7360633" lon="13.65833"><ele>453.0</ele><time>2026-03-29T08:10:58.202Z</time></trkpt><trkpt lat="41.7361433" lon="13.6584833"><ele>456.5</ele><time>2026-03-29T08:10:59.202Z</time></trkpt><trkpt lat="41.7362133" lon="13.6586433"><ele>460.0</ele><time>2026-03-29T08:11:00.202Z</time></trkpt><trkpt lat="41.73628" lon="13.6587967"><ele>463.5</ele><time>2026-03-29T08:11:01.202Z</time></trkpt><trkpt lat="41.7363267" lon="13.6589367"><ele>467.0</ele><time>2026-03-29T08:11:02.202Z</time></trkpt><trkpt lat="41.7363717" lon="13.6590633"><ele>467.0</ele><time>2026-03-29T08:11:03.202Z</time></trkpt><trkpt lat="41.7364183" lon="13.6591833"><ele>467.00000000000006</ele><time>2026-03-29T08:11:04.202Z</time></trkpt><trkpt lat="41.7364783" lon="13.6592867"><ele>467.00000000000006</ele><time>2026-03-29T08:11:05.202Z</time></trkpt><trkpt lat="41.736555" lon="13.6593783"><ele>467.0</ele><time>2026-03-29T08:11:06.202Z</time></trkpt><trkpt lat="41.7366317" lon="13.65947"><ele>467.0</ele><time>2026-03-29T08:11:07.202Z</time></trkpt><trkpt lat="41.73671" lon="13.6595583"><ele>468.40000000000003</ele><time>2026-03-29T08:11:08.202Z</time></trkpt><trkpt lat="41.73679" lon="13.6596467"><ele>469.80000000000007</ele><time>2026-03-29T08:11:09.202Z</time></trkpt><trkpt lat="41.7368717" lon="13.6597333"><ele>471.2</ele><time>2026-03-29T08:11:10.202Z</time></trkpt><trkpt lat="41.73696" lon="13.6598183"><ele>472.6</ele><time>2026-03-29T08:11:11.202Z</time></trkpt><trkpt lat="41.7370467" lon="13.65989"><ele>474.0</ele><time>2026-03-29T08:11:12.202Z</time></trkpt><trkpt lat="41.7371233" lon="13.65995"><ele>478.0</ele><time>2026-03-29T08:11:13.202Z</time></trkpt><trkpt lat="41.737185" lon="13.6599933"><ele>482.0</ele><time>2026-03-29T08:11:14.203Z</time></trkpt><trkpt lat="41.7372383" lon="13.6600417"><ele>486.0</ele><time>2026-03-29T08:11:15.202Z</time></trkpt><trkpt lat="41.7373067" lon="13.66016"><ele>490.0</ele><time>2026-03-29T08:11:17.202Z</time></trkpt><trkpt lat="41.73733" lon="13.6603367"><ele>494.0</ele><time>2026-03-29T08:11:19.202Z</time></trkpt><trkpt lat="41.7373333" lon="13.6604483"><ele>495.4</ele><time>2026-03-29T08:11:20.202Z</time></trkpt><trkpt lat="41.7373333" lon="13.6605567"><ele>496.79999999999995</ele><time>2026-03-29T08:11:21.202Z</time></trkpt><trkpt lat="41.7373383" lon="13.6606483"><ele>498.20000000000005</ele><time>2026-03-29T08:11:22.202Z</time></trkpt><trkpt lat="41.737385" lon="13.660815"><ele>499.6</ele><time>2026-03-29T08:11:24.202Z</time></trkpt><trkpt lat="41.7374267" lon="13.6609067"><ele>501.0</ele><time>2026-03-29T08:11:25.202Z</time></trkpt><trkpt lat="41.7375367" lon="13.66095"><ele>501.0</ele><time>2026-03-29T08:11:26.202Z</time></trkpt><trkpt lat="41.7376683" lon="13.6609683"><ele>501.0</ele><time>2026-03-29T08:11:27.202Z</time></trkpt><trkpt lat="41.737785" lon="13.661025"><ele>501.0</ele><time>2026-03-29T08:11:28.202Z</time></trkpt><trkpt lat="41.7378883" lon="13.6610883"><ele>501.0</ele><time>2026-03-29T08:11:29.202Z</time></trkpt><trkpt lat="41.7379833" lon="13.6611617"><ele>503.5</ele><time>2026-03-29T08:11:30.202Z</time></trkpt><trkpt lat="41.7380783" lon="13.6612517"><ele>506.0</ele><time>2026-03-29T08:11:31.202Z</time></trkpt><trkpt lat="41.7381767" lon="13.6613417"><ele>508.5</ele><time>2026-03-29T08:11:32.202Z</time></trkpt><trkpt lat="41.7382733" lon="13.6614383"><ele>511.0</ele><time>2026-03-29T08:11:33.202Z</time></trkpt><trkpt lat="41.7383767" lon="13.6615333"><ele>511.0</ele><time>2026-03-29T08:11:34.202Z</time></trkpt><trkpt lat="41.73848" lon="13.6616433"><ele>511.0</ele><time>2026-03-29T08:11:35.203Z</time></trkpt><trkpt lat="41.7385733" lon="13.661755"><ele>511.0</ele><time>2026-03-29T08:11:36.202Z</time></trkpt><trkpt lat="41.7386433" lon="13.6618783"><ele>511.0</ele><time>2026-03-29T08:11:37.202Z</time></trkpt><trkpt lat="41.7387067" lon="13.662"><ele>513.8</ele><time>2026-03-29T08:11:38.202Z</time></trkpt><trkpt lat="41.7387667" lon="13.6621233"><ele>516.6</ele><time>2026-03-29T08:11:39.202Z</time></trkpt><trkpt lat="41.7388367" lon="13.662245"><ele>519.4</ele><time>2026-03-29T08:11:40.202Z</time></trkpt><trkpt lat="41.7389133" lon="13.6623517"><ele>522.2</ele><time>2026-03-29T08:11:41.202Z</time></trkpt><trkpt lat="41.739" lon="13.6624267"><ele>525.0</ele><time>2026-03-29T08:11:42.202Z</time></trkpt><trkpt lat="41.73909" lon="13.6624683"><ele>525.0</ele><time>2026-03-29T08:11:43.202Z</time></trkpt><trkpt lat="41.7391917" lon="13.662475"><ele>525.0</ele><time>2026-03-29T08:11:44.202Z</time></trkpt><trkpt lat="41.7393183" lon="13.6624567"><ele>525.0</ele><time>2026-03-29T08:11:45.202Z</time></trkpt><trkpt lat="41.7394383" lon="13.6624267"><ele>525.0</ele><time>2026-03-29T08:11:46.202Z</time></trkpt><trkpt lat="41.7395683" lon="13.6623717"><ele>529.25</ele><time>2026-03-29T08:11:47.202Z</time></trkpt><trkpt lat="41.7396883" lon="13.6623117"><ele>533.5</ele><time>2026-03-29T08:11:48.202Z</time></trkpt><trkpt lat="41.7397967" lon="13.6622617"><ele>537.75</ele><time>2026-03-29T08:11:49.202Z</time></trkpt><trkpt lat="41.7399133" lon="13.6622233"><ele>542.0</ele><time>2026-03-29T08:11:50.202Z</time></trkpt><trkpt lat="41.7400217" lon="13.66218"><ele>542.0</ele><time>2026-03-29T08:11:51.202Z</time></trkpt><trkpt lat="41.7401083" lon="13.66212"><ele>542.0</ele><time>2026-03-29T08:11:52.203Z</time></trkpt><trkpt lat="41.7401817" lon="13.662035"><ele>542.0</ele><time>2026-03-29T08:11:53.202Z</time></trkpt><trkpt lat="41.7402317" lon="13.66194"><ele>542.0</ele><time>2026-03-29T08:11:54.202Z</time></trkpt><trkpt lat="41.74027" lon="13.6618517"><ele>542.0</ele><time>2026-03-29T08:11:55.203Z</time></trkpt><trkpt lat="41.7402983" lon="13.6617683"><ele>542.0</ele><time>2026-03-29T08:11:56.202Z</time></trkpt><trkpt lat="41.7403567" lon="13.6617283"><ele>542.5</ele><time>2026-03-29T08:11:58.202Z</time></trkpt><trkpt lat="41.7404567" lon="13.6618367"><ele>543.0</ele><time>2026-03-29T08:12:00.202Z</time></trkpt><trkpt lat="41.7405417" lon="13.6619283"><ele>543.5</ele><time>2026-03-29T08:12:01.202Z</time></trkpt><trkpt lat="41.740635" lon="13.662045"><ele>544.0</ele><time>2026-03-29T08:12:02.202Z</time></trkpt><trkpt lat="41.74071" lon="13.6621783"><ele>547.0</ele><time>2026-03-29T08:12:03.202Z</time></trkpt><trkpt lat="41.7407683" lon="13.6623217"><ele>550.0</ele><time>2026-03-29T08:12:04.202Z</time></trkpt><trkpt lat="41.74082" lon="13.6624533"><ele>553.0</ele><time>2026-03-29T08:12:05.202Z</time></trkpt><trkpt lat="41.740865" lon="13.66257"><ele>556.0</ele><time>2026-03-29T08:12:06.202Z</time></trkpt><trkpt lat="41.7409133" lon="13.6626683"><ele>559.0</ele><time>2026-03-29T08:12:07.202Z</time></trkpt><trkpt lat="41.740965" lon="13.6627567"><ele>559.8333333333334</ele><time>2026-03-29T08:12:08.202Z</time></trkpt><trkpt lat="41.7410217" lon="13.6628333"><ele>560.6666666666667</ele><time>2026-03-29T08:12:09.202Z</time></trkpt><trkpt lat="41.7410783" lon="13.6629067"><ele>561.5</ele><time>2026-03-29T08:12:10.202Z</time></trkpt><trkpt lat="41.7411383" lon="13.662975"><ele>562.3333333333334</ele><time>2026-03-29T08:12:11.202Z</time></trkpt><trkpt lat="41.7412" lon="13.66304"><ele>563.1666666666666</ele><time>2026-03-29T08:12:12.202Z</time></trkpt><trkpt lat="41.7412617" lon="13.6631017"><ele>564.0</ele><time>2026-03-29T08:12:13.202Z</time></trkpt><trkpt lat="41.74132" lon="13.6631617"><ele>567.4</ele><time>2026-03-29T08:12:14.202Z</time></trkpt><trkpt lat="41.7413867" lon="13.6632167"><ele>570.8</ele><time>2026-03-29T08:12:15.202Z</time></trkpt><trkpt lat="41.7414733" lon="13.663265"><ele>574.2</ele><time>2026-03-29T08:12:16.202Z</time></trkpt><trkpt lat="41.7415767" lon="13.6633117"><ele>577.6</ele><time>2026-03-29T08:12:17.202Z</time></trkpt><trkpt lat="41.7416783" lon="13.6633717"><ele>581.0</ele><time>2026-03-29T08:12:18.202Z</time></trkpt><trkpt lat="41.74179" lon="13.66344"><ele>582.0</ele><time>2026-03-29T08:12:19.202Z</time></trkpt><trkpt lat="41.7419067" lon="13.6635083"><ele>583.0</ele><time>2026-03-29T08:12:20.202Z</time></trkpt><trkpt lat="41.7420133" lon="13.66356"><ele>584.0</ele><time>2026-03-29T08:12:21.202Z</time></trkpt><trkpt lat="41.7421083" lon="13.6636033"><ele>585.0</ele><time>2026-03-29T08:12:22.202Z</time></trkpt><trkpt lat="41.7421967" lon="13.663625"><ele>586.0</ele><time>2026-03-29T08:12:23.202Z</time></trkpt><trkpt lat="41.7422917" lon="13.6636267"><ele>587.2</ele><time>2026-03-29T08:12:24.202Z</time></trkpt><trkpt lat="41.7423817" lon="13.6635867"><ele>588.4000000000001</ele><time>2026-03-29T08:12:25.202Z</time></trkpt><trkpt lat="41.7424733" lon="13.6635167"><ele>589.6</ele><time>2026-03-29T08:12:26.203Z</time></trkpt><trkpt lat="41.7425533" lon="13.6634133"><ele>590.8000000000001</ele><time>2026-03-29T08:12:27.202Z</time></trkpt><trkpt lat="41.742605" lon="13.6632917"><ele>592.0</ele><time>2026-03-29T08:12:28.202Z</time></trkpt><trkpt lat="41.7426467" lon="13.6631667"><ele>592.0</ele><time>2026-03-29T08:12:29.202Z</time></trkpt><trkpt lat="41.7426767" lon="13.6630633"><ele>592.0</ele><time>2026-03-29T08:12:30.202Z</time></trkpt><trkpt lat="41.7427067" lon="13.662975"><ele>592.0</ele><time>2026-03-29T08:12:31.202Z</time></trkpt><trkpt lat="41.7427433" lon="13.6629033"><ele>592.0</ele><time>2026-03-29T08:12:32.202Z</time></trkpt><trkpt lat="41.74283" lon="13.6628383"><ele>592.0</ele><time>2026-03-29T08:12:34.202Z</time></trkpt><trkpt lat="41.7428983" lon="13.6628717"><ele>592.0</ele><time>2026-03-29T08:12:35.202Z</time></trkpt><trkpt lat="41.7429767" lon="13.6629133"><ele>592.0</ele><time>2026-03-29T08:12:37.202Z</time></trkpt><trkpt lat="41.7431583" lon="13.6629383"><ele>592.0</ele><time>2026-03-29T08:12:52.202Z</time></trkpt><trkpt lat="41.74324" lon="13.6628233"><ele>592.0</ele><time>2026-03-29T08:12:54.202Z</time></trkpt><trkpt lat="41.743295" lon="13.6626867"><ele>592.0</ele><time>2026-03-29T08:12:56.202Z</time></trkpt><trkpt lat="41.7433383" lon="13.66257"><ele>592.0</ele><time>2026-03-29T08:12:58.202Z</time></trkpt><trkpt lat="41.7433867" lon="13.6624383"><ele>592.0</ele><time>2026-03-29T08:13:00.202Z</time></trkpt><trkpt lat="41.7434117" lon="13.66236"><ele>592.0</ele><time>2026-03-29T08:13:01.202Z</time></trkpt><trkpt lat="41.7434417" lon="13.6622817"><ele>592.0</ele><time>2026-03-29T08:13:02.202Z</time></trkpt><trkpt lat="41.7435067" lon="13.662145"><ele>592.0</ele><time>2026-03-29T08:13:04.202Z</time></trkpt><trkpt lat="41.7436017" lon="13.66203"><ele>594.5</ele><time>2026-03-29T08:13:06.202Z</time></trkpt><trkpt lat="41.743665" lon="13.6619767"><ele>597.0</ele><time>2026-03-29T08:13:07.202Z</time></trkpt><trkpt lat="41.7437283" lon="13.6619517"><ele>599.5</ele><time>2026-03-29T08:13:08.202Z</time></trkpt><trkpt lat="41.743795" lon="13.6619083"><ele>602.0</ele><time>2026-03-29T08:13:09.202Z</time></trkpt><trkpt lat="41.7439167" lon="13.6618033"><ele>604.5</ele><time>2026-03-29T08:13:11.202Z</time></trkpt><trkpt lat="41.7439867" lon="13.661755"><ele>607.0</ele><time>2026-03-29T08:13:12.202Z</time></trkpt><trkpt lat="41.7440483" lon="13.6617133"><ele>607.0</ele><time>2026-03-29T08:13:13.202Z</time></trkpt><trkpt lat="41.7441083" lon="13.661685"><ele>607.0</ele><time>2026-03-29T08:13:14.202Z</time></trkpt><trkpt lat="41.744195" lon="13.6616567"><ele>607.0</ele><time>2026-03-29T08:13:15.202Z</time></trkpt><trkpt lat="41.7442583" lon="13.66165"><ele>607.0</ele><time>2026-03-29T08:13:16.202Z</time></trkpt><trkpt lat="41.7443483" lon="13.661655"><ele>607.0</ele><time>2026-03-29T08:13:18.202Z</time></trkpt><trkpt lat="41.7444017" lon="13.6617017"><ele>607.0</ele><time>2026-03-29T08:13:20.202Z</time></trkpt><trkpt lat="41.7443783" lon="13.6618433"><ele>607.0</ele><time>2026-03-29T08:13:22.202Z</time></trkpt><trkpt lat="41.7443483" lon="13.6619267"><ele>607.0</ele><time>2026-03-29T08:13:23.202Z</time></trkpt><trkpt lat="41.7442917" lon="13.6620183"><ele>607.0</ele><time>2026-03-29T08:13:24.202Z</time></trkpt><trkpt lat="41.7442333" lon="13.6621667"><ele>607.0</ele><time>2026-03-29T08:13:26.202Z</time></trkpt><trkpt lat="41.744215" lon="13.66228"><ele>607.0</ele><time>2026-03-29T08:13:27.202Z</time></trkpt><trkpt lat="41.7442067" lon="13.66238"><ele>607.0</ele><time>2026-03-29T08:13:28.202Z</time></trkpt><trkpt lat="41.7442417" lon="13.6625583"><ele>608.6</ele><time>2026-03-29T08:13:30.202Z</time></trkpt><trkpt lat="41.7442867" lon="13.66263"><ele>610.2</ele><time>2026-03-29T08:13:31.202Z</time></trkpt><trkpt lat="41.7443433" lon="13.662705"><ele>611.8</ele><time>2026-03-29T08:13:32.202Z</time></trkpt><trkpt lat="41.7444083" lon="13.6627817"><ele>613.4</ele><time>2026-03-29T08:13:33.202Z</time></trkpt><trkpt lat="41.7444617" lon="13.6629283"><ele>615.0</ele><time>2026-03-29T08:13:35.203Z</time></trkpt><trkpt lat="41.74444" lon="13.6630933"><ele>619.0</ele><time>2026-03-29T08:13:37.202Z</time></trkpt><trkpt lat="41.7444633" lon="13.6632533"><ele>623.0</ele><time>2026-03-29T08:13:39.202Z</time></trkpt><trkpt lat="41.7444983" lon="13.663335"><ele>627.0</ele><time>2026-03-29T08:13:40.202Z</time></trkpt><trkpt lat="41.7445817" lon="13.663435"><ele>631.0</ele><time>2026-03-29T08:13:42.202Z</time></trkpt><trkpt lat="41.744645" lon="13.66347"><ele>635.0</ele><time>2026-03-29T08:13:44.202Z</time></trkpt><trkpt lat="41.7447867" lon="13.6635367"><ele>635.0</ele><time>2026-03-29T08:14:03.578Z</time></trkpt><trkpt lat="41.7447217" lon="13.6635667"><ele>635.0</ele><time>2026-03-29T08:14:17.202Z</time></trkpt><trkpt lat="41.7447917" lon="13.66363"><ele>635.0</ele><time>2026-03-29T08:15:04.202Z</time></trkpt><trkpt lat="41.7448417" lon="13.6637567"><ele>635.0</ele><time>2026-03-29T08:15:06.202Z</time></trkpt><trkpt lat="41.7448583" lon="13.6638717"><ele>635.0</ele><time>2026-03-29T08:15:07.202Z</time></trkpt><trkpt lat="41.7448667" lon="13.664"><ele>635.0</ele><time>2026-03-29T08:15:08.202Z</time></trkpt><trkpt lat="41.7448717" lon="13.66413"><ele>636.2</ele><time>2026-03-29T08:15:09.202Z</time></trkpt><trkpt lat="41.7448833" lon="13.664265"><ele>637.4</ele><time>2026-03-29T08:15:10.202Z</time></trkpt><trkpt lat="41.7448733" lon="13.6644183"><ele>638.5999999999999</ele><time>2026-03-29T08:15:11.202Z</time></trkpt><trkpt lat="41.7448683" lon="13.6645633"><ele>639.8</ele><time>2026-03-29T08:15:12.202Z</time></trkpt><trkpt lat="41.7448683" lon="13.6647033"><ele>641.0</ele><time>2026-03-29T08:15:13.202Z</time></trkpt><trkpt lat="41.7448717" lon="13.66484"><ele>641.8</ele><time>2026-03-29T08:15:14.202Z</time></trkpt><trkpt lat="41.7448667" lon="13.6649783"><ele>642.5999999999999</ele><time>2026-03-29T08:15:15.202Z</time></trkpt><trkpt lat="41.74486" lon="13.665115"><ele>643.4</ele><time>2026-03-29T08:15:16.202Z</time></trkpt><trkpt lat="41.7448617" lon="13.665245"><ele>644.2</ele><time>2026-03-29T08:15:17.202Z</time></trkpt><trkpt lat="41.7448667" lon="13.6653817"><ele>645.0</ele><time>2026-03-29T08:15:18.202Z</time></trkpt><trkpt lat="41.7448733" lon="13.665535"><ele>646.25</ele><time>2026-03-29T08:15:19.202Z</time></trkpt><trkpt lat="41.744875" lon="13.6657"><ele>647.5</ele><time>2026-03-29T08:15:20.202Z</time></trkpt><trkpt lat="41.74487" lon="13.665875"><ele>648.75</ele><time>2026-03-29T08:15:21.202Z</time></trkpt><trkpt lat="41.744855" lon="13.66605"><ele>650.0</ele><time>2026-03-29T08:15:22.202Z</time></trkpt><trkpt lat="41.74484" lon="13.6662067"><ele>650.25</ele><time>2026-03-29T08:15:23.202Z</time></trkpt><trkpt lat="41.7448083" lon="13.6663567"><ele>650.5</ele><time>2026-03-29T08:15:24.202Z</time></trkpt><trkpt lat="41.74479" lon="13.6665267"><ele>650.75</ele><time>2026-03-29T08:15:25.202Z</time></trkpt><trkpt lat="41.74479" lon="13.666695"><ele>651.0</ele><time>2026-03-29T08:15:26.202Z</time></trkpt><trkpt lat="41.7448233" lon="13.6668517"><ele>651.75</ele><time>2026-03-29T08:15:27.202Z</time></trkpt><trkpt lat="41.7448683" lon="13.667005"><ele>652.5</ele><time>2026-03-29T08:15:28.202Z</time></trkpt><trkpt lat="41.7449267" lon="13.6671567"><ele>653.25</ele><time>2026-03-29T08:15:29.202Z</time></trkpt><trkpt lat="41.7449967" lon="13.6672967"><ele>654.0</ele><time>2026-03-29T08:15:30.202Z</time></trkpt><trkpt lat="41.7450617" lon="13.6674233"><ele>654.0</ele><time>2026-03-29T08:15:31.202Z</time></trkpt><trkpt lat="41.7451267" lon="13.6675517"><ele>654.0</ele><time>2026-03-29T08:15:32.202Z</time></trkpt><trkpt lat="41.7451883" lon="13.6676817"><ele>654.0</ele><time>2026-03-29T08:15:33.202Z</time></trkpt><trkpt lat="41.7452483" lon="13.6678217"><ele>654.0</ele><time>2026-03-29T08:15:34.202Z</time></trkpt><trkpt lat="41.745295" lon="13.667965"><ele>658.4000000000001</ele><time>2026-03-29T08:15:35.202Z</time></trkpt><trkpt lat="41.745335" lon="13.6681167"><ele>662.8</ele><time>2026-03-29T08:15:36.202Z</time></trkpt><trkpt lat="41.7453583" lon="13.66826"><ele>667.2</ele><time>2026-03-29T08:15:37.202Z</time></trkpt><trkpt lat="41.745375" lon="13.6683933"><ele>671.5999999999999</ele><time>2026-03-29T08:15:38.202Z</time></trkpt><trkpt lat="41.7453867" lon="13.6685383"><ele>676.0</ele><time>2026-03-29T08:15:39.202Z</time></trkpt><trkpt lat="41.7454033" lon="13.668705"><ele>676.0</ele><time>2026-03-29T08:15:40.202Z</time></trkpt><trkpt lat="41.7454283" lon="13.6688817"><ele>676.0</ele><time>2026-03-29T08:15:41.202Z</time></trkpt><trkpt lat="41.74546" lon="13.6690583"><ele>676.0</ele><time>2026-03-29T08:15:42.202Z</time></trkpt><trkpt lat="41.74549" lon="13.6691983"><ele>676.0</ele><time>2026-03-29T08:15:43.202Z</time></trkpt><trkpt lat="41.74543" lon="13.66929"><ele>644.0</ele><time>2026-03-29T08:15:45.02Z</time></trkpt><trkpt lat="41.745065" lon="13.6696983"><ele>660.0</ele><time>2026-03-29T08:15:46.203Z</time></trkpt><trkpt lat="41.7453267" lon="13.6697583"><ele>676.0</ele><time>2026-03-29T08:15:47.203Z</time></trkpt><trkpt lat="41.7454967" lon="13.6698883"><ele>676.0</ele><time>2026-03-29T08:15:48.203Z</time></trkpt><trkpt lat="41.7456" lon="13.6700033"><ele>676.0</ele><time>2026-03-29T08:15:49.203Z</time></trkpt><trkpt lat="41.745685" lon="13.670095"><ele>676.0</ele><time>2026-03-29T08:15:50.204Z</time></trkpt><trkpt lat="41.745725" lon="13.670205"><ele>676.0</ele><time>2026-03-29T08:15:51.203Z</time></trkpt><trkpt lat="41.7457717" lon="13.6703333"><ele>676.0</ele><time>2026-03-29T08:15:52.203Z</time></trkpt><trkpt lat="41.7457683" lon="13.6704983"><ele>676.6666666666667</ele><time>2026-03-29T08:15:53.203Z</time></trkpt><trkpt lat="41.7455667" lon="13.67087"><ele>677.3333333333334</ele><time>2026-03-29T08:15:54.998Z</time></trkpt><trkpt lat="41.745645" lon="13.670955"><ele>678.0</ele><time>2026-03-29T08:15:56.201Z</time></trkpt><trkpt lat="41.7456183" lon="13.671075"><ele>679.5999999999999</ele><time>2026-03-29T08:15:58.201Z</time></trkpt><trkpt lat="41.74558" lon="13.6711717"><ele>681.1999999999999</ele><time>2026-03-29T08:15:59.201Z</time></trkpt><trkpt lat="41.7455467" lon="13.6712883"><ele>682.8</ele><time>2026-03-29T08:16:00.201Z</time></trkpt><trkpt lat="41.745515" lon="13.6714067"><ele>684.4</ele><time>2026-03-29T08:16:01.201Z</time></trkpt><trkpt lat="41.745495" lon="13.6715367"><ele>686.0</ele><time>2026-03-29T08:16:02.201Z</time></trkpt><trkpt lat="41.7454917" lon="13.671665"><ele>686.0</ele><time>2026-03-29T08:16:03.201Z</time></trkpt><trkpt lat="41.745475" lon="13.6718067"><ele>686.0</ele><time>2026-03-29T08:16:04.201Z</time></trkpt><trkpt lat="41.7454633" lon="13.6719567"><ele>686.0</ele><time>2026-03-29T08:16:05.201Z</time></trkpt><trkpt lat="41.7454533" lon="13.67209"><ele>686.0</ele><time>2026-03-29T08:16:06.201Z</time></trkpt><trkpt lat="41.745455" lon="13.6722033"><ele>686.0</ele><time>2026-03-29T08:16:07.201Z</time></trkpt><trkpt lat="41.7454617" lon="13.6723017"><ele>687.6666666666666</ele><time>2026-03-29T08:16:08.201Z</time></trkpt><trkpt lat="41.745475" lon="13.67242"><ele>689.3333333333334</ele><time>2026-03-29T08:16:10.201Z</time></trkpt><trkpt lat="41.74547" lon="13.6725067"><ele>691.0</ele><time>2026-03-29T08:16:17.202Z</time></trkpt><trkpt lat="41.7453383" lon="13.6729733"><ele>691.0</ele><time>2026-03-29T08:16:23.122Z</time></trkpt><trkpt lat="41.7453333" lon="13.672865"><ele>691.0</ele><time>2026-03-29T08:16:25.202Z</time></trkpt><trkpt lat="41.7454083" lon="13.6727717"><ele>691.0</ele><time>2026-03-29T08:16:26.202Z</time></trkpt><trkpt lat="41.745475" lon="13.67275"><ele>691.0</ele><time>2026-03-29T08:17:06.202Z</time></trkpt><trkpt lat="41.7455283" lon="13.6729217"><ele>691.0</ele><time>2026-03-29T08:17:08.202Z</time></trkpt><trkpt lat="41.7455683" lon="13.6730267"><ele>691.4</ele><time>2026-03-29T08:17:09.202Z</time></trkpt><trkpt lat="41.7456133" lon="13.6731317"><ele>691.8</ele><time>2026-03-29T08:17:10.202Z</time></trkpt><trkpt lat="41.74567" lon="13.67324"><ele>692.1999999999999</ele><time>2026-03-29T08:17:11.202Z</time></trkpt><trkpt lat="41.7457317" lon="13.6733417"><ele>692.5999999999999</ele><time>2026-03-29T08:17:12.202Z</time></trkpt><trkpt lat="41.7457917" lon="13.67344"><ele>693.0</ele><time>2026-03-29T08:17:13.202Z</time></trkpt><trkpt lat="41.7458617" lon="13.6735233"><ele>693.0</ele><time>2026-03-29T08:17:14.202Z</time></trkpt><trkpt lat="41.74594" lon="13.6735967"><ele>693.0</ele><time>2026-03-29T08:17:15.202Z</time></trkpt><trkpt lat="41.74602" lon="13.6736533"><ele>693.0</ele><time>2026-03-29T08:17:16.202Z</time></trkpt><trkpt lat="41.7460967" lon="13.673705"><ele>693.0</ele><time>2026-03-29T08:17:17.202Z</time></trkpt><trkpt lat="41.7461733" lon="13.6737683"><ele>693.0</ele><time>2026-03-29T08:17:18.202Z</time></trkpt><trkpt lat="41.74625" lon="13.6738383"><ele>695.3333333333334</ele><time>2026-03-29T08:17:19.202Z</time></trkpt><trkpt lat="41.7463167" lon="13.673925"><ele>697.6666666666666</ele><time>2026-03-29T08:17:20.202Z</time></trkpt><trkpt lat="41.7463717" lon="13.6740267"><ele>700.0</ele><time>2026-03-29T08:17:21.202Z</time></trkpt><trkpt lat="41.7464167" lon="13.6741367"><ele>702.3333333333333</ele><time>2026-03-29T08:17:22.203Z</time></trkpt><trkpt lat="41.7464467" lon="13.6742383"><ele>704.6666666666666</ele><time>2026-03-29T08:17:23.202Z</time></trkpt><trkpt lat="41.7464683" lon="13.67432"><ele>707.0</ele><time>2026-03-29T08:17:24.202Z</time></trkpt><trkpt lat="41.74647" lon="13.6744733"><ele>707.0</ele><time>2026-03-29T08:17:26.202Z</time></trkpt><trkpt lat="41.7464667" lon="13.6745733"><ele>707.0</ele><time>2026-03-29T08:17:27.202Z</time></trkpt><trkpt lat="41.7464717" lon="13.6746933"><ele>707.0</ele><time>2026-03-29T08:17:28.202Z</time></trkpt><trkpt lat="41.746495" lon="13.6748317"><ele>707.0</ele><time>2026-03-29T08:17:29.203Z</time></trkpt><trkpt lat="41.7465383" lon="13.6749567"><ele>707.0</ele><time>2026-03-29T08:17:30.203Z</time></trkpt><trkpt lat="41.746595" lon="13.675075"><ele>707.0</ele><time>2026-03-29T08:17:31.202Z</time></trkpt><trkpt lat="41.746655" lon="13.67518"><ele>707.0</ele><time>2026-03-29T08:17:32.202Z</time></trkpt><trkpt lat="41.7467133" lon="13.6752617"><ele>707.0</ele><time>2026-03-29T08:17:33.202Z</time></trkpt><trkpt lat="41.7467767" lon="13.6753267"><ele>707.0</ele><time>2026-03-29T08:17:34.202Z</time></trkpt><trkpt lat="41.7468583" lon="13.67538"><ele>707.0</ele><time>2026-03-29T08:17:35.203Z</time></trkpt><trkpt lat="41.7469717" lon="13.6754117"><ele>709.0</ele><time>2026-03-29T08:17:36.202Z</time></trkpt><trkpt lat="41.7470933" lon="13.6754417"><ele>711.0</ele><time>2026-03-29T08:17:37.202Z</time></trkpt><trkpt lat="41.7472133" lon="13.675475"><ele>713.0</ele><time>2026-03-29T08:17:38.202Z</time></trkpt><trkpt lat="41.7473233" lon="13.6755033"><ele>715.0</ele><time>2026-03-29T08:17:39.202Z</time></trkpt><trkpt lat="41.7474233" lon="13.6755283"><ele>715.0</ele><time>2026-03-29T08:17:40.202Z</time></trkpt><trkpt lat="41.7475083" lon="13.6755533"><ele>715.0</ele><time>2026-03-29T08:17:41.202Z</time></trkpt><trkpt lat="41.7475767" lon="13.6755883"><ele>715.0</ele><time>2026-03-29T08:17:42.202Z</time></trkpt><trkpt lat="41.747625" lon="13.675645"><ele>715.0</ele><time>2026-03-29T08:17:43.202Z</time></trkpt><trkpt lat="41.74765" lon="13.675725"><ele>715.0</ele><time>2026-03-29T08:17:44.202Z</time></trkpt><trkpt lat="41.7476433" lon="13.6758267"><ele>715.0</ele><time>2026-03-29T08:17:45.202Z</time></trkpt><trkpt lat="41.7476183" lon="13.6759367"><ele>715.0</ele><time>2026-03-29T08:17:46.202Z</time></trkpt><trkpt lat="41.7475817" lon="13.6760333"><ele>715.0</ele><time>2026-03-29T08:17:47.202Z</time></trkpt><trkpt lat="41.7475467" lon="13.676115"><ele>715.0</ele><time>2026-03-29T08:17:48.202Z</time></trkpt><trkpt lat="41.7475183" lon="13.676195"><ele>715.0</ele><time>2026-03-29T08:17:49.202Z</time></trkpt><trkpt lat="41.747495" lon="13.6762767"><ele>715.0</ele><time>2026-03-29T08:17:50.202Z</time></trkpt><trkpt lat="41.7474767" lon="13.676365"><ele>715.0</ele><time>2026-03-29T08:17:51.202Z</time></trkpt><trkpt lat="41.7474717" lon="13.6764617"><ele>715.0</ele><time>2026-03-29T08:17:52.202Z</time></trkpt><trkpt lat="41.7474833" lon="13.6765583"><ele>714.2857142857143</ele><time>2026-03-29T08:17:53.202Z</time></trkpt><trkpt lat="41.7474983" lon="13.67665"><ele>713.5714285714286</ele><time>2026-03-29T08:17:54.202Z</time></trkpt><trkpt lat="41.7475167" lon="13.6767333"><ele>712.8571428571429</ele><time>2026-03-29T08:17:55.202Z</time></trkpt><trkpt lat="41.747535" lon="13.6768183"><ele>712.1428571428571</ele><time>2026-03-29T08:17:56.202Z</time></trkpt><trkpt lat="41.7475567" lon="13.6769"><ele>711.4285714285714</ele><time>2026-03-29T08:17:57.202Z</time></trkpt><trkpt lat="41.747575" lon="13.6769817"><ele>710.7142857142857</ele><time>2026-03-29T08:17:58.202Z</time></trkpt><trkpt lat="41.7475967" lon="13.6770683"><ele>710.0</ele><time>2026-03-29T08:17:59.202Z</time></trkpt><trkpt lat="41.7476183" lon="13.67716"><ele>711.0</ele><time>2026-03-29T08:18:00.202Z</time></trkpt><trkpt lat="41.7476433" lon="13.67725"><ele>712.0</ele><time>2026-03-29T08:18:01.202Z</time></trkpt><trkpt lat="41.7476733" lon="13.67734"><ele>713.0</ele><time>2026-03-29T08:18:02.202Z</time></trkpt><trkpt lat="41.7477017" lon="13.677435"><ele>714.0</ele><time>2026-03-29T08:18:03.202Z</time></trkpt><trkpt lat="41.7477333" lon="13.67753"><ele>715.0</ele><time>2026-03-29T08:18:04.202Z</time></trkpt><trkpt lat="41.74777" lon="13.6776333"><ele>716.0</ele><time>2026-03-29T08:18:05.202Z</time></trkpt><trkpt lat="41.747805" lon="13.677725"><ele>713.5714285714287</ele><time>2026-03-29T08:18:06.202Z</time></trkpt><trkpt lat="41.7478433" lon="13.67782"><ele>711.1428571428571</ele><time>2026-03-29T08:18:07.202Z</time></trkpt><trkpt lat="41.7478883" lon="13.677905"><ele>708.7142857142858</ele><time>2026-03-29T08:18:08.202Z</time></trkpt><trkpt lat="41.7479317" lon="13.6779867"><ele>706.2857142857143</ele><time>2026-03-29T08:18:09.202Z</time></trkpt><trkpt lat="41.74797" lon="13.6780633"><ele>703.8571428571429</ele><time>2026-03-29T08:18:10.202Z</time></trkpt><trkpt lat="41.7480083" lon="13.6781433"><ele>701.4285714285714</ele><time>2026-03-29T08:18:11.202Z</time></trkpt><trkpt lat="41.7480467" lon="13.6782167"><ele>699.0</ele><time>2026-03-29T08:18:12.202Z</time></trkpt><trkpt lat="41.74808" lon="13.6783"><ele>699.0</ele><time>2026-03-29T08:18:13.202Z</time></trkpt><trkpt lat="41.74811" lon="13.678385"><ele>699.0</ele><time>2026-03-29T08:18:14.202Z</time></trkpt><trkpt lat="41.7481367" lon="13.6784667"><ele>699.0</ele><time>2026-03-29T08:18:15.202Z</time></trkpt><trkpt lat="41.7481867" lon="13.6786117"><ele>699.0</ele><time>2026-03-29T08:18:17.202Z</time></trkpt><trkpt lat="41.74823" lon="13.6787717"><ele>699.0</ele><time>2026-03-29T08:18:19.202Z</time></trkpt><trkpt lat="41.7482517" lon="13.6788633"><ele>696.1666666666666</ele><time>2026-03-29T08:18:20.202Z</time></trkpt><trkpt lat="41.74828" lon="13.678955"><ele>693.3333333333334</ele><time>2026-03-29T08:18:21.202Z</time></trkpt><trkpt lat="41.7483067" lon="13.6790517"><ele>690.5</ele><time>2026-03-29T08:18:22.202Z</time></trkpt><trkpt lat="41.748335" lon="13.679145"><ele>687.6666666666667</ele><time>2026-03-29T08:18:23.202Z</time></trkpt><trkpt lat="41.7483617" lon="13.679235"><ele>684.8333333333334</ele><time>2026-03-29T08:18:24.202Z</time></trkpt><trkpt lat="41.7484133" lon="13.6793917"><ele>682.0</ele><time>2026-03-29T08:18:26.202Z</time></trkpt><trkpt lat="41.7484633" lon="13.679515"><ele>680.0</ele><time>2026-03-29T08:18:28.202Z</time></trkpt><trkpt lat="41.7485217" lon="13.6796367"><ele>678.0</ele><time>2026-03-29T08:18:30.202Z</time></trkpt><trkpt lat="41.7485933" lon="13.6797383"><ele>676.0</ele><time>2026-03-29T08:18:32.202Z</time></trkpt><trkpt lat="41.7486783" lon="13.6798317"><ele>674.0</ele><time>2026-03-29T08:18:34.202Z</time></trkpt><trkpt lat="41.7487567" lon="13.679885"><ele>672.0</ele><time>2026-03-29T08:18:36.202Z</time></trkpt><trkpt lat="41.7488333" lon="13.67992"><ele>672.0</ele><time>2026-03-29T08:18:38.203Z</time></trkpt><trkpt lat="41.7489183" lon="13.6799733"><ele>672.0</ele><time>2026-03-29T08:18:40.202Z</time></trkpt><trkpt lat="41.74899" lon="13.6800133"><ele>672.0</ele><time>2026-03-29T08:18:42.202Z</time></trkpt><trkpt lat="41.7490567" lon="13.6800633"><ele>672.0</ele><time>2026-03-29T08:18:45.203Z</time></trkpt><trkpt lat="41.749095" lon="13.680205"><ele>672.0</ele><time>2026-03-29T08:19:01.203Z</time></trkpt><trkpt lat="41.7490717" lon="13.6803183"><ele>672.0</ele><time>2026-03-29T08:20:17.202Z</time></trkpt><trkpt lat="41.7490333" lon="13.68039"><ele>669.8333333333334</ele><time>2026-03-29T08:20:20.202Z</time></trkpt><trkpt lat="41.74895" lon="13.680425"><ele>667.6666666666666</ele><time>2026-03-29T08:20:23.202Z</time></trkpt><trkpt lat="41.7488817" lon="13.680455"><ele>665.5</ele><time>2026-03-29T08:20:25.202Z</time></trkpt><trkpt lat="41.7488067" lon="13.680495"><ele>663.3333333333333</ele><time>2026-03-29T08:20:27.202Z</time></trkpt><trkpt lat="41.7487517" lon="13.68055"><ele>661.1666666666666</ele><time>2026-03-29T08:20:29.203Z</time></trkpt><trkpt lat="41.7487033" lon="13.6806117"><ele>659.0</ele><time>2026-03-29T08:20:31.202Z</time></trkpt><trkpt lat="41.74864" lon="13.6806717"><ele>659.0</ele><time>2026-03-29T08:20:33.202Z</time></trkpt><trkpt lat="41.7485717" lon="13.6807167"><ele>659.0</ele><time>2026-03-29T08:20:35.202Z</time></trkpt><trkpt lat="41.7485033" lon="13.6807467"><ele>659.0</ele><time>2026-03-29T08:20:37.203Z</time></trkpt><trkpt lat="41.7484317" lon="13.6808033"><ele>659.0</ele><time>2026-03-29T08:20:41.202Z</time></trkpt><trkpt lat="41.7484067" lon="13.680905"><ele>659.0</ele><time>2026-03-29T08:20:43.202Z</time></trkpt><trkpt lat="41.7483867" lon="13.6810233"><ele>659.0</ele><time>2026-03-29T08:20:45.202Z</time></trkpt><trkpt lat="41.7483767" lon="13.6811367"><ele>654.6666666666666</ele><time>2026-03-29T08:20:47.202Z</time></trkpt><trkpt lat="41.7483483" lon="13.6812517"><ele>650.3333333333333</ele><time>2026-03-29T08:20:49.202Z</time></trkpt><trkpt lat="41.7483" lon="13.6813317"><ele>646.0</ele><time>2026-03-29T08:20:51.202Z</time></trkpt><trkpt lat="41.7482283" lon="13.681395"><ele>641.6666666666666</ele><time>2026-03-29T08:20:54.203Z</time></trkpt><trkpt lat="41.7481433" lon="13.681365"><ele>637.3333333333334</ele><time>2026-03-29T08:20:57.202Z</time></trkpt><trkpt lat="41.748065" lon="13.6813133"><ele>633.0</ele><time>2026-03-29T08:21:00.202Z</time></trkpt><trkpt lat="41.7479983" lon="13.681385"><ele>633.0</ele><time>2026-03-29T08:21:05.202Z</time></trkpt><trkpt lat="41.7479383" lon="13.6814433"><ele>633.0</ele><time>2026-03-29T08:21:08.202Z</time></trkpt><trkpt lat="41.7478633" lon="13.68139"><ele>633.0</ele><time>2026-03-29T08:21:11.202Z</time></trkpt><trkpt lat="41.7478033" lon="13.6813467"><ele>633.0</ele><time>2026-03-29T08:21:13.202Z</time></trkpt><trkpt lat="41.74773" lon="13.6813767"><ele>633.0</ele><time>2026-03-29T08:21:17.202Z</time></trkpt><trkpt lat="41.747705" lon="13.6814583"><ele>633.0</ele><time>2026-03-29T08:21:20.202Z</time></trkpt><trkpt lat="41.7476967" lon="13.68157"><ele>629.6666666666666</ele><time>2026-03-29T08:21:23.202Z</time></trkpt><trkpt lat="41.7476767" lon="13.6816617"><ele>626.3333333333334</ele><time>2026-03-29T08:21:25.202Z</time></trkpt><trkpt lat="41.747645" lon="13.681755"><ele>623.0</ele><time>2026-03-29T08:21:27.202Z</time></trkpt><trkpt lat="41.7475833" lon="13.6818917"><ele>619.6666666666667</ele><time>2026-03-29T08:21:29.202Z</time></trkpt><trkpt lat="41.7475467" lon="13.681965"><ele>616.3333333333334</ele><time>2026-03-29T08:21:30.202Z</time></trkpt><trkpt lat="41.747475" lon="13.68207"><ele>613.0</ele><time>2026-03-29T08:21:32.202Z</time></trkpt><trkpt lat="41.7474083" lon="13.6821067"><ele>611.2857142857143</ele><time>2026-03-29T08:21:34.202Z</time></trkpt><trkpt lat="41.7473217" lon="13.6821333"><ele>609.5714285714286</ele><time>2026-03-29T08:21:37.202Z</time></trkpt><trkpt lat="41.7472517" lon="13.6821283"><ele>607.8571428571429</ele><time>2026-03-29T08:21:39.202Z</time></trkpt><trkpt lat="41.7471867" lon="13.6821"><ele>606.1428571428571</ele><time>2026-03-29T08:21:41.202Z</time></trkpt><trkpt lat="41.7471183" lon="13.6820517"><ele>604.4285714285714</ele><time>2026-03-29T08:21:43.202Z</time></trkpt><trkpt lat="41.7470783" lon="13.681985"><ele>602.7142857142857</ele><time>2026-03-29T08:21:46.202Z</time></trkpt><trkpt lat="41.7470067" lon="13.6820217"><ele>601.0</ele><time>2026-03-29T08:21:50.202Z</time></trkpt><trkpt lat="41.7469567" lon="13.682085"><ele>601.0</ele><time>2026-03-29T08:21:53.202Z</time></trkpt><trkpt lat="41.7469167" lon="13.6821817"><ele>601.0</ele><time>2026-03-29T08:21:57.202Z</time></trkpt><trkpt lat="41.746895" lon="13.68227"><ele>601.0</ele><time>2026-03-29T08:21:59.202Z</time></trkpt><trkpt lat="41.7469017" lon="13.6823933"><ele>601.0</ele><time>2026-03-29T08:22:02.202Z</time></trkpt><trkpt lat="41.746825" lon="13.6824383"><ele>601.0</ele><time>2026-03-29T08:22:06.202Z</time></trkpt><trkpt lat="41.746745" lon="13.6823967"><ele>601.0</ele><time>2026-03-29T08:22:09.202Z</time></trkpt><trkpt lat="41.74665" lon="13.6823383"><ele>599.0</ele><time>2026-03-29T08:22:11.202Z</time></trkpt><trkpt lat="41.7465883" lon="13.6822833"><ele>597.0</ele><time>2026-03-29T08:22:12.202Z</time></trkpt><trkpt lat="41.7465233" lon="13.682205"><ele>595.0</ele><time>2026-03-29T08:22:13.203Z</time></trkpt><trkpt lat="41.7464633" lon="13.682115"><ele>593.0</ele><time>2026-03-29T08:22:14.202Z</time></trkpt><trkpt lat="41.746405" lon="13.6820417"><ele>591.0</ele><time>2026-03-29T08:22:15.202Z</time></trkpt><trkpt lat="41.7463433" lon="13.6819767"><ele>589.0</ele><time>2026-03-29T08:22:16.202Z</time></trkpt><trkpt lat="41.7462867" lon="13.6819133"><ele>589.0</ele><time>2026-03-29T08:22:17.202Z</time></trkpt><trkpt lat="41.7462367" lon="13.6818467"><ele>589.0</ele><time>2026-03-29T08:22:18.202Z</time></trkpt><trkpt lat="41.7461983" lon="13.681775"><ele>589.0</ele><time>2026-03-29T08:22:19.202Z</time></trkpt><trkpt lat="41.7461633" lon="13.6817"><ele>589.0</ele><time>2026-03-29T08:22:20.202Z</time></trkpt><trkpt lat="41.7461483" lon="13.6815683"><ele>589.0</ele><time>2026-03-29T08:22:22.202Z</time></trkpt><trkpt lat="41.746155" lon="13.6814217"><ele>589.0</ele><time>2026-03-29T08:22:24.202Z</time></trkpt><trkpt lat="41.7461333" lon="13.6813283"><ele>589.0</ele><time>2026-03-29T08:22:25.202Z</time></trkpt><trkpt lat="41.7460933" lon="13.6812333"><ele>589.0</ele><time>2026-03-29T08:22:26.202Z</time></trkpt><trkpt lat="41.7460383" lon="13.681135"><ele>589.0</ele><time>2026-03-29T08:22:27.202Z</time></trkpt><trkpt lat="41.7459883" lon="13.6810317"><ele>589.0</ele><time>2026-03-29T08:22:28.202Z</time></trkpt><trkpt lat="41.74594" lon="13.6809417"><ele>589.0</ele><time>2026-03-29T08:22:29.202Z</time></trkpt><trkpt lat="41.7458883" lon="13.68084"><ele>589.0</ele><time>2026-03-29T08:22:30.203Z</time></trkpt><trkpt lat="41.7458333" lon="13.68074"><ele>588.6</ele><time>2026-03-29T08:22:31.203Z</time></trkpt><trkpt lat="41.745775" lon="13.68063"><ele>588.2</ele><time>2026-03-29T08:22:32.203Z</time></trkpt><trkpt lat="41.7457167" lon="13.68054"><ele>587.8000000000001</ele><time>2026-03-29T08:22:33.202Z</time></trkpt><trkpt lat="41.7456683" lon="13.680465"><ele>587.4</ele><time>2026-03-29T08:22:34.202Z</time></trkpt><trkpt lat="41.7456017" lon="13.6803533"><ele>587.0</ele><time>2026-03-29T08:22:36.202Z</time></trkpt><trkpt lat="41.7455583" lon="13.6802533"><ele>587.0</ele><time>2026-03-29T08:22:38.202Z</time></trkpt><trkpt lat="41.7455367" lon="13.68017"><ele>587.0</ele><time>2026-03-29T08:22:40.202Z</time></trkpt><trkpt lat="41.745535" lon="13.6800517"><ele>587.0</ele><time>2026-03-29T08:22:42.202Z</time></trkpt><trkpt lat="41.7455133" lon="13.6799383"><ele>587.0</ele><time>2026-03-29T08:22:44.202Z</time></trkpt><trkpt lat="41.7454483" lon="13.67979"><ele>587.0</ele><time>2026-03-29T08:22:46.202Z</time></trkpt><trkpt lat="41.7453933" lon="13.679715"><ele>587.0</ele><time>2026-03-29T08:22:47.202Z</time></trkpt><trkpt lat="41.7453383" lon="13.67966"><ele>587.0</ele><time>2026-03-29T08:22:48.203Z</time></trkpt><trkpt lat="41.7452767" lon="13.6796217"><ele>587.0</ele><time>2026-03-29T08:22:49.202Z</time></trkpt><trkpt lat="41.7452117" lon="13.679585"><ele>587.0</ele><time>2026-03-29T08:22:50.202Z</time></trkpt><trkpt lat="41.7451017" lon="13.6795583"><ele>587.0</ele><time>2026-03-29T08:22:52.202Z</time></trkpt><trkpt lat="41.7449983" lon="13.6795617"><ele>587.0</ele><time>2026-03-29T08:22:54.202Z</time></trkpt><trkpt lat="41.7448983" lon="13.67957"><ele>582.0</ele><time>2026-03-29T08:22:56.202Z</time></trkpt><trkpt lat="41.7448183" lon="13.679555"><ele>577.0</ele><time>2026-03-29T08:22:58.202Z</time></trkpt><trkpt lat="41.7447483" lon="13.6795383"><ele>572.0</ele><time>2026-03-29T08:23:00.202Z</time></trkpt><trkpt lat="41.7446633" lon="13.6795883"><ele>567.0</ele><time>2026-03-29T08:23:02.202Z</time></trkpt><trkpt lat="41.7446433" lon="13.6796733"><ele>562.0</ele><time>2026-03-29T08:23:04.202Z</time></trkpt><trkpt lat="41.74457" lon="13.6797617"><ele>557.0</ele><time>2026-03-29T08:23:06.202Z</time></trkpt><trkpt lat="41.7445217" lon="13.6798983"><ele>557.0</ele><time>2026-03-29T08:23:21.047Z</time></trkpt><trkpt lat="41.7445133" lon="13.67999"><ele>557.0</ele><time>2026-03-29T08:23:29.202Z</time></trkpt><trkpt lat="41.7444483" lon="13.6799817"><ele>557.0</ele><time>2026-03-29T08:23:41.203Z</time></trkpt><trkpt lat="41.7445133" lon="13.679935"><ele>557.0</ele><time>2026-03-29T08:24:46.202Z</time></trkpt><trkpt lat="41.7446317" lon="13.68003"><ele>557.0</ele><time>2026-03-29T08:24:48.202Z</time></trkpt><trkpt lat="41.7447067" lon="13.6800967"><ele>557.0</ele><time>2026-03-29T08:24:49.202Z</time></trkpt><trkpt lat="41.7447933" lon="13.680185"><ele>552.8000000000001</ele><time>2026-03-29T08:24:50.202Z</time></trkpt><trkpt lat="41.74488" lon="13.6802733"><ele>548.6</ele><time>2026-03-29T08:24:51.202Z</time></trkpt><trkpt lat="41.7449583" lon="13.6803717"><ele>544.4000000000001</ele><time>2026-03-29T08:24:52.202Z</time></trkpt><trkpt lat="41.7450217" lon="13.6804933"><ele>540.2</ele><time>2026-03-29T08:24:53.202Z</time></trkpt><trkpt lat="41.7450733" lon="13.68063"><ele>536.0</ele><time>2026-03-29T08:24:54.202Z</time></trkpt><trkpt lat="41.7450967" lon="13.680785"><ele>536.0</ele><time>2026-03-29T08:24:55.203Z</time></trkpt><trkpt lat="41.745085" lon="13.6809367"><ele>536.0</ele><time>2026-03-29T08:24:56.202Z</time></trkpt><trkpt lat="41.74505" lon="13.6811"><ele>536.0</ele><time>2026-03-29T08:24:57.202Z</time></trkpt><trkpt lat="41.7449983" lon="13.6812633"><ele>536.0</ele><time>2026-03-29T08:24:58.202Z</time></trkpt><trkpt lat="41.7449433" lon="13.6814183"><ele>533.75</ele><time>2026-03-29T08:24:59.202Z</time></trkpt><trkpt lat="41.7448817" lon="13.6815617"><ele>531.5</ele><time>2026-03-29T08:25:00.202Z</time></trkpt><trkpt lat="41.7448117" lon="13.6816883"><ele>529.25</ele><time>2026-03-29T08:25:01.202Z</time></trkpt><trkpt lat="41.7447283" lon="13.6817933"><ele>527.0</ele><time>2026-03-29T08:25:02.203Z</time></trkpt><trkpt lat="41.74463" lon="13.6818533"><ele>527.0</ele><time>2026-03-29T08:25:03.202Z</time></trkpt><trkpt lat="41.74451" lon="13.6818883"><ele>527.0</ele><time>2026-03-29T08:25:04.202Z</time></trkpt><trkpt lat="41.744375" lon="13.6818783"><ele>527.0</ele><time>2026-03-29T08:25:05.202Z</time></trkpt><trkpt lat="41.74423" lon="13.6818317"><ele>527.0</ele><time>2026-03-29T08:25:06.202Z</time></trkpt><trkpt lat="41.7440783" lon="13.681775"><ele>526.0</ele><time>2026-03-29T08:25:07.202Z</time></trkpt><trkpt lat="41.7439233" lon="13.6817183"><ele>525.0</ele><time>2026-03-29T08:25:08.202Z</time></trkpt><trkpt lat="41.7437683" lon="13.68166"><ele>524.0</ele><time>2026-03-29T08:25:09.202Z</time></trkpt><trkpt lat="41.74361" lon="13.68161"><ele>526.3333333333333</ele><time>2026-03-29T08:25:10.202Z</time></trkpt><trkpt lat="41.743435" lon="13.6815517"><ele>528.6666666666666</ele><time>2026-03-29T08:25:11.202Z</time></trkpt><trkpt lat="41.7432583" lon="13.6814967"><ele>531.0</ele><time>2026-03-29T08:25:12.203Z</time></trkpt><trkpt lat="41.74308" lon="13.6814467"><ele>531.0</ele><time>2026-03-29T08:25:13.202Z</time></trkpt><trkpt lat="41.7428983" lon="13.6813933"><ele>531.0</ele><time>2026-03-29T08:25:14.202Z</time></trkpt><trkpt lat="41.7427217" lon="13.6813467"><ele>531.0</ele><time>2026-03-29T08:25:15.202Z</time></trkpt><trkpt lat="41.7425517" lon="13.6813"><ele>537.3333333333334</ele><time>2026-03-29T08:25:16.202Z</time></trkpt><trkpt lat="41.7423833" lon="13.6812517"><ele>543.6666666666667</ele><time>2026-03-29T08:25:17.202Z</time></trkpt><trkpt lat="41.7422083" lon="13.6812067"><ele>550.0</ele><time>2026-03-29T08:25:18.202Z</time></trkpt><trkpt lat="41.7420367" lon="13.681165"><ele>550.0</ele><time>2026-03-29T08:25:19.202Z</time></trkpt><trkpt lat="41.7418833" lon="13.6811183"><ele>550.0</ele><time>2026-03-29T08:25:20.202Z</time></trkpt><trkpt lat="41.74175" lon="13.6810783"><ele>550.0</ele><time>2026-03-29T08:25:21.202Z</time></trkpt><trkpt lat="41.741635" lon="13.6810583"><ele>550.0</ele><time>2026-03-29T08:25:22.202Z</time></trkpt><trkpt lat="41.7415417" lon="13.6810783"><ele>548.75</ele><time>2026-03-29T08:25:23.202Z</time></trkpt><trkpt lat="41.74146" lon="13.68115"><ele>547.5</ele><time>2026-03-29T08:25:24.202Z</time></trkpt><trkpt lat="41.741385" lon="13.6812733"><ele>546.25</ele><time>2026-03-29T08:25:25.202Z</time></trkpt><trkpt lat="41.7413083" lon="13.6814217"><ele>545.0</ele><time>2026-03-29T08:25:26.202Z</time></trkpt><trkpt lat="41.7412367" lon="13.6815767"><ele>545.0</ele><time>2026-03-29T08:25:27.202Z</time></trkpt><trkpt lat="41.7411783" lon="13.6817367"><ele>545.0</ele><time>2026-03-29T08:25:28.202Z</time></trkpt><trkpt lat="41.7411267" lon="13.6819233"><ele>545.0</ele><time>2026-03-29T08:25:29.202Z</time></trkpt><trkpt lat="41.74109" lon="13.6821233"><ele>545.0</ele><time>2026-03-29T08:25:30.202Z</time></trkpt><trkpt lat="41.741055" lon="13.6823117"><ele>544.5</ele><time>2026-03-29T08:25:31.202Z</time></trkpt><trkpt lat="41.74101" lon="13.6824933"><ele>544.0</ele><time>2026-03-29T08:25:32.202Z</time></trkpt><trkpt lat="41.7409483" lon="13.682665"><ele>543.5</ele><time>2026-03-29T08:25:33.202Z</time></trkpt><trkpt lat="41.74088" lon="13.6828267"><ele>543.0</ele><time>2026-03-29T08:25:34.202Z</time></trkpt><trkpt lat="41.7408033" lon="13.682965"><ele>547.0</ele><time>2026-03-29T08:25:35.202Z</time></trkpt><trkpt lat="41.74071" lon="13.6830783"><ele>551.0</ele><time>2026-03-29T08:25:36.202Z</time></trkpt><trkpt lat="41.7405933" lon="13.68317"><ele>555.0</ele><time>2026-03-29T08:25:37.202Z</time></trkpt><trkpt lat="41.74046" lon="13.6832283"><ele>559.0</ele><time>2026-03-29T08:25:38.202Z</time></trkpt><trkpt lat="41.7403333" lon="13.683275"><ele>559.0</ele><time>2026-03-29T08:25:39.202Z</time></trkpt><trkpt lat="41.74022" lon="13.6833467"><ele>559.0</ele><time>2026-03-29T08:25:40.202Z</time></trkpt><trkpt lat="41.7401483" lon="13.6834567"><ele>559.0</ele><time>2026-03-29T08:25:41.202Z</time></trkpt><trkpt lat="41.7400917" lon="13.6836067"><ele>559.0</ele><time>2026-03-29T08:25:42.202Z</time></trkpt><trkpt lat="41.7400383" lon="13.68379"><ele>558.25</ele><time>2026-03-29T08:25:43.202Z</time></trkpt><trkpt lat="41.7399883" lon="13.68398"><ele>557.5</ele><time>2026-03-29T08:25:44.202Z</time></trkpt><trkpt lat="41.739925" lon="13.6841583"><ele>556.75</ele><time>2026-03-29T08:25:45.202Z</time></trkpt><trkpt lat="41.73985" lon="13.684325"><ele>556.0</ele><time>2026-03-29T08:25:46.202Z</time></trkpt><trkpt lat="41.739775" lon="13.6844917"><ele>558.6666666666667</ele><time>2026-03-29T08:25:47.202Z</time></trkpt><trkpt lat="41.7397033" lon="13.684675"><ele>561.3333333333334</ele><time>2026-03-29T08:25:48.202Z</time></trkpt><trkpt lat="41.73963" lon="13.6848617"><ele>564.0</ele><time>2026-03-29T08:25:49.202Z</time></trkpt><trkpt lat="41.73956" lon="13.6850317"><ele>564.0</ele><time>2026-03-29T08:25:50.202Z</time></trkpt><trkpt lat="41.7394917" lon="13.6851783"><ele>564.0</ele><time>2026-03-29T08:25:51.202Z</time></trkpt><trkpt lat="41.7394317" lon="13.68531"><ele>564.0</ele><time>2026-03-29T08:25:52.202Z</time></trkpt><trkpt lat="41.73936" lon="13.6854317"><ele>564.0</ele><time>2026-03-29T08:25:53.202Z</time></trkpt><trkpt lat="41.7392767" lon="13.685555"><ele>565.25</ele><time>2026-03-29T08:25:54.202Z</time></trkpt><trkpt lat="41.7391717" lon="13.685665"><ele>566.5</ele><time>2026-03-29T08:25:55.202Z</time></trkpt><trkpt lat="41.7390533" lon="13.6857617"><ele>567.75</ele><time>2026-03-29T08:25:56.202Z</time></trkpt><trkpt lat="41.7389317" lon="13.68586"><ele>569.0</ele><time>2026-03-29T08:25:57.202Z</time></trkpt><trkpt lat="41.7388217" lon="13.685965"><ele>569.0</ele><time>2026-03-29T08:25:58.202Z</time></trkpt><trkpt lat="41.738735" lon="13.6860717"><ele>569.0</ele><time>2026-03-29T08:25:59.202Z</time></trkpt><trkpt lat="41.7386717" lon="13.6861917"><ele>569.0</ele><time>2026-03-29T08:26:00.202Z</time></trkpt><trkpt lat="41.7386233" lon="13.6862917"><ele>569.0</ele><time>2026-03-29T08:26:01.202Z</time></trkpt><trkpt lat="41.7385833" lon="13.6863617"><ele>569.0</ele><time>2026-03-29T08:26:02.202Z</time></trkpt><trkpt lat="41.73859" lon="13.6864733"><ele>570.0</ele><time>2026-03-29T08:26:10.202Z</time></trkpt><trkpt lat="41.7386483" lon="13.686405"><ele>571.0</ele><time>2026-03-29T08:26:12.202Z</time></trkpt><trkpt lat="41.7387017" lon="13.68634"><ele>572.0</ele><time>2026-03-29T08:26:14.202Z</time></trkpt><trkpt lat="41.7387667" lon="13.6863467"><ele>573.0</ele><time>2026-03-29T08:26:18.202Z</time></trkpt><trkpt lat="41.7386933" lon="13.6864783"><ele>574.0</ele><time>2026-03-29T08:26:28.355Z</time></trkpt><trkpt lat="41.7387117" lon="13.686395"><ele>575.0</ele><time>2026-03-29T08:26:40.202Z</time></trkpt><trkpt lat="41.7388067" lon="13.686425"><ele>575.0</ele><time>2026-03-29T08:27:12.202Z</time></trkpt><trkpt lat="41.7388683" lon="13.686525"><ele>575.0</ele><time>2026-03-29T08:27:14.202Z</time></trkpt><trkpt lat="41.7389183" lon="13.6866017"><ele>575.0</ele><time>2026-03-29T08:27:15.202Z</time></trkpt><trkpt lat="41.738975" lon="13.6866867"><ele>575.0</ele><time>2026-03-29T08:27:16.202Z</time></trkpt><trkpt lat="41.73904" lon="13.6867883"><ele>575.0</ele><time>2026-03-29T08:27:17.202Z</time></trkpt><trkpt lat="41.73912" lon="13.6868933"><ele>576.25</ele><time>2026-03-29T08:27:18.202Z</time></trkpt><trkpt lat="41.7391967" lon="13.6869983"><ele>577.5</ele><time>2026-03-29T08:27:19.202Z</time></trkpt><trkpt lat="41.7393017" lon="13.6871033"><ele>578.75</ele><time>2026-03-29T08:27:20.202Z</time></trkpt><trkpt lat="41.7394083" lon="13.6871883"><ele>580.0</ele><time>2026-03-29T08:27:21.202Z</time></trkpt><trkpt lat="41.7395283" lon="13.6872583"><ele>581.5</ele><time>2026-03-29T08:27:22.202Z</time></trkpt><trkpt lat="41.7396583" lon="13.6873183"><ele>583.0</ele><time>2026-03-29T08:27:23.202Z</time></trkpt><trkpt lat="41.7397883" lon="13.6873717"><ele>584.5</ele><time>2026-03-29T08:27:24.203Z</time></trkpt><trkpt lat="41.7399233" lon="13.6874117"><ele>586.0</ele><time>2026-03-29T08:27:25.202Z</time></trkpt><trkpt lat="41.7400433" lon="13.6874467"><ele>586.0</ele><time>2026-03-29T08:27:26.202Z</time></trkpt><trkpt lat="41.7401583" lon="13.6874833"><ele>586.0</ele><time>2026-03-29T08:27:27.202Z</time></trkpt><trkpt lat="41.7402617" lon="13.6875183"><ele>586.0</ele><time>2026-03-29T08:27:28.202Z</time></trkpt><trkpt lat="41.7403567" lon="13.6875417"><ele>586.0</ele><time>2026-03-29T08:27:29.202Z</time></trkpt><trkpt lat="41.740435" lon="13.6875833"><ele>586.0</ele><time>2026-03-29T08:27:30.202Z</time></trkpt><trkpt lat="41.7404967" lon="13.6876483"><ele>586.0</ele><time>2026-03-29T08:27:31.202Z</time></trkpt><trkpt lat="41.7405567" lon="13.6877117"><ele>586.0</ele><time>2026-03-29T08:27:32.202Z</time></trkpt><trkpt lat="41.7406083" lon="13.6877833"><ele>586.0</ele><time>2026-03-29T08:27:33.202Z</time></trkpt><trkpt lat="41.7406517" lon="13.6878717"><ele>586.0</ele><time>2026-03-29T08:27:34.202Z</time></trkpt><trkpt lat="41.7407017" lon="13.68798"><ele>586.0</ele><time>2026-03-29T08:27:35.202Z</time></trkpt><trkpt lat="41.7407483" lon="13.6880883"><ele>586.0</ele><time>2026-03-29T08:27:36.202Z</time></trkpt><trkpt lat="41.7407833" lon="13.68817"><ele>586.1666666666667</ele><time>2026-03-29T08:27:37.202Z</time></trkpt><trkpt lat="41.7408217" lon="13.6882667"><ele>586.3333333333334</ele><time>2026-03-29T08:27:39.202Z</time></trkpt><trkpt lat="41.74087" lon="13.6883533"><ele>586.5</ele><time>2026-03-29T08:27:43.202Z</time></trkpt><trkpt lat="41.7409467" lon="13.6884533"><ele>586.6666666666666</ele><time>2026-03-29T08:27:45.202Z</time></trkpt><trkpt lat="41.74101" lon="13.688535"><ele>586.8333333333333</ele><time>2026-03-29T08:27:47.202Z</time></trkpt><trkpt lat="41.7410583" lon="13.6885917"><ele>587.0</ele><time>2026-03-29T08:27:49.202Z</time></trkpt><trkpt lat="41.7411417" lon="13.6886583"><ele>588.3333333333333</ele><time>2026-03-29T08:27:52.202Z</time></trkpt><trkpt lat="41.7411917" lon="13.6887167"><ele>589.6666666666666</ele><time>2026-03-29T08:27:53.202Z</time></trkpt><trkpt lat="41.741245" lon="13.6887767"><ele>591.0</ele><time>2026-03-29T08:27:54.202Z</time></trkpt><trkpt lat="41.7412983" lon="13.6888417"><ele>592.3333333333334</ele><time>2026-03-29T08:27:55.202Z</time></trkpt><trkpt lat="41.7413667" lon="13.6889117"><ele>593.6666666666667</ele><time>2026-03-29T08:27:56.202Z</time></trkpt><trkpt lat="41.741445" lon="13.6889933"><ele>595.0</ele><time>2026-03-29T08:27:57.202Z</time></trkpt><trkpt lat="41.7415267" lon="13.6890817"><ele>595.0</ele><time>2026-03-29T08:27:58.202Z</time></trkpt><trkpt lat="41.7416067" lon="13.68916"><ele>595.0</ele><time>2026-03-29T08:27:59.202Z</time></trkpt><trkpt lat="41.7416767" lon="13.6892383"><ele>595.0</ele><time>2026-03-29T08:28:00.202Z</time></trkpt><trkpt lat="41.74175" lon="13.68931"><ele>595.0</ele><time>2026-03-29T08:28:01.202Z</time></trkpt><trkpt lat="41.7418183" lon="13.6893767"><ele>595.0</ele><time>2026-03-29T08:28:02.202Z</time></trkpt><trkpt lat="41.7418783" lon="13.6894267"><ele>595.0</ele><time>2026-03-29T08:28:03.202Z</time></trkpt><trkpt lat="41.74194" lon="13.6894683"><ele>596.0</ele><time>2026-03-29T08:28:04.202Z</time></trkpt><trkpt lat="41.742015" lon="13.6895267"><ele>597.0</ele><time>2026-03-29T08:28:06.202Z</time></trkpt><trkpt lat="41.7420517" lon="13.6896183"><ele>598.0</ele><time>2026-03-29T08:28:09.203Z</time></trkpt><trkpt lat="41.742" lon="13.68974"><ele>599.0</ele><time>2026-03-29T08:28:11.203Z</time></trkpt><trkpt lat="41.7419517" lon="13.6898283"><ele>600.0</ele><time>2026-03-29T08:28:12.204Z</time></trkpt><trkpt lat="41.74191" lon="13.68992"><ele>601.0</ele><time>2026-03-29T08:28:13.203Z</time></trkpt><trkpt lat="41.7418767" lon="13.69"><ele>602.0</ele><time>2026-03-29T08:28:14.203Z</time></trkpt><trkpt lat="41.741865" lon="13.690095"><ele>603.0</ele><time>2026-03-29T08:28:15.203Z</time></trkpt><trkpt lat="41.7418783" lon="13.6902033"><ele>604.0</ele><time>2026-03-29T08:28:16.203Z</time></trkpt><trkpt lat="41.7419033" lon="13.69032"><ele>605.0</ele><time>2026-03-29T08:28:17.203Z</time></trkpt><trkpt lat="41.7419333" lon="13.6904367"><ele>606.0</ele><time>2026-03-29T08:28:18.203Z</time></trkpt><trkpt lat="41.74196" lon="13.69056"><ele>607.0</ele><time>2026-03-29T08:28:19.203Z</time></trkpt><trkpt lat="41.74199" lon="13.6906733"><ele>607.5</ele><time>2026-03-29T08:28:20.203Z</time></trkpt><trkpt lat="41.7420167" lon="13.69075"><ele>608.0</ele><time>2026-03-29T08:28:21.203Z</time></trkpt><trkpt lat="41.7420367" lon="13.6908333"><ele>608.5</ele><time>2026-03-29T08:28:23.203Z</time></trkpt><trkpt lat="41.7421117" lon="13.6909667"><ele>609.0</ele><time>2026-03-29T08:28:35.203Z</time></trkpt><trkpt lat="41.742165" lon="13.6910733"><ele>609.5</ele><time>2026-03-29T08:28:37.203Z</time></trkpt><trkpt lat="41.7422133" lon="13.691145"><ele>610.0</ele><time>2026-03-29T08:28:38.203Z</time></trkpt><trkpt lat="41.74228" lon="13.6912267"><ele>614.6</ele><time>2026-03-29T08:28:39.203Z</time></trkpt><trkpt lat="41.742365" lon="13.6913167"><ele>619.2</ele><time>2026-03-29T08:28:40.203Z</time></trkpt><trkpt lat="41.74245" lon="13.691405"><ele>623.8</ele><time>2026-03-29T08:28:41.203Z</time></trkpt><trkpt lat="41.7425217" lon="13.6914767"><ele>628.4</ele><time>2026-03-29T08:28:42.203Z</time></trkpt><trkpt lat="41.7426017" lon="13.69155"><ele>633.0</ele><time>2026-03-29T08:28:43.203Z</time></trkpt><trkpt lat="41.742685" lon="13.69164"><ele>631.8</ele><time>2026-03-29T08:28:44.203Z</time></trkpt><trkpt lat="41.7427733" lon="13.6917267"><ele>630.5999999999999</ele><time>2026-03-29T08:28:45.203Z</time></trkpt><trkpt lat="41.7428633" lon="13.6918267"><ele>629.4000000000001</ele><time>2026-03-29T08:28:46.203Z</time></trkpt><trkpt lat="41.7429467" lon="13.6919217"><ele>628.2</ele><time>2026-03-29T08:28:47.203Z</time></trkpt><trkpt lat="41.74301" lon="13.6920083"><ele>627.0</ele><time>2026-03-29T08:28:48.203Z</time></trkpt><trkpt lat="41.7430717" lon="13.6920933"><ele>627.0</ele><time>2026-03-29T08:28:49.203Z</time></trkpt><trkpt lat="41.7431267" lon="13.6921717"><ele>627.0</ele><time>2026-03-29T08:28:50.203Z</time></trkpt><trkpt lat="41.7431867" lon="13.6922633"><ele>627.0</ele><time>2026-03-29T08:28:51.203Z</time></trkpt><trkpt lat="41.743245" lon="13.6923617"><ele>627.0</ele><time>2026-03-29T08:28:52.203Z</time></trkpt><trkpt lat="41.7433167" lon="13.6924667"><ele>627.0</ele><time>2026-03-29T08:28:53.203Z</time></trkpt><trkpt lat="41.7434" lon="13.692575"><ele>627.0</ele><time>2026-03-29T08:28:54.203Z</time></trkpt><trkpt lat="41.7434567" lon="13.69268"><ele>627.0</ele><time>2026-03-29T08:28:55.203Z</time></trkpt><trkpt lat="41.743495" lon="13.692785"><ele>627.0</ele><time>2026-03-29T08:28:56.203Z</time></trkpt><trkpt lat="41.7435283" lon="13.692885"><ele>627.0</ele><time>2026-03-29T08:28:57.203Z</time></trkpt><trkpt lat="41.743565" lon="13.692985"><ele>627.0</ele><time>2026-03-29T08:28:58.203Z</time></trkpt><trkpt lat="41.7436" lon="13.6930917"><ele>627.0</ele><time>2026-03-29T08:28:59.203Z</time></trkpt><trkpt lat="41.743635" lon="13.6932017"><ele>629.2</ele><time>2026-03-29T08:29:00.203Z</time></trkpt><trkpt lat="41.7436583" lon="13.6933167"><ele>631.4000000000001</ele><time>2026-03-29T08:29:01.203Z</time></trkpt><trkpt lat="41.743675" lon="13.6934583"><ele>633.5999999999999</ele><time>2026-03-29T08:29:02.203Z</time></trkpt><trkpt lat="41.7436967" lon="13.6936033"><ele>635.8</ele><time>2026-03-29T08:29:03.203Z</time></trkpt><trkpt lat="41.743715" lon="13.6937533"><ele>638.0</ele><time>2026-03-29T08:29:04.203Z</time></trkpt><trkpt lat="41.7437333" lon="13.6939"><ele>638.5999999999999</ele><time>2026-03-29T08:29:05.203Z</time></trkpt><trkpt lat="41.7437533" lon="13.69405"><ele>639.1999999999999</ele><time>2026-03-29T08:29:06.203Z</time></trkpt><trkpt lat="41.7437733" lon="13.6941833"><ele>639.8</ele><time>2026-03-29T08:29:07.203Z</time></trkpt><trkpt lat="41.743795" lon="13.6943083"><ele>640.4</ele><time>2026-03-29T08:29:08.203Z</time></trkpt><trkpt lat="41.7438083" lon="13.6944167"><ele>641.0</ele><time>2026-03-29T08:29:09.203Z</time></trkpt><trkpt lat="41.743815" lon="13.6945167"><ele>642.1999999999999</ele><time>2026-03-29T08:29:10.204Z</time></trkpt><trkpt lat="41.7438317" lon="13.6946733"><ele>643.4</ele><time>2026-03-29T08:29:12.203Z</time></trkpt><trkpt lat="41.743905" lon="13.6948067"><ele>644.6</ele><time>2026-03-29T08:29:14.203Z</time></trkpt><trkpt lat="41.7439583" lon="13.6948767"><ele>645.8</ele><time>2026-03-29T08:29:15.204Z</time></trkpt><trkpt lat="41.7440267" lon="13.69495"><ele>647.0</ele><time>2026-03-29T08:29:16.203Z</time></trkpt><trkpt lat="41.744095" lon="13.695015"><ele>647.0</ele><time>2026-03-29T08:29:17.203Z</time></trkpt><trkpt lat="41.7441583" lon="13.6950767"><ele>647.0</ele><time>2026-03-29T08:29:18.203Z</time></trkpt><trkpt lat="41.7442217" lon="13.6951383"><ele>647.0</ele><time>2026-03-29T08:29:19.203Z</time></trkpt><trkpt lat="41.744285" lon="13.6952267"><ele>647.0</ele><time>2026-03-29T08:29:20.203Z</time></trkpt><trkpt lat="41.74434" lon="13.6952967"><ele>647.0</ele><time>2026-03-29T08:29:21.203Z</time></trkpt><trkpt lat="41.74439" lon="13.695375"><ele>647.0</ele><time>2026-03-29T08:29:22.203Z</time></trkpt><trkpt lat="41.7444417" lon="13.695445"><ele>651.0</ele><time>2026-03-29T08:29:23.203Z</time></trkpt><trkpt lat="41.7444933" lon="13.69551"><ele>655.0</ele><time>2026-03-29T08:29:24.203Z</time></trkpt><trkpt lat="41.7445467" lon="13.6955833"><ele>659.0</ele><time>2026-03-29T08:29:25.203Z</time></trkpt><trkpt lat="41.7446" lon="13.6956633"><ele>663.0</ele><time>2026-03-29T08:29:26.203Z</time></trkpt><trkpt lat="41.744655" lon="13.6957433"><ele>667.0</ele><time>2026-03-29T08:29:27.204Z</time></trkpt><trkpt lat="41.7447117" lon="13.695815"><ele>671.0</ele><time>2026-03-29T08:29:28.203Z</time></trkpt><trkpt lat="41.744775" lon="13.695885"><ele>671.0</ele><time>2026-03-29T08:29:29.203Z</time></trkpt><trkpt lat="41.7448383" lon="13.6959633"><ele>671.0</ele><time>2026-03-29T08:29:30.204Z</time></trkpt><trkpt lat="41.7448983" lon="13.696055"><ele>671.0</ele><time>2026-03-29T08:29:31.203Z</time></trkpt><trkpt lat="41.7449567" lon="13.6961433"><ele>671.0</ele><time>2026-03-29T08:29:32.203Z</time></trkpt><trkpt lat="41.7450167" lon="13.6962367"><ele>671.0</ele><time>2026-03-29T08:29:33.203Z</time></trkpt><trkpt lat="41.7450833" lon="13.6963283"><ele>670.0</ele><time>2026-03-29T08:29:34.203Z</time></trkpt><trkpt lat="41.7451567" lon="13.696415"><ele>669.0</ele><time>2026-03-29T08:29:35.203Z</time></trkpt><trkpt lat="41.7452283" lon="13.6965033"><ele>668.0</ele><time>2026-03-29T08:29:36.203Z</time></trkpt><trkpt lat="41.7453033" lon="13.6965833"><ele>667.0</ele><time>2026-03-29T08:29:37.203Z</time></trkpt><trkpt lat="41.7453767" lon="13.69666"><ele>666.0</ele><time>2026-03-29T08:29:38.203Z</time></trkpt><trkpt lat="41.7454417" lon="13.6967283"><ele>668.1666666666666</ele><time>2026-03-29T08:29:39.204Z</time></trkpt><trkpt lat="41.7454967" lon="13.6967867"><ele>670.3333333333334</ele><time>2026-03-29T08:29:40.203Z</time></trkpt><trkpt lat="41.7455533" lon="13.69684"><ele>672.5</ele><time>2026-03-29T08:29:41.203Z</time></trkpt><trkpt lat="41.7456" lon="13.6969117"><ele>674.6666666666667</ele><time>2026-03-29T08:29:42.203Z</time></trkpt><trkpt lat="41.745665" lon="13.697"><ele>676.8333333333334</ele><time>2026-03-29T08:29:43.203Z</time></trkpt><trkpt lat="41.74573" lon="13.6970783"><ele>679.0</ele><time>2026-03-29T08:29:44.203Z</time></trkpt><trkpt lat="41.7457917" lon="13.69715"><ele>679.0</ele><time>2026-03-29T08:29:45.203Z</time></trkpt><trkpt lat="41.7458417" lon="13.6972217"><ele>679.0</ele><time>2026-03-29T08:29:46.203Z</time></trkpt><trkpt lat="41.7458917" lon="13.6973033"><ele>679.0</ele><time>2026-03-29T08:29:47.203Z</time></trkpt><trkpt lat="41.745945" lon="13.697385"><ele>679.0</ele><time>2026-03-29T08:29:48.203Z</time></trkpt><trkpt lat="41.745995" lon="13.697475"><ele>679.0</ele><time>2026-03-29T08:29:49.203Z</time></trkpt><trkpt lat="41.7460417" lon="13.69757"><ele>679.0</ele><time>2026-03-29T08:29:50.203Z</time></trkpt><trkpt lat="41.7460817" lon="13.6976717"><ele>680.6666666666667</ele><time>2026-03-29T08:29:51.203Z</time></trkpt><trkpt lat="41.7461217" lon="13.6977617"><ele>682.3333333333334</ele><time>2026-03-29T08:29:52.203Z</time></trkpt><trkpt lat="41.7461717" lon="13.6978533"><ele>684.0</ele><time>2026-03-29T08:29:53.203Z</time></trkpt><trkpt lat="41.7462133" lon="13.6979467"><ele>685.6666666666666</ele><time>2026-03-29T08:29:54.203Z</time></trkpt><trkpt lat="41.7462617" lon="13.69804"><ele>687.3333333333333</ele><time>2026-03-29T08:29:55.203Z</time></trkpt><trkpt lat="41.746315" lon="13.69812"><ele>689.0</ele><time>2026-03-29T08:29:56.203Z</time></trkpt><trkpt lat="41.7463617" lon="13.6982017"><ele>689.0</ele><time>2026-03-29T08:29:57.203Z</time></trkpt><trkpt lat="41.746405" lon="13.698275"><ele>689.0</ele><time>2026-03-29T08:29:58.203Z</time></trkpt><trkpt lat="41.7464367" lon="13.69836"><ele>689.0</ele><time>2026-03-29T08:29:59.203Z</time></trkpt><trkpt lat="41.74646" lon="13.6984567"><ele>689.0</ele><time>2026-03-29T08:30:00.203Z</time></trkpt><trkpt lat="41.7464767" lon="13.6985683"><ele>689.0</ele><time>2026-03-29T08:30:01.204Z</time></trkpt><trkpt lat="41.7464867" lon="13.698685"><ele>689.0</ele><time>2026-03-29T08:30:02.203Z</time></trkpt><trkpt lat="41.7465033" lon="13.6988083"><ele>688.4000000000001</ele><time>2026-03-29T08:30:03.204Z</time></trkpt><trkpt lat="41.74652" lon="13.69894"><ele>687.8</ele><time>2026-03-29T08:30:04.203Z</time></trkpt><trkpt lat="41.7465367" lon="13.6990717"><ele>687.2</ele><time>2026-03-29T08:30:05.204Z</time></trkpt><trkpt lat="41.7465517" lon="13.6991867"><ele>686.5999999999999</ele><time>2026-03-29T08:30:06.203Z</time></trkpt><trkpt lat="41.7465617" lon="13.6992983"><ele>686.0</ele><time>2026-03-29T08:30:07.203Z</time></trkpt><trkpt lat="41.746575" lon="13.6994083"><ele>686.8333333333333</ele><time>2026-03-29T08:30:08.203Z</time></trkpt><trkpt lat="41.7465867" lon="13.6995117"><ele>687.6666666666666</ele><time>2026-03-29T08:30:09.204Z</time></trkpt><trkpt lat="41.7466133" lon="13.69962"><ele>688.5</ele><time>2026-03-29T08:30:10.203Z</time></trkpt><trkpt lat="41.7466517" lon="13.6997167"><ele>689.3333333333334</ele><time>2026-03-29T08:30:11.203Z</time></trkpt><trkpt lat="41.7466933" lon="13.6998317"><ele>690.1666666666667</ele><time>2026-03-29T08:30:12.203Z</time></trkpt><trkpt lat="41.7467283" lon="13.6999367"><ele>691.0</ele><time>2026-03-29T08:30:13.203Z</time></trkpt><trkpt lat="41.7467617" lon="13.700055"><ele>691.0</ele><time>2026-03-29T08:30:14.203Z</time></trkpt><trkpt lat="41.746785" lon="13.700165"><ele>691.0</ele><time>2026-03-29T08:30:15.203Z</time></trkpt><trkpt lat="41.7468033" lon="13.7002633"><ele>691.0</ele><time>2026-03-29T08:30:16.203Z</time></trkpt><trkpt lat="41.74681" lon="13.7003517"><ele>691.0</ele><time>2026-03-29T08:30:17.203Z</time></trkpt><trkpt lat="41.7468033" lon="13.7004417"><ele>691.0</ele><time>2026-03-29T08:30:18.203Z</time></trkpt><trkpt lat="41.7467883" lon="13.7005383"><ele>691.0</ele><time>2026-03-29T08:30:19.203Z</time></trkpt><trkpt lat="41.74675" lon="13.7006417"><ele>691.8</ele><time>2026-03-29T08:30:20.203Z</time></trkpt><trkpt lat="41.746705" lon="13.70076"><ele>692.5999999999999</ele><time>2026-03-29T08:30:21.203Z</time></trkpt><trkpt lat="41.7466667" lon="13.7008783"><ele>693.4</ele><time>2026-03-29T08:30:22.203Z</time></trkpt><trkpt lat="41.7466133" lon="13.70101"><ele>694.2</ele><time>2026-03-29T08:30:23.203Z</time></trkpt><trkpt lat="41.7465617" lon="13.7011517"><ele>695.0</ele><time>2026-03-29T08:30:24.203Z</time></trkpt><trkpt lat="41.7465233" lon="13.7012917"><ele>697.0</ele><time>2026-03-29T08:30:25.204Z</time></trkpt><trkpt lat="41.746505" lon="13.7014"><ele>699.0</ele><time>2026-03-29T08:30:26.203Z</time></trkpt><trkpt lat="41.746495" lon="13.701505"><ele>701.0</ele><time>2026-03-29T08:30:27.203Z</time></trkpt><trkpt lat="41.74647" lon="13.7016017"><ele>703.0</ele><time>2026-03-29T08:30:28.203Z</time></trkpt><trkpt lat="41.74644" lon="13.70169"><ele>705.0</ele><time>2026-03-29T08:30:29.203Z</time></trkpt><trkpt lat="41.7463967" lon="13.7017783"><ele>707.0</ele><time>2026-03-29T08:30:30.203Z</time></trkpt><trkpt lat="41.746345" lon="13.7018817"><ele>710.2</ele><time>2026-03-29T08:30:31.203Z</time></trkpt><trkpt lat="41.7462967" lon="13.7019867"><ele>713.4000000000001</ele><time>2026-03-29T08:30:32.203Z</time></trkpt><trkpt lat="41.74626" lon="13.7021033"><ele>716.5999999999999</ele><time>2026-03-29T08:30:33.203Z</time></trkpt><trkpt lat="41.746225" lon="13.7022033"><ele>719.8</ele><time>2026-03-29T08:30:34.203Z</time></trkpt><trkpt lat="41.7461533" lon="13.70234"><ele>723.0</ele><time>2026-03-29T08:30:36.203Z</time></trkpt><trkpt lat="41.746105" lon="13.702435"><ele>723.0</ele><time>2026-03-29T08:30:38.203Z</time></trkpt><trkpt lat="41.746065" lon="13.7025067"><ele>723.0</ele><time>2026-03-29T08:30:40.203Z</time></trkpt><trkpt lat="41.7459933" lon="13.70255"><ele>723.0</ele><time>2026-03-29T08:30:42.203Z</time></trkpt><trkpt lat="41.745915" lon="13.702645"><ele>723.0</ele><time>2026-03-29T08:30:44.203Z</time></trkpt><trkpt lat="41.7458733" lon="13.7027167"><ele>723.0</ele><time>2026-03-29T08:30:45.203Z</time></trkpt><trkpt lat="41.745835" lon="13.7028083"><ele>723.0</ele><time>2026-03-29T08:30:46.203Z</time></trkpt><trkpt lat="41.745785" lon="13.702925"><ele>723.1666666666666</ele><time>2026-03-29T08:30:47.203Z</time></trkpt><trkpt lat="41.7457417" lon="13.7030633"><ele>723.3333333333334</ele><time>2026-03-29T08:30:48.204Z</time></trkpt><trkpt lat="41.7457033" lon="13.703175"><ele>723.5</ele><time>2026-03-29T08:30:49.203Z</time></trkpt><trkpt lat="41.7456817" lon="13.7032633"><ele>723.6666666666667</ele><time>2026-03-29T08:30:50.203Z</time></trkpt><trkpt lat="41.7456617" lon="13.703375"><ele>723.8333333333334</ele><time>2026-03-29T08:30:51.203Z</time></trkpt><trkpt lat="41.7456483" lon="13.703485"><ele>724.0</ele><time>2026-03-29T08:30:52.203Z</time></trkpt><trkpt lat="41.7456267" lon="13.7036083"><ele>724.0</ele><time>2026-03-29T08:30:53.203Z</time></trkpt><trkpt lat="41.745605" lon="13.70372"><ele>724.0</ele><time>2026-03-29T08:30:54.203Z</time></trkpt><trkpt lat="41.7455817" lon="13.7038217"><ele>724.0</ele><time>2026-03-29T08:30:55.203Z</time></trkpt><trkpt lat="41.7455533" lon="13.7039233"><ele>724.0</ele><time>2026-03-29T08:30:56.203Z</time></trkpt><trkpt lat="41.74552" lon="13.7040217"><ele>724.0</ele><time>2026-03-29T08:30:57.204Z</time></trkpt><trkpt lat="41.7454933" lon="13.704115"><ele>724.0</ele><time>2026-03-29T08:30:58.203Z</time></trkpt><trkpt lat="41.7454283" lon="13.7042533"><ele>724.0</ele><time>2026-03-29T08:31:00.203Z</time></trkpt><trkpt lat="41.7453583" lon="13.7043517"><ele>724.0</ele><time>2026-03-29T08:31:02.203Z</time></trkpt><trkpt lat="41.7452217" lon="13.70457"><ele>724.0</ele><time>2026-03-29T08:31:26.634Z</time></trkpt><trkpt lat="41.74519" lon="13.7046833"><ele>724.0</ele><time>2026-03-29T08:31:29.201Z</time></trkpt><trkpt lat="41.7451517" lon="13.704615"><ele>725.0</ele><time>2026-03-29T08:31:40.201Z</time></trkpt><trkpt lat="41.7451867" lon="13.7047283"><ele>726.0</ele><time>2026-03-29T08:33:35.201Z</time></trkpt><trkpt lat="41.745165" lon="13.7048567"><ele>727.0</ele><time>2026-03-29T08:33:38.201Z</time></trkpt><trkpt lat="41.7451533" lon="13.7049783"><ele>728.0</ele><time>2026-03-29T08:33:40.201Z</time></trkpt><trkpt lat="41.7451417" lon="13.7051467"><ele>729.0</ele><time>2026-03-29T08:33:42.202Z</time></trkpt><trkpt lat="41.7451283" lon="13.7052617"><ele>732.0</ele><time>2026-03-29T08:33:43.201Z</time></trkpt><trkpt lat="41.7451133" lon="13.7053833"><ele>735.0</ele><time>2026-03-29T08:33:44.201Z</time></trkpt><trkpt lat="41.7450967" lon="13.7054967"><ele>738.0</ele><time>2026-03-29T08:33:45.201Z</time></trkpt><trkpt lat="41.74509" lon="13.7056217"><ele>741.0</ele><time>2026-03-29T08:33:46.202Z</time></trkpt><trkpt lat="41.7450867" lon="13.705745"><ele>744.0</ele><time>2026-03-29T08:33:47.201Z</time></trkpt><trkpt lat="41.7450783" lon="13.705845"><ele>747.0</ele><time>2026-03-29T08:33:48.201Z</time></trkpt><trkpt lat="41.7450733" lon="13.7059533"><ele>747.0</ele><time>2026-03-29T08:33:49.201Z</time></trkpt><trkpt lat="41.7450733" lon="13.7060617"><ele>747.0</ele><time>2026-03-29T08:33:50.201Z</time></trkpt><trkpt lat="41.7450633" lon="13.7061767"><ele>747.0</ele><time>2026-03-29T08:33:51.201Z</time></trkpt><trkpt lat="41.74506" lon="13.7062967"><ele>747.0</ele><time>2026-03-29T08:33:52.201Z</time></trkpt><trkpt lat="41.7450517" lon="13.7064033"><ele>747.0</ele><time>2026-03-29T08:33:53.201Z</time></trkpt><trkpt lat="41.74505" lon="13.7065117"><ele>747.0</ele><time>2026-03-29T08:33:54.201Z</time></trkpt><trkpt lat="41.7450483" lon="13.70661"><ele>749.8333333333334</ele><time>2026-03-29T08:33:55.201Z</time></trkpt><trkpt lat="41.745055" lon="13.70672"><ele>752.6666666666666</ele><time>2026-03-29T08:33:56.201Z</time></trkpt><trkpt lat="41.7450583" lon="13.7068317"><ele>755.5</ele><time>2026-03-29T08:33:57.201Z</time></trkpt><trkpt lat="41.7450567" lon="13.7069333"><ele>758.3333333333333</ele><time>2026-03-29T08:33:58.201Z</time></trkpt><trkpt lat="41.7450533" lon="13.7070367"><ele>761.1666666666666</ele><time>2026-03-29T08:33:59.201Z</time></trkpt><trkpt lat="41.74504" lon="13.7071317"><ele>764.0</ele><time>2026-03-29T08:34:00.201Z</time></trkpt><trkpt lat="41.7450383" lon="13.707225"><ele>766.1428571428572</ele><time>2026-03-29T08:34:01.201Z</time></trkpt><trkpt lat="41.7450283" lon="13.707325"><ele>768.2857142857142</ele><time>2026-03-29T08:34:02.201Z</time></trkpt><trkpt lat="41.7450083" lon="13.7074117"><ele>770.4285714285714</ele><time>2026-03-29T08:34:03.201Z</time></trkpt><trkpt lat="41.7449833" lon="13.7075"><ele>772.5714285714287</ele><time>2026-03-29T08:34:04.201Z</time></trkpt><trkpt lat="41.7449717" lon="13.7075917"><ele>774.7142857142858</ele><time>2026-03-29T08:34:05.201Z</time></trkpt><trkpt lat="41.7449633" lon="13.70769"><ele>776.8571428571429</ele><time>2026-03-29T08:34:06.201Z</time></trkpt><trkpt lat="41.7449417" lon="13.7077967"><ele>779.0</ele><time>2026-03-29T08:34:07.201Z</time></trkpt><trkpt lat="41.7449317" lon="13.7078833"><ele>781.8333333333334</ele><time>2026-03-29T08:34:08.201Z</time></trkpt><trkpt lat="41.74491" lon="13.7079633"><ele>784.6666666666667</ele><time>2026-03-29T08:34:09.201Z</time></trkpt><trkpt lat="41.744895" lon="13.7080467"><ele>787.5</ele><time>2026-03-29T08:34:10.201Z</time></trkpt><trkpt lat="41.7448783" lon="13.7081467"><ele>790.3333333333333</ele><time>2026-03-29T08:34:11.201Z</time></trkpt><trkpt lat="41.7448617" lon="13.7082633"><ele>793.1666666666666</ele><time>2026-03-29T08:34:12.201Z</time></trkpt><trkpt lat="41.7448517" lon="13.7083833"><ele>796.0</ele><time>2026-03-29T08:34:13.201Z</time></trkpt><trkpt lat="41.7448367" lon="13.708495"><ele>797.4999999999999</ele><time>2026-03-29T08:34:14.201Z</time></trkpt><trkpt lat="41.7448267" lon="13.708605"><ele>799.0</ele><time>2026-03-29T08:34:15.201Z</time></trkpt><trkpt lat="41.744815" lon="13.7087017"><ele>800.5</ele><time>2026-03-29T08:34:16.201Z</time></trkpt><trkpt lat="41.7447967" lon="13.7088"><ele>802.0</ele><time>2026-03-29T08:34:17.201Z</time></trkpt><trkpt lat="41.7447783" lon="13.7088967"><ele>803.4999999999999</ele><time>2026-03-29T08:34:18.201Z</time></trkpt><trkpt lat="41.7447717" lon="13.708995"><ele>805.0</ele><time>2026-03-29T08:34:19.201Z</time></trkpt><trkpt lat="41.7447867" lon="13.7091033"><ele>805.0</ele><time>2026-03-29T08:34:20.201Z</time></trkpt><trkpt lat="41.7448" lon="13.70922"><ele>805.0</ele><time>2026-03-29T08:34:21.201Z</time></trkpt><trkpt lat="41.744815" lon="13.709315"><ele>805.0</ele><time>2026-03-29T08:34:22.201Z</time></trkpt><trkpt lat="41.7448667" lon="13.7094583"><ele>805.0</ele><time>2026-03-29T08:34:24.201Z</time></trkpt><trkpt lat="41.74494" lon="13.7095467"><ele>805.0</ele><time>2026-03-29T08:34:26.201Z</time></trkpt><trkpt lat="41.7450383" lon="13.70958"><ele>805.4999999999999</ele><time>2026-03-29T08:34:28.201Z</time></trkpt><trkpt lat="41.745105" lon="13.709595"><ele>806.0</ele><time>2026-03-29T08:34:29.201Z</time></trkpt><trkpt lat="41.74518" lon="13.70961"><ele>806.5</ele><time>2026-03-29T08:34:30.201Z</time></trkpt><trkpt lat="41.7452583" lon="13.70963"><ele>807.0</ele><time>2026-03-29T08:34:31.201Z</time></trkpt><trkpt lat="41.7453317" lon="13.7096533"><ele>807.4999999999999</ele><time>2026-03-29T08:34:32.201Z</time></trkpt><trkpt lat="41.7454283" lon="13.70964"><ele>808.0</ele><time>2026-03-29T08:34:34.201Z</time></trkpt><trkpt lat="41.7455333" lon="13.7096183"><ele>812.8</ele><time>2026-03-29T08:34:36.201Z</time></trkpt><trkpt lat="41.7455967" lon="13.70963"><ele>817.5999999999999</ele><time>2026-03-29T08:34:37.201Z</time></trkpt><trkpt lat="41.7456883" lon="13.7096367"><ele>822.4000000000001</ele><time>2026-03-29T08:34:39.201Z</time></trkpt><trkpt lat="41.7458433" lon="13.70966"><ele>827.2</ele><time>2026-03-29T08:35:02.201Z</time></trkpt><trkpt lat="41.7459183" lon="13.709615"><ele>832.0</ele><time>2026-03-29T08:35:04.201Z</time></trkpt><trkpt lat="41.746025" lon="13.709565"><ele>833.6</ele><time>2026-03-29T08:35:06.201Z</time></trkpt><trkpt lat="41.74613" lon="13.70949"><ele>835.2</ele><time>2026-03-29T08:35:08.201Z</time></trkpt><trkpt lat="41.7462333" lon="13.7094"><ele>836.8</ele><time>2026-03-29T08:35:10.201Z</time></trkpt><trkpt lat="41.7462867" lon="13.7093467"><ele>838.4</ele><time>2026-03-29T08:35:11.201Z</time></trkpt><trkpt lat="41.7463667" lon="13.7092233"><ele>840.0</ele><time>2026-03-29T08:35:13.201Z</time></trkpt><trkpt lat="41.7464183" lon="13.7091217"><ele>840.0</ele><time>2026-03-29T08:35:15.201Z</time></trkpt><trkpt lat="41.7464617" lon="13.70905"><ele>840.0</ele><time>2026-03-29T08:35:17.201Z</time></trkpt><trkpt lat="41.7465183" lon="13.708935"><ele>840.0</ele><time>2026-03-29T08:36:31.201Z</time></trkpt><trkpt lat="41.7464667" lon="13.7090367"><ele>840.0</ele><time>2026-03-29T08:36:39.201Z</time></trkpt><trkpt lat="41.7464167" lon="13.7091167"><ele>840.0</ele><time>2026-03-29T08:36:41.201Z</time></trkpt><trkpt lat="41.7463717" lon="13.7091917"><ele>840.0</ele><time>2026-03-29T08:36:43.201Z</time></trkpt><trkpt lat="41.74632" lon="13.7092717"><ele>840.0</ele><time>2026-03-29T08:36:45.201Z</time></trkpt><trkpt lat="41.7462517" lon="13.70937"><ele>840.0</ele><time>2026-03-29T08:36:47.201Z</time></trkpt><trkpt lat="41.74618" lon="13.7094483"><ele>840.0</ele><time>2026-03-29T08:36:49.201Z</time></trkpt><trkpt lat="41.7460867" lon="13.7095083"><ele>840.0</ele><time>2026-03-29T08:36:51.201Z</time></trkpt><trkpt lat="41.7459967" lon="13.7095567"><ele>840.0</ele><time>2026-03-29T08:36:53.201Z</time></trkpt><trkpt lat="41.7459333" lon="13.7095967"><ele>838.6666666666666</ele><time>2026-03-29T08:36:55.201Z</time></trkpt><trkpt lat="41.745875" lon="13.7097333"><ele>837.3333333333333</ele><time>2026-03-29T08:37:10.202Z</time></trkpt><trkpt lat="41.7458967" lon="13.70986"><ele>836.0</ele><time>2026-03-29T08:37:13.202Z</time></trkpt><trkpt lat="41.7459367" lon="13.70995"><ele>834.6666666666666</ele><time>2026-03-29T08:37:15.202Z</time></trkpt><trkpt lat="41.7459967" lon="13.71"><ele>833.3333333333333</ele><time>2026-03-29T08:37:17.202Z</time></trkpt><trkpt lat="41.746065" lon="13.7100583"><ele>832.0</ele><time>2026-03-29T08:37:19.202Z</time></trkpt><trkpt lat="41.7461367" lon="13.7101283"><ele>835.8333333333333</ele><time>2026-03-29T08:37:21.202Z</time></trkpt><trkpt lat="41.74622" lon="13.7101767"><ele>839.6666666666666</ele><time>2026-03-29T08:37:23.202Z</time></trkpt><trkpt lat="41.7462883" lon="13.7102167"><ele>843.5</ele><time>2026-03-29T08:37:25.202Z</time></trkpt><trkpt lat="41.7463383" lon="13.7102683"><ele>847.3333333333333</ele><time>2026-03-29T08:37:27.202Z</time></trkpt><trkpt lat="41.7464117" lon="13.71032"><ele>851.1666666666666</ele><time>2026-03-29T08:37:30.202Z</time></trkpt><trkpt lat="41.7464933" lon="13.7103767"><ele>855.0</ele><time>2026-03-29T08:37:33.202Z</time></trkpt><trkpt lat="41.7465483" lon="13.7104217"><ele>857.0</ele><time>2026-03-29T08:37:35.202Z</time></trkpt><trkpt lat="41.746615" lon="13.710455"><ele>859.0</ele><time>2026-03-29T08:37:38.202Z</time></trkpt><trkpt lat="41.7467133" lon="13.71055"><ele>861.0</ele><time>2026-03-29T08:39:21.202Z</time></trkpt><trkpt lat="41.7467967" lon="13.710585"><ele>863.0</ele><time>2026-03-29T08:42:12.202Z</time></trkpt><trkpt lat="41.7469067" lon="13.710655"><ele>865.0</ele><time>2026-03-29T08:45:13.202Z</time></trkpt><trkpt lat="41.7469617" lon="13.7106983"><ele>867.4999999999999</ele><time>2026-03-29T08:45:16.202Z</time></trkpt><trkpt lat="41.7470433" lon="13.7107433"><ele>870.0</ele><time>2026-03-29T08:45:21.202Z</time></trkpt><trkpt lat="41.747115" lon="13.7108033"><ele>872.5</ele><time>2026-03-29T08:45:24.202Z</time></trkpt><trkpt lat="41.7471817" lon="13.7108567"><ele>875.0</ele><time>2026-03-29T08:45:27.202Z</time></trkpt><trkpt lat="41.747245" lon="13.7109117"><ele>877.4999999999999</ele><time>2026-03-29T08:45:29.202Z</time></trkpt><trkpt lat="41.7473083" lon="13.7109583"><ele>880.0</ele><time>2026-03-29T08:45:32.202Z</time></trkpt><trkpt lat="41.747395" lon="13.7109417"><ele>880.0</ele><time>2026-03-29T08:47:26.116Z</time></trkpt><trkpt lat="41.74725" lon="13.7112217"><ele>880.0</ele><time>2026-03-29T08:47:27.29Z</time></trkpt><trkpt lat="41.7473133" lon="13.7111683"><ele>880.0</ele><time>2026-03-29T08:47:28.202Z</time></trkpt><trkpt lat="41.747345" lon="13.7110717"><ele>880.0</ele><time>2026-03-29T08:47:30.702Z</time></trkpt><trkpt lat="41.7473533" lon="13.7111117"><ele>880.0</ele><time>2026-03-29T08:56:27.201Z</time></trkpt><trkpt lat="41.74735" lon="13.7111967"><ele>881.6666666666666</ele><time>2026-03-29T08:56:29.201Z</time></trkpt><trkpt lat="41.7473183" lon="13.7113117"><ele>883.3333333333333</ele><time>2026-03-29T08:56:32.201Z</time></trkpt><trkpt lat="41.7472717" lon="13.7114133"><ele>885.0</ele><time>2026-03-29T08:56:34.202Z</time></trkpt><trkpt lat="41.74723" lon="13.7115117"><ele>886.6666666666667</ele><time>2026-03-29T08:56:36.201Z</time></trkpt><trkpt lat="41.74717" lon="13.7116083"><ele>888.3333333333334</ele><time>2026-03-29T08:56:39.201Z</time></trkpt><trkpt lat="41.7471467" lon="13.71172"><ele>890.0</ele><time>2026-03-29T08:56:42.201Z</time></trkpt><trkpt lat="41.7471617" lon="13.7118033"><ele>890.0000000000001</ele><time>2026-03-29T08:56:44.201Z</time></trkpt><trkpt lat="41.747195" lon="13.7118883"><ele>890.0</ele><time>2026-03-29T08:56:46.201Z</time></trkpt><trkpt lat="41.7472283" lon="13.711975"><ele>890.0</ele><time>2026-03-29T08:56:48.201Z</time></trkpt><trkpt lat="41.747255" lon="13.7120683"><ele>890.0</ele><time>2026-03-29T08:56:50.201Z</time></trkpt><trkpt lat="41.7472617" lon="13.71221"><ele>890.0000000000001</ele><time>2026-03-29T08:56:52.201Z</time></trkpt><trkpt lat="41.7472633" lon="13.7123083"><ele>890.0</ele><time>2026-03-29T08:56:53.201Z</time></trkpt><trkpt lat="41.747255" lon="13.71242"><ele>891.3333333333334</ele><time>2026-03-29T08:56:54.201Z</time></trkpt><trkpt lat="41.7472517" lon="13.71252"><ele>892.6666666666667</ele><time>2026-03-29T08:56:55.201Z</time></trkpt><trkpt lat="41.7472483" lon="13.7126083"><ele>894.0</ele><time>2026-03-29T08:56:56.201Z</time></trkpt><trkpt lat="41.7472417" lon="13.7127017"><ele>895.3333333333333</ele><time>2026-03-29T08:56:57.201Z</time></trkpt><trkpt lat="41.747235" lon="13.7128083"><ele>896.6666666666666</ele><time>2026-03-29T08:56:58.201Z</time></trkpt><trkpt lat="41.7472233" lon="13.712925"><ele>898.0</ele><time>2026-03-29T08:56:59.201Z</time></trkpt><trkpt lat="41.7472117" lon="13.71305"><ele>899.4</ele><time>2026-03-29T08:57:00.201Z</time></trkpt><trkpt lat="41.7472033" lon="13.71317"><ele>900.8</ele><time>2026-03-29T08:57:01.201Z</time></trkpt><trkpt lat="41.7472033" lon="13.71329"><ele>902.2</ele><time>2026-03-29T08:57:02.202Z</time></trkpt><trkpt lat="41.7471983" lon="13.7134133"><ele>903.6</ele><time>2026-03-29T08:57:03.201Z</time></trkpt><trkpt lat="41.747195" lon="13.713525"><ele>905.0</ele><time>2026-03-29T08:57:04.201Z</time></trkpt><trkpt lat="41.7471933" lon="13.7136533"><ele>905.0</ele><time>2026-03-29T08:57:05.201Z</time></trkpt><trkpt lat="41.747185" lon="13.71379"><ele>905.0</ele><time>2026-03-29T08:57:06.201Z</time></trkpt><trkpt lat="41.7471667" lon="13.7139333"><ele>905.0</ele><time>2026-03-29T08:57:07.201Z</time></trkpt><trkpt lat="41.7471383" lon="13.71406"><ele>905.0</ele><time>2026-03-29T08:57:08.201Z</time></trkpt><trkpt lat="41.7471133" lon="13.7141867"><ele>905.0</ele><time>2026-03-29T08:57:09.201Z</time></trkpt><trkpt lat="41.7470883" lon="13.7143267"><ele>905.2</ele><time>2026-03-29T08:57:10.201Z</time></trkpt><trkpt lat="41.7470717" lon="13.7144717"><ele>905.4</ele><time>2026-03-29T08:57:11.201Z</time></trkpt><trkpt lat="41.7470517" lon="13.714625"><ele>905.5999999999999</ele><time>2026-03-29T08:57:12.202Z</time></trkpt><trkpt lat="41.74704" lon="13.7147617"><ele>905.8</ele><time>2026-03-29T08:57:13.201Z</time></trkpt><trkpt lat="41.7470333" lon="13.7149017"><ele>906.0</ele><time>2026-03-29T08:57:14.201Z</time></trkpt><trkpt lat="41.7470283" lon="13.7150283"><ele>906.0</ele><time>2026-03-29T08:57:15.201Z</time></trkpt><trkpt lat="41.7470217" lon="13.7151617"><ele>905.9999999999999</ele><time>2026-03-29T08:57:16.201Z</time></trkpt><trkpt lat="41.7470067" lon="13.71529"><ele>905.9999999999999</ele><time>2026-03-29T08:57:17.201Z</time></trkpt><trkpt lat="41.7469883" lon="13.7154117"><ele>906.0</ele><time>2026-03-29T08:57:18.201Z</time></trkpt><trkpt lat="41.7469683" lon="13.7155233"><ele>906.0</ele><time>2026-03-29T08:57:19.201Z</time></trkpt><trkpt lat="41.7469433" lon="13.7156333"><ele>904.6666666666666</ele><time>2026-03-29T08:57:20.201Z</time></trkpt><trkpt lat="41.746915" lon="13.7157433"><ele>903.3333333333333</ele><time>2026-03-29T08:57:21.201Z</time></trkpt><trkpt lat="41.74688" lon="13.7158617"><ele>902.0</ele><time>2026-03-29T08:57:22.201Z</time></trkpt><trkpt lat="41.7468367" lon="13.7159717"><ele>900.6666666666666</ele><time>2026-03-29T08:57:23.201Z</time></trkpt><trkpt lat="41.746795" lon="13.716065"><ele>899.3333333333333</ele><time>2026-03-29T08:57:24.201Z</time></trkpt><trkpt lat="41.746745" lon="13.7161633"><ele>898.0</ele><time>2026-03-29T08:57:25.201Z</time></trkpt><trkpt lat="41.7467" lon="13.7162533"><ele>895.8</ele><time>2026-03-29T08:57:26.201Z</time></trkpt><trkpt lat="41.7466733" lon="13.7163533"><ele>893.5999999999999</ele><time>2026-03-29T08:57:27.201Z</time></trkpt><trkpt lat="41.7466667" lon="13.71647"><ele>891.4000000000001</ele><time>2026-03-29T08:57:28.201Z</time></trkpt><trkpt lat="41.74668" lon="13.7165883"><ele>889.2</ele><time>2026-03-29T08:57:29.201Z</time></trkpt><trkpt lat="41.7467433" lon="13.7167117"><ele>887.0</ele><time>2026-03-29T08:57:30.201Z</time></trkpt><trkpt lat="41.7468" lon="13.7168183"><ele>887.0</ele><time>2026-03-29T08:57:31.201Z</time></trkpt><trkpt lat="41.7468483" lon="13.7169067"><ele>887.0</ele><time>2026-03-29T08:57:32.201Z</time></trkpt><trkpt lat="41.7468933" lon="13.71703"><ele>887.0</ele><time>2026-03-29T08:57:34.201Z</time></trkpt><trkpt lat="41.74691" lon="13.7172"><ele>887.0</ele><time>2026-03-29T08:57:36.201Z</time></trkpt><trkpt lat="41.7469" lon="13.7173217"><ele>887.0</ele><time>2026-03-29T08:57:37.201Z</time></trkpt><trkpt lat="41.7468817" lon="13.71747"><ele>887.0</ele><time>2026-03-29T08:57:38.201Z</time></trkpt><trkpt lat="41.7468517" lon="13.7176017"><ele>887.0</ele><time>2026-03-29T08:57:39.201Z</time></trkpt><trkpt lat="41.74683" lon="13.7177333"><ele>887.0</ele><time>2026-03-29T08:57:40.201Z</time></trkpt><trkpt lat="41.746815" lon="13.717855"><ele>887.0</ele><time>2026-03-29T08:57:41.201Z</time></trkpt><trkpt lat="41.746815" lon="13.717985"><ele>887.0</ele><time>2026-03-29T08:57:42.201Z</time></trkpt><trkpt lat="41.7468283" lon="13.7181233"><ele>885.6</ele><time>2026-03-29T08:57:43.201Z</time></trkpt><trkpt lat="41.746835" lon="13.7182783"><ele>884.2</ele><time>2026-03-29T08:57:44.201Z</time></trkpt><trkpt lat="41.7468433" lon="13.7184217"><ele>882.8</ele><time>2026-03-29T08:57:45.201Z</time></trkpt><trkpt lat="41.7468583" lon="13.71856"><ele>881.4</ele><time>2026-03-29T08:57:46.201Z</time></trkpt><trkpt lat="41.7468833" lon="13.7186817"><ele>880.0</ele><time>2026-03-29T08:57:47.201Z</time></trkpt><trkpt lat="41.7469117" lon="13.7187967"><ele>879.4999999999999</ele><time>2026-03-29T08:57:48.201Z</time></trkpt><trkpt lat="41.7469333" lon="13.718885"><ele>879.0</ele><time>2026-03-29T08:57:49.201Z</time></trkpt><trkpt lat="41.7469467" lon="13.7190067"><ele>878.5</ele><time>2026-03-29T08:57:51.201Z</time></trkpt><trkpt lat="41.7468783" lon="13.7190917"><ele>878.0</ele><time>2026-03-29T08:57:54.201Z</time></trkpt><trkpt lat="41.7467817" lon="13.7191067"><ele>877.4999999999999</ele><time>2026-03-29T08:57:56.202Z</time></trkpt><trkpt lat="41.746705" lon="13.7190867"><ele>877.0</ele><time>2026-03-29T08:57:57.201Z</time></trkpt><trkpt lat="41.7466" lon="13.7190467"><ele>877.0</ele><time>2026-03-29T08:57:58.201Z</time></trkpt><trkpt lat="41.7464817" lon="13.7189917"><ele>877.0</ele><time>2026-03-29T08:57:59.201Z</time></trkpt><trkpt lat="41.7463483" lon="13.718945"><ele>877.0</ele><time>2026-03-29T08:58:00.201Z</time></trkpt><trkpt lat="41.746225" lon="13.7189033"><ele>877.0</ele><time>2026-03-29T08:58:01.201Z</time></trkpt><trkpt lat="41.7460967" lon="13.7188683"><ele>877.0</ele><time>2026-03-29T08:58:02.201Z</time></trkpt><trkpt lat="41.7459617" lon="13.7188167"><ele>877.0</ele><time>2026-03-29T08:58:03.201Z</time></trkpt><trkpt lat="41.745835" lon="13.7187633"><ele>877.0</ele><time>2026-03-29T08:58:04.201Z</time></trkpt><trkpt lat="41.7457217" lon="13.718685"><ele>877.0</ele><time>2026-03-29T08:58:05.201Z</time></trkpt><trkpt lat="41.7456133" lon="13.7186033"><ele>877.75</ele><time>2026-03-29T08:58:06.201Z</time></trkpt><trkpt lat="41.7455067" lon="13.7185217"><ele>878.5</ele><time>2026-03-29T08:58:07.201Z</time></trkpt><trkpt lat="41.7454067" lon="13.7184367"><ele>879.25</ele><time>2026-03-29T08:58:08.201Z</time></trkpt><trkpt lat="41.7452983" lon="13.71834"><ele>880.0</ele><time>2026-03-29T08:58:09.201Z</time></trkpt><trkpt lat="41.7451783" lon="13.7182383"><ele>880.0</ele><time>2026-03-29T08:58:10.201Z</time></trkpt><trkpt lat="41.74506" lon="13.7181317"><ele>880.0</ele><time>2026-03-29T08:58:11.201Z</time></trkpt><trkpt lat="41.744955" lon="13.7179933"><ele>880.0</ele><time>2026-03-29T08:58:12.201Z</time></trkpt><trkpt lat="41.7448633" lon="13.7178883"><ele>880.0</ele><time>2026-03-29T08:58:13.202Z</time></trkpt><trkpt lat="41.7447767" lon="13.717775"><ele>879.5</ele><time>2026-03-29T08:58:14.201Z</time></trkpt><trkpt lat="41.7446817" lon="13.7176683"><ele>879.0</ele><time>2026-03-29T08:58:15.201Z</time></trkpt><trkpt lat="41.7445717" lon="13.7175717"><ele>878.5</ele><time>2026-03-29T08:58:16.202Z</time></trkpt><trkpt lat="41.744445" lon="13.7174917"><ele>878.0</ele><time>2026-03-29T08:58:17.201Z</time></trkpt><trkpt lat="41.7443117" lon="13.717445"><ele>877.0</ele><time>2026-03-29T08:58:18.201Z</time></trkpt><trkpt lat="41.7441717" lon="13.7174133"><ele>876.0</ele><time>2026-03-29T08:58:19.201Z</time></trkpt><trkpt lat="41.74401" lon="13.717365"><ele>875.0</ele><time>2026-03-29T08:58:20.201Z</time></trkpt><trkpt lat="41.7438733" lon="13.7173933"><ele>874.0</ele><time>2026-03-29T08:58:21.201Z</time></trkpt><trkpt lat="41.7437317" lon="13.7174717"><ele>874.0</ele><time>2026-03-29T08:58:22.201Z</time></trkpt><trkpt lat="41.7435933" lon="13.7175333"><ele>874.0</ele><time>2026-03-29T08:58:23.201Z</time></trkpt><trkpt lat="41.74346" lon="13.71759"><ele>874.0</ele><time>2026-03-29T08:58:24.201Z</time></trkpt><trkpt lat="41.7433333" lon="13.7176317"><ele>874.0</ele><time>2026-03-29T08:58:25.201Z</time></trkpt><trkpt lat="41.7432" lon="13.7176883"><ele>874.25</ele><time>2026-03-29T08:58:26.201Z</time></trkpt><trkpt lat="41.7430833" lon="13.7177533"><ele>874.5</ele><time>2026-03-29T08:58:27.202Z</time></trkpt><trkpt lat="41.7429683" lon="13.7178033"><ele>874.75</ele><time>2026-03-29T08:58:28.201Z</time></trkpt><trkpt lat="41.742845" lon="13.7178467"><ele>875.0</ele><time>2026-03-29T08:58:29.201Z</time></trkpt><trkpt lat="41.7426917" lon="13.7178617"><ele>875.0</ele><time>2026-03-29T08:58:30.201Z</time></trkpt><trkpt lat="41.742545" lon="13.717845"><ele>875.0</ele><time>2026-03-29T08:58:31.201Z</time></trkpt><trkpt lat="41.7424083" lon="13.7178133"><ele>875.0</ele><time>2026-03-29T08:58:32.201Z</time></trkpt><trkpt lat="41.7422817" lon="13.7177733"><ele>875.0</ele><time>2026-03-29T08:58:33.201Z</time></trkpt><trkpt lat="41.7421567" lon="13.7177033"><ele>873.5</ele><time>2026-03-29T08:58:34.201Z</time></trkpt><trkpt lat="41.74204" lon="13.7176033"><ele>872.0</ele><time>2026-03-29T08:58:35.201Z</time></trkpt><trkpt lat="41.7419333" lon="13.7174917"><ele>870.5</ele><time>2026-03-29T08:58:36.201Z</time></trkpt><trkpt lat="41.7418233" lon="13.7173467"><ele>869.0</ele><time>2026-03-29T08:58:37.201Z</time></trkpt><trkpt lat="41.7417167" lon="13.7171983"><ele>869.0</ele><time>2026-03-29T08:58:38.201Z</time></trkpt><trkpt lat="41.7416417" lon="13.7170367"><ele>869.0</ele><time>2026-03-29T08:58:39.201Z</time></trkpt><trkpt lat="41.7415967" lon="13.7168433"><ele>869.0</ele><time>2026-03-29T08:58:40.201Z</time></trkpt><trkpt lat="41.74156" lon="13.7166483"><ele>869.0</ele><time>2026-03-29T08:58:41.201Z</time></trkpt><trkpt lat="41.74154" lon="13.7164433"><ele>864.0</ele><time>2026-03-29T08:58:42.201Z</time></trkpt><trkpt lat="41.7415433" lon="13.716225"><ele>859.0</ele><time>2026-03-29T08:58:43.201Z</time></trkpt><trkpt lat="41.7415483" lon="13.71601"><ele>854.0</ele><time>2026-03-29T08:58:44.201Z</time></trkpt><trkpt lat="41.741575" lon="13.7157917"><ele>851.6666666666667</ele><time>2026-03-29T08:58:45.202Z</time></trkpt><trkpt lat="41.7416133" lon="13.7155617"><ele>849.3333333333333</ele><time>2026-03-29T08:58:46.201Z</time></trkpt><trkpt lat="41.7416433" lon="13.7153367"><ele>847.0</ele><time>2026-03-29T08:58:47.201Z</time></trkpt><trkpt lat="41.74167" lon="13.715145"><ele>846.6666666666666</ele><time>2026-03-29T08:58:48.201Z</time></trkpt><trkpt lat="41.7416933" lon="13.7149383"><ele>846.3333333333333</ele><time>2026-03-29T08:58:49.201Z</time></trkpt><trkpt lat="41.74172" lon="13.7147267"><ele>846.0</ele><time>2026-03-29T08:58:50.201Z</time></trkpt><trkpt lat="41.7417483" lon="13.7145267"><ele>845.75</ele><time>2026-03-29T08:58:51.201Z</time></trkpt><trkpt lat="41.7417767" lon="13.714335"><ele>845.5</ele><time>2026-03-29T08:58:52.202Z</time></trkpt><trkpt lat="41.7417983" lon="13.714145"><ele>845.25</ele><time>2026-03-29T08:58:53.201Z</time></trkpt><trkpt lat="41.741815" lon="13.7139633"><ele>845.0</ele><time>2026-03-29T08:58:54.201Z</time></trkpt><trkpt lat="41.7418233" lon="13.713775"><ele>845.0</ele><time>2026-03-29T08:58:55.201Z</time></trkpt><trkpt lat="41.7418133" lon="13.7135867"><ele>845.0</ele><time>2026-03-29T08:58:56.201Z</time></trkpt><trkpt lat="41.7417817" lon="13.7133983"><ele>845.0</ele><time>2026-03-29T08:58:57.201Z</time></trkpt><trkpt lat="41.741715" lon="13.71324"><ele>845.0</ele><time>2026-03-29T08:58:58.201Z</time></trkpt><trkpt lat="41.74165" lon="13.713115"><ele>842.25</ele><time>2026-03-29T08:58:59.201Z</time></trkpt><trkpt lat="41.741595" lon="13.7129767"><ele>839.5</ele><time>2026-03-29T08:59:00.201Z</time></trkpt><trkpt lat="41.7415067" lon="13.7128533"><ele>836.75</ele><time>2026-03-29T08:59:01.201Z</time></trkpt><trkpt lat="41.74142" lon="13.7127383"><ele>834.0</ele><time>2026-03-29T08:59:02.201Z</time></trkpt><trkpt lat="41.741335" lon="13.7126383"><ele>831.8000000000001</ele><time>2026-03-29T08:59:03.201Z</time></trkpt><trkpt lat="41.7412483" lon="13.7125517"><ele>829.6</ele><time>2026-03-29T08:59:04.201Z</time></trkpt><trkpt lat="41.7411617" lon="13.7124667"><ele>827.4</ele><time>2026-03-29T08:59:05.201Z</time></trkpt><trkpt lat="41.7410733" lon="13.7123733"><ele>825.2</ele><time>2026-03-29T08:59:06.201Z</time></trkpt><trkpt lat="41.7409983" lon="13.712295"><ele>823.0</ele><time>2026-03-29T08:59:07.201Z</time></trkpt><trkpt lat="41.7409383" lon="13.7122067"><ele>822.9999999999999</ele><time>2026-03-29T08:59:08.201Z</time></trkpt><trkpt lat="41.7408967" lon="13.7121283"><ele>823.0</ele><time>2026-03-29T08:59:09.201Z</time></trkpt><trkpt lat="41.7408467" lon="13.71207"><ele>823.0</ele><time>2026-03-29T08:59:10.201Z</time></trkpt><trkpt lat="41.7407817" lon="13.71204"><ele>823.0</ele><time>2026-03-29T08:59:11.201Z</time></trkpt><trkpt lat="41.7407167" lon="13.712045"><ele>822.9999999999999</ele><time>2026-03-29T08:59:12.201Z</time></trkpt><trkpt lat="41.7406417" lon="13.7120817"><ele>823.0</ele><time>2026-03-29T08:59:14.201Z</time></trkpt><trkpt lat="41.7405933" lon="13.7122317"><ele>823.0</ele><time>2026-03-29T08:59:36.201Z</time></trkpt><trkpt lat="41.740555" lon="13.7123617"><ele>823.0</ele><time>2026-03-29T08:59:38.202Z</time></trkpt><trkpt lat="41.7405283" lon="13.7125117"><ele>823.0</ele><time>2026-03-29T08:59:40.201Z</time></trkpt><trkpt lat="41.7404917" lon="13.7126083"><ele>823.0</ele><time>2026-03-29T08:59:41.201Z</time></trkpt><trkpt lat="41.7404383" lon="13.7127283"><ele>823.0</ele><time>2026-03-29T08:59:42.201Z</time></trkpt><trkpt lat="41.7403833" lon="13.7128633"><ele>826.4</ele><time>2026-03-29T08:59:43.201Z</time></trkpt><trkpt lat="41.7403317" lon="13.712995"><ele>829.8</ele><time>2026-03-29T08:59:44.201Z</time></trkpt><trkpt lat="41.7403" lon="13.713115"><ele>833.2</ele><time>2026-03-29T08:59:45.201Z</time></trkpt><trkpt lat="41.7402783" lon="13.7132383"><ele>836.6</ele><time>2026-03-29T08:59:46.201Z</time></trkpt><trkpt lat="41.7402667" lon="13.7133717"><ele>840.0</ele><time>2026-03-29T08:59:47.201Z</time></trkpt><trkpt lat="41.740295" lon="13.7135383"><ele>844.8</ele><time>2026-03-29T08:59:49.201Z</time></trkpt><trkpt lat="41.7403533" lon="13.71361"><ele>849.6</ele><time>2026-03-29T08:59:50.201Z</time></trkpt><trkpt lat="41.740445" lon="13.713675"><ele>854.4000000000001</ele><time>2026-03-29T08:59:51.201Z</time></trkpt><trkpt lat="41.740545" lon="13.7136867"><ele>859.2</ele><time>2026-03-29T08:59:52.201Z</time></trkpt><trkpt lat="41.7406717" lon="13.7136767"><ele>864.0</ele><time>2026-03-29T08:59:53.201Z</time></trkpt><trkpt lat="41.7407867" lon="13.7136033"><ele>859.2</ele><time>2026-03-29T08:59:54.201Z</time></trkpt><trkpt lat="41.7408867" lon="13.713525"><ele>854.4000000000001</ele><time>2026-03-29T08:59:55.201Z</time></trkpt><trkpt lat="41.7409633" lon="13.7134683"><ele>849.6</ele><time>2026-03-29T08:59:56.201Z</time></trkpt><trkpt lat="41.74103" lon="13.7134167"><ele>844.8</ele><time>2026-03-29T08:59:57.201Z</time></trkpt><trkpt lat="41.7411" lon="13.713385"><ele>840.0</ele><time>2026-03-29T08:59:58.201Z</time></trkpt><trkpt lat="41.7411983" lon="13.7133433"><ele>841.0</ele><time>2026-03-29T09:00:00.201Z</time></trkpt><trkpt lat="41.7412833" lon="13.71339"><ele>842.0</ele><time>2026-03-29T09:00:02.201Z</time></trkpt><trkpt lat="41.7413117" lon="13.71354"><ele>843.0</ele><time>2026-03-29T09:00:04.201Z</time></trkpt><trkpt lat="41.7412867" lon="13.7137017"><ele>844.0</ele><time>2026-03-29T09:00:06.201Z</time></trkpt><trkpt lat="41.7412367" lon="13.7137783"><ele>845.0</ele><time>2026-03-29T09:00:07.201Z</time></trkpt><trkpt lat="41.7411633" lon="13.713865"><ele>845.0</ele><time>2026-03-29T09:00:08.201Z</time></trkpt><trkpt lat="41.7410567" lon="13.7139233"><ele>845.0</ele><time>2026-03-29T09:00:09.201Z</time></trkpt><trkpt lat="41.7409433" lon="13.7139817"><ele>845.0</ele><time>2026-03-29T09:00:10.201Z</time></trkpt><trkpt lat="41.7408233" lon="13.7140683"><ele>845.0</ele><time>2026-03-29T09:00:11.201Z</time></trkpt><trkpt lat="41.740715" lon="13.71416"><ele>848.8</ele><time>2026-03-29T09:00:12.202Z</time></trkpt><trkpt lat="41.7406167" lon="13.7142517"><ele>852.6</ele><time>2026-03-29T09:00:13.201Z</time></trkpt><trkpt lat="41.7405383" lon="13.7143383"><ele>856.4000000000001</ele><time>2026-03-29T09:00:14.201Z</time></trkpt><trkpt lat="41.740465" lon="13.7144083"><ele>860.2</ele><time>2026-03-29T09:00:15.201Z</time></trkpt><trkpt lat="41.7404" lon="13.7144733"><ele>864.0</ele><time>2026-03-29T09:00:16.202Z</time></trkpt><trkpt lat="41.7403233" lon="13.7145317"><ele>866.8333333333334</ele><time>2026-03-29T09:00:17.202Z</time></trkpt><trkpt lat="41.7402583" lon="13.71456"><ele>869.6666666666667</ele><time>2026-03-29T09:00:18.202Z</time></trkpt><trkpt lat="41.7401783" lon="13.7145817"><ele>872.5</ele><time>2026-03-29T09:00:19.201Z</time></trkpt><trkpt lat="41.740085" lon="13.7145767"><ele>875.3333333333334</ele><time>2026-03-29T09:00:20.201Z</time></trkpt><trkpt lat="41.7399933" lon="13.7145767"><ele>878.1666666666667</ele><time>2026-03-29T09:00:21.202Z</time></trkpt><trkpt lat="41.7399167" lon="13.7145633"><ele>881.0</ele><time>2026-03-29T09:00:22.201Z</time></trkpt><trkpt lat="41.7398467" lon="13.7145333"><ele>879.6666666666667</ele><time>2026-03-29T09:00:23.201Z</time></trkpt><trkpt lat="41.7397767" lon="13.7145"><ele>878.3333333333334</ele><time>2026-03-29T09:00:24.201Z</time></trkpt><trkpt lat="41.7397033" lon="13.7144483"><ele>877.0</ele><time>2026-03-29T09:00:25.201Z</time></trkpt><trkpt lat="41.7396283" lon="13.7143833"><ele>875.6666666666667</ele><time>2026-03-29T09:00:26.201Z</time></trkpt><trkpt lat="41.739565" lon="13.7142917"><ele>874.3333333333334</ele><time>2026-03-29T09:00:27.201Z</time></trkpt><trkpt lat="41.7395067" lon="13.7141783"><ele>873.0</ele><time>2026-03-29T09:00:28.201Z</time></trkpt><trkpt lat="41.7394617" lon="13.7141033"><ele>873.0</ele><time>2026-03-29T09:00:29.201Z</time></trkpt><trkpt lat="41.739415" lon="13.713985"><ele>873.0</ele><time>2026-03-29T09:00:30.202Z</time></trkpt><trkpt lat="41.7393733" lon="13.713855"><ele>873.0</ele><time>2026-03-29T09:00:31.201Z</time></trkpt><trkpt lat="41.7393483" lon="13.7137083"><ele>873.0</ele><time>2026-03-29T09:00:32.201Z</time></trkpt><trkpt lat="41.7393267" lon="13.7135583"><ele>873.0</ele><time>2026-03-29T09:00:33.201Z</time></trkpt><trkpt lat="41.73931" lon="13.7134"><ele>879.25</ele><time>2026-03-29T09:00:34.201Z</time></trkpt><trkpt lat="41.739305" lon="13.7132267"><ele>885.5</ele><time>2026-03-29T09:00:35.201Z</time></trkpt><trkpt lat="41.7392933" lon="13.7130533"><ele>891.75</ele><time>2026-03-29T09:00:36.201Z</time></trkpt><trkpt lat="41.7393067" lon="13.7128667"><ele>898.0</ele><time>2026-03-29T09:00:37.201Z</time></trkpt><trkpt lat="41.739315" lon="13.7126933"><ele>898.0</ele><time>2026-03-29T09:00:38.201Z</time></trkpt><trkpt lat="41.7393267" lon="13.7125367"><ele>898.0</ele><time>2026-03-29T09:00:39.201Z</time></trkpt><trkpt lat="41.73933" lon="13.7124033"><ele>898.0</ele><time>2026-03-29T09:00:40.201Z</time></trkpt><trkpt lat="41.7393333" lon="13.7122633"><ele>898.0</ele><time>2026-03-29T09:00:41.201Z</time></trkpt><trkpt lat="41.7393517" lon="13.712115"><ele>898.0</ele><time>2026-03-29T09:00:42.201Z</time></trkpt><trkpt lat="41.7393683" lon="13.7119633"><ele>897.75</ele><time>2026-03-29T09:00:43.201Z</time></trkpt><trkpt lat="41.73938" lon="13.7118217"><ele>897.5</ele><time>2026-03-29T09:00:44.201Z</time></trkpt><trkpt lat="41.7393933" lon="13.711685"><ele>897.25</ele><time>2026-03-29T09:00:45.201Z</time></trkpt><trkpt lat="41.739425" lon="13.71154"><ele>897.0</ele><time>2026-03-29T09:00:46.201Z</time></trkpt><trkpt lat="41.739455" lon="13.71135"><ele>892.0</ele><time>2026-03-29T09:00:47.201Z</time></trkpt><trkpt lat="41.7394983" lon="13.7111617"><ele>887.0</ele><time>2026-03-29T09:00:48.201Z</time></trkpt><trkpt lat="41.739525" lon="13.7110033"><ele>882.0</ele><time>2026-03-29T09:00:49.201Z</time></trkpt><trkpt lat="41.7395533" lon="13.7108467"><ele>877.0</ele><time>2026-03-29T09:00:50.201Z</time></trkpt><trkpt lat="41.739565" lon="13.710695"><ele>876.9999999999999</ele><time>2026-03-29T09:00:51.201Z</time></trkpt><trkpt lat="41.7395717" lon="13.71058"><ele>877.0</ele><time>2026-03-29T09:00:52.201Z</time></trkpt><trkpt lat="41.7395967" lon="13.7104783"><ele>877.0</ele><time>2026-03-29T09:00:53.201Z</time></trkpt><trkpt lat="41.7396283" lon="13.7103783"><ele>877.0</ele><time>2026-03-29T09:00:54.201Z</time></trkpt><trkpt lat="41.7396433" lon="13.710295"><ele>876.9999999999999</ele><time>2026-03-29T09:00:55.201Z</time></trkpt><trkpt lat="41.7396567" lon="13.7101783"><ele>877.0</ele><time>2026-03-29T09:00:57.201Z</time></trkpt><trkpt lat="41.7398417" lon="13.7101233"><ele>877.0000000000001</ele><time>2026-03-29T09:01:11.201Z</time></trkpt><trkpt lat="41.7397967" lon="13.7100583"><ele>877.0</ele><time>2026-03-29T09:01:12.363Z</time></trkpt><trkpt lat="41.7397117" lon="13.710035"><ele>877.0</ele><time>2026-03-29T09:01:16.136Z</time></trkpt><trkpt lat="41.7396467" lon="13.71001"><ele>877.0</ele><time>2026-03-29T09:01:19.203Z</time></trkpt><trkpt lat="41.73969" lon="13.7099283"><ele>877.0</ele><time>2026-03-29T09:03:01.202Z</time></trkpt><trkpt lat="41.7396667" lon="13.70984"><ele>877.0000000000001</ele><time>2026-03-29T09:03:02.203Z</time></trkpt><trkpt lat="41.7396417" lon="13.709755"><ele>877.0</ele><time>2026-03-29T09:03:03.202Z</time></trkpt><trkpt lat="41.73962" lon="13.7096617"><ele>877.0</ele><time>2026-03-29T09:03:04.202Z</time></trkpt><trkpt lat="41.7395917" lon="13.7095667"><ele>877.0</ele><time>2026-03-29T09:03:05.202Z</time></trkpt><trkpt lat="41.73957" lon="13.7094817"><ele>877.0</ele><time>2026-03-29T09:03:06.202Z</time></trkpt><trkpt lat="41.7395317" lon="13.7093383"><ele>877.0</ele><time>2026-03-29T09:03:08.202Z</time></trkpt><trkpt lat="41.7394917" lon="13.7092017"><ele>877.0</ele><time>2026-03-29T09:03:10.202Z</time></trkpt><trkpt lat="41.73946" lon="13.7090817"><ele>877.3333333333333</ele><time>2026-03-29T09:03:12.202Z</time></trkpt><trkpt lat="41.7394167" lon="13.70898"><ele>877.6666666666666</ele><time>2026-03-29T09:03:15.202Z</time></trkpt><trkpt lat="41.7393583" lon="13.7089117"><ele>878.0</ele><time>2026-03-29T09:03:18.202Z</time></trkpt><trkpt lat="41.739285" lon="13.708905"><ele>878.3333333333333</ele><time>2026-03-29T09:03:31.202Z</time></trkpt><trkpt lat="41.739315" lon="13.70905"><ele>878.6666666666666</ele><time>2026-03-29T09:03:34.202Z</time></trkpt><trkpt lat="41.7393283" lon="13.7091433"><ele>879.0</ele><time>2026-03-29T09:03:35.202Z</time></trkpt><trkpt lat="41.7393383" lon="13.709255"><ele>879.0</ele><time>2026-03-29T09:03:36.202Z</time></trkpt><trkpt lat="41.73935" lon="13.7093733"><ele>879.0000000000001</ele><time>2026-03-29T09:03:37.202Z</time></trkpt><trkpt lat="41.73936" lon="13.7095017"><ele>879.0000000000001</ele><time>2026-03-29T09:03:38.202Z</time></trkpt><trkpt lat="41.7393683" lon="13.7096383"><ele>879.0</ele><time>2026-03-29T09:03:39.202Z</time></trkpt><trkpt lat="41.739375" lon="13.70976"><ele>879.0</ele><time>2026-03-29T09:03:40.202Z</time></trkpt><trkpt lat="41.7393817" lon="13.7098667"><ele>880.6666666666666</ele><time>2026-03-29T09:03:41.202Z</time></trkpt><trkpt lat="41.7393817" lon="13.7099817"><ele>882.3333333333333</ele><time>2026-03-29T09:03:42.202Z</time></trkpt><trkpt lat="41.739375" lon="13.7101017"><ele>884.0</ele><time>2026-03-29T09:03:43.202Z</time></trkpt><trkpt lat="41.7393667" lon="13.7102217"><ele>885.6666666666666</ele><time>2026-03-29T09:03:44.202Z</time></trkpt><trkpt lat="41.7393567" lon="13.710335"><ele>887.3333333333333</ele><time>2026-03-29T09:03:45.202Z</time></trkpt><trkpt lat="41.7393467" lon="13.7104383"><ele>889.0</ele><time>2026-03-29T09:03:46.202Z</time></trkpt><trkpt lat="41.7393333" lon="13.7105317"><ele>889.9999999999999</ele><time>2026-03-29T09:03:47.202Z</time></trkpt><trkpt lat="41.7393233" lon="13.7106417"><ele>891.0</ele><time>2026-03-29T09:03:48.202Z</time></trkpt><trkpt lat="41.7393167" lon="13.710755"><ele>892.0</ele><time>2026-03-29T09:03:49.202Z</time></trkpt><trkpt lat="41.7393083" lon="13.7108617"><ele>893.0</ele><time>2026-03-29T09:03:50.202Z</time></trkpt><trkpt lat="41.7393" lon="13.7109617"><ele>893.9999999999999</ele><time>2026-03-29T09:03:51.202Z</time></trkpt><trkpt lat="41.7392883" lon="13.711065"><ele>895.0</ele><time>2026-03-29T09:03:52.202Z</time></trkpt><trkpt lat="41.73927" lon="13.711175"><ele>895.3333333333333</ele><time>2026-03-29T09:03:53.202Z</time></trkpt><trkpt lat="41.7392367" lon="13.71128"><ele>895.6666666666666</ele><time>2026-03-29T09:03:54.202Z</time></trkpt><trkpt lat="41.7391967" lon="13.7113733"><ele>896.0</ele><time>2026-03-29T09:03:55.202Z</time></trkpt><trkpt lat="41.73916" lon="13.71146"><ele>896.3333333333333</ele><time>2026-03-29T09:03:56.202Z</time></trkpt><trkpt lat="41.7391267" lon="13.7115433"><ele>896.6666666666666</ele><time>2026-03-29T09:03:57.202Z</time></trkpt><trkpt lat="41.739065" lon="13.7116817"><ele>897.0</ele><time>2026-03-29T09:03:59.202Z</time></trkpt><trkpt lat="41.739015" lon="13.711785"><ele>897.0</ele><time>2026-03-29T09:04:01.202Z</time></trkpt><trkpt lat="41.7389833" lon="13.7118683"><ele>897.0</ele><time>2026-03-29T09:04:03.202Z</time></trkpt><trkpt lat="41.7389633" lon="13.7119483"><ele>897.0</ele><time>2026-03-29T09:04:05.202Z</time></trkpt><trkpt lat="41.7389533" lon="13.7120633"><ele>897.0</ele><time>2026-03-29T09:04:19.422Z</time></trkpt><trkpt lat="41.73891" lon="13.712215"><ele>897.0</ele><time>2026-03-29T09:05:36.201Z</time></trkpt><trkpt lat="41.7388983" lon="13.7122983"><ele>897.0</ele><time>2026-03-29T09:05:37.201Z</time></trkpt><trkpt lat="41.7388783" lon="13.7123967"><ele>897.1428571428571</ele><time>2026-03-29T09:05:38.201Z</time></trkpt><trkpt lat="41.7388467" lon="13.7124983"><ele>897.2857142857142</ele><time>2026-03-29T09:05:39.201Z</time></trkpt><trkpt lat="41.7388333" lon="13.7125833"><ele>897.4285714285713</ele><time>2026-03-29T09:05:40.201Z</time></trkpt><trkpt lat="41.7388117" lon="13.7126767"><ele>897.5714285714286</ele><time>2026-03-29T09:05:41.201Z</time></trkpt><trkpt lat="41.738795" lon="13.7127767"><ele>897.7142857142856</ele><time>2026-03-29T09:05:42.201Z</time></trkpt><trkpt lat="41.7387683" lon="13.71286"><ele>897.8571428571428</ele><time>2026-03-29T09:05:43.201Z</time></trkpt><trkpt lat="41.73874" lon="13.7129367"><ele>898.0</ele><time>2026-03-29T09:05:44.201Z</time></trkpt><trkpt lat="41.7386967" lon="13.7130667"><ele>898.3333333333333</ele><time>2026-03-29T09:05:46.202Z</time></trkpt><trkpt lat="41.7386617" lon="13.7131833"><ele>898.6666666666666</ele><time>2026-03-29T09:05:48.201Z</time></trkpt><trkpt lat="41.738625" lon="13.7132967"><ele>899.0</ele><time>2026-03-29T09:05:50.201Z</time></trkpt><trkpt lat="41.7385783" lon="13.7133683"><ele>899.3333333333333</ele><time>2026-03-29T09:05:52.202Z</time></trkpt><trkpt lat="41.7385183" lon="13.7134233"><ele>899.6666666666666</ele><time>2026-03-29T09:05:54.201Z</time></trkpt><trkpt lat="41.7384833" lon="13.7135"><ele>900.0</ele><time>2026-03-29T09:05:56.201Z</time></trkpt><trkpt lat="41.7384533" lon="13.7135917"><ele>903.5</ele><time>2026-03-29T09:05:58.201Z</time></trkpt><trkpt lat="41.7383933" lon="13.71369"><ele>907.0</ele><time>2026-03-29T09:06:00.201Z</time></trkpt><trkpt lat="41.7383283" lon="13.7137533"><ele>910.5</ele><time>2026-03-29T09:06:02.201Z</time></trkpt><trkpt lat="41.7384783" lon="13.71402"><ele>914.0</ele><time>2026-03-29T09:06:14.314Z</time></trkpt><trkpt lat="41.7383967" lon="13.7139667"><ele>914.0000000000001</ele><time>2026-03-29T09:06:15.702Z</time></trkpt><trkpt lat="41.7383367" lon="13.7139167"><ele>914.0</ele><time>2026-03-29T09:06:21.202Z</time></trkpt><trkpt lat="41.7382783" lon="13.7138767"><ele>914.0</ele><time>2026-03-29T09:06:26.202Z</time></trkpt><trkpt lat="41.73817" lon="13.7138667"><ele>914.0</ele><time>2026-03-29T09:07:33.202Z</time></trkpt><trkpt lat="41.7381117" lon="13.71383"><ele>914.0000000000001</ele><time>2026-03-29T09:07:39.202Z</time></trkpt><trkpt lat="41.7379967" lon="13.7138333"><ele>914.0</ele><time>2026-03-29T09:09:33.202Z</time></trkpt><trkpt lat="41.73789" lon="13.7138967"><ele>914.0000000000001</ele><time>2026-03-29T09:09:51.202Z</time></trkpt><trkpt lat="41.7378267" lon="13.71392"><ele>914.0</ele><time>2026-03-29T09:09:55.202Z</time></trkpt><trkpt lat="41.7377617" lon="13.7139233"><ele>914.0000000000001</ele><time>2026-03-29T09:10:03.202Z</time></trkpt><trkpt lat="41.7378333" lon="13.7139517"><ele>914.0000000000001</ele><time>2026-03-29T09:10:28.202Z</time></trkpt><trkpt lat="41.7379217" lon="13.7139217"><ele>914.0</ele><time>2026-03-29T09:10:41.202Z</time></trkpt><trkpt lat="41.7379767" lon="13.7138717"><ele>914.0000000000001</ele><time>2026-03-29T09:10:53.202Z</time></trkpt><trkpt lat="41.7380359" lon="13.7138328"><ele>914.0000000000001</ele><time>2026-03-29T09:11:04.284Z</time></trkpt><trkpt lat="41.7381055" lon="13.7137736"><ele>914.0000000000001</ele><time>2026-03-29T09:11:47.229Z</time></trkpt><trkpt lat="41.7381678" lon="13.7137875"><ele>914.0</ele><time>2026-03-29T09:11:53.264Z</time></trkpt><trkpt lat="41.7382925" lon="13.7139016"><ele>914.0</ele><time>2026-03-29T09:18:26.177Z</time></trkpt><trkpt lat="41.7382412" lon="13.7138339"><ele>914.0</ele><time>2026-03-29T09:18:39.301Z</time></trkpt><trkpt lat="41.7381647" lon="13.713839"><ele>914.0000000000001</ele><time>2026-03-29T09:19:58.271Z</time></trkpt><trkpt lat="41.7381167" lon="13.7137742"><ele>914.0</ele><time>2026-03-29T09:20:01.25Z</time></trkpt><trkpt lat="41.7380787" lon="13.7136853"><ele>914.0000000000001</ele><time>2026-03-29T09:20:05.168Z</time></trkpt><trkpt lat="41.7381051" lon="13.7135852"><ele>914.0</ele><time>2026-03-29T09:20:09.236Z</time></trkpt><trkpt lat="41.7381683" lon="13.7135267"><ele>914.0000000000001</ele><time>2026-03-29T09:20:12.201Z</time></trkpt><trkpt lat="41.738245" lon="13.7135483"><ele>914.0000000000001</ele><time>2026-03-29T09:20:15.201Z</time></trkpt><trkpt lat="41.7383117" lon="13.7135867"><ele>914.0</ele><time>2026-03-29T09:20:18.201Z</time></trkpt><trkpt lat="41.7383683" lon="13.713645"><ele>914.0000000000001</ele><time>2026-03-29T09:20:22.201Z</time></trkpt><trkpt lat="41.7384233" lon="13.7135983"><ele>914.0000000000001</ele><time>2026-03-29T09:20:26.201Z</time></trkpt><trkpt lat="41.73845" lon="13.7135117"><ele>914.6666666666667</ele><time>2026-03-29T09:20:29.202Z</time></trkpt><trkpt lat="41.7385317" lon="13.713395"><ele>915.3333333333334</ele><time>2026-03-29T09:21:01.201Z</time></trkpt><trkpt lat="41.738595" lon="13.71334"><ele>916.0</ele><time>2026-03-29T09:21:05.201Z</time></trkpt><trkpt lat="41.7386417" lon="13.713245"><ele>916.6666666666667</ele><time>2026-03-29T09:21:08.201Z</time></trkpt><trkpt lat="41.73866" lon="13.7131383"><ele>917.3333333333334</ele><time>2026-03-29T09:21:11.201Z</time></trkpt><trkpt lat="41.7386867" lon="13.7130617"><ele>918.0</ele><time>2026-03-29T09:21:13.202Z</time></trkpt><trkpt lat="41.7387167" lon="13.71298"><ele>914.4</ele><time>2026-03-29T09:21:15.201Z</time></trkpt><trkpt lat="41.7387583" lon="13.71285"><ele>910.8</ele><time>2026-03-29T09:21:17.201Z</time></trkpt><trkpt lat="41.738795" lon="13.7127033"><ele>907.2</ele><time>2026-03-29T09:21:19.201Z</time></trkpt><trkpt lat="41.73884" lon="13.7125583"><ele>903.6</ele><time>2026-03-29T09:21:21.201Z</time></trkpt><trkpt lat="41.73886" lon="13.7124683"><ele>900.0</ele><time>2026-03-29T09:21:22.201Z</time></trkpt><trkpt lat="41.7388917" lon="13.7123317"><ele>899.5</ele><time>2026-03-29T09:21:23.201Z</time></trkpt><trkpt lat="41.7389183" lon="13.7121817"><ele>899.0</ele><time>2026-03-29T09:21:24.201Z</time></trkpt><trkpt lat="41.7389483" lon="13.7120317"><ele>898.5</ele><time>2026-03-29T09:21:25.201Z</time></trkpt><trkpt lat="41.73899" lon="13.711885"><ele>898.0</ele><time>2026-03-29T09:21:26.201Z</time></trkpt><trkpt lat="41.7390433" lon="13.7117383"><ele>897.8</ele><time>2026-03-29T09:21:27.201Z</time></trkpt><trkpt lat="41.7391017" lon="13.7115817"><ele>897.5999999999999</ele><time>2026-03-29T09:21:28.202Z</time></trkpt><trkpt lat="41.73916" lon="13.71145"><ele>897.4000000000001</ele><time>2026-03-29T09:21:29.201Z</time></trkpt><trkpt lat="41.739205" lon="13.71134"><ele>897.2</ele><time>2026-03-29T09:21:30.201Z</time></trkpt><trkpt lat="41.73924" lon="13.7112317"><ele>897.0</ele><time>2026-03-29T09:21:31.201Z</time></trkpt><trkpt lat="41.7392667" lon="13.7111083"><ele>896.6</ele><time>2026-03-29T09:21:32.201Z</time></trkpt><trkpt lat="41.73929" lon="13.71096"><ele>896.2</ele><time>2026-03-29T09:21:33.201Z</time></trkpt><trkpt lat="41.7393033" lon="13.7108217"><ele>895.8</ele><time>2026-03-29T09:21:34.201Z</time></trkpt><trkpt lat="41.739315" lon="13.7106917"><ele>895.4</ele><time>2026-03-29T09:21:35.201Z</time></trkpt><trkpt lat="41.7393233" lon="13.710565"><ele>895.0</ele><time>2026-03-29T09:21:36.201Z</time></trkpt><trkpt lat="41.739335" lon="13.7104517"><ele>895.0</ele><time>2026-03-29T09:21:37.201Z</time></trkpt><trkpt lat="41.7393417" lon="13.7103317"><ele>895.0</ele><time>2026-03-29T09:21:38.202Z</time></trkpt><trkpt lat="41.7393467" lon="13.7102067"><ele>895.0</ele><time>2026-03-29T09:21:39.201Z</time></trkpt><trkpt lat="41.73935" lon="13.7100883"><ele>895.0</ele><time>2026-03-29T09:21:40.201Z</time></trkpt><trkpt lat="41.73936" lon="13.7099617"><ele>895.0</ele><time>2026-03-29T09:21:41.201Z</time></trkpt><trkpt lat="41.7393683" lon="13.7098467"><ele>893.8</ele><time>2026-03-29T09:21:42.201Z</time></trkpt><trkpt lat="41.7393583" lon="13.7097067"><ele>892.6</ele><time>2026-03-29T09:21:43.202Z</time></trkpt><trkpt lat="41.739345" lon="13.7095733"><ele>891.4000000000001</ele><time>2026-03-29T09:21:44.201Z</time></trkpt><trkpt lat="41.73934" lon="13.709455"><ele>890.2</ele><time>2026-03-29T09:21:45.201Z</time></trkpt><trkpt lat="41.7393317" lon="13.7093433"><ele>889.0</ele><time>2026-03-29T09:21:46.201Z</time></trkpt><trkpt lat="41.7393217" lon="13.7092383"><ele>887.3333333333333</ele><time>2026-03-29T09:21:47.201Z</time></trkpt><trkpt lat="41.739315" lon="13.7091517"><ele>885.6666666666666</ele><time>2026-03-29T09:21:48.201Z</time></trkpt><trkpt lat="41.739295" lon="13.7090233"><ele>884.0</ele><time>2026-03-29T09:21:50.201Z</time></trkpt><trkpt lat="41.7392883" lon="13.7089133"><ele>882.3333333333333</ele><time>2026-03-29T09:21:52.201Z</time></trkpt><trkpt lat="41.7393267" lon="13.70883"><ele>880.6666666666666</ele><time>2026-03-29T09:21:55.201Z</time></trkpt><trkpt lat="41.73938" lon="13.708885"><ele>879.0</ele><time>2026-03-29T09:21:58.201Z</time></trkpt><trkpt lat="41.739435" lon="13.7090317"><ele>878.6</ele><time>2026-03-29T09:22:00.201Z</time></trkpt><trkpt lat="41.7394617" lon="13.7091567"><ele>878.2</ele><time>2026-03-29T09:22:01.201Z</time></trkpt><trkpt lat="41.739495" lon="13.7092883"><ele>877.8000000000001</ele><time>2026-03-29T09:22:02.202Z</time></trkpt><trkpt lat="41.7395267" lon="13.7094133"><ele>877.4000000000001</ele><time>2026-03-29T09:22:03.201Z</time></trkpt><trkpt lat="41.7395633" lon="13.709535"><ele>877.0</ele><time>2026-03-29T09:22:04.202Z</time></trkpt><trkpt lat="41.7396017" lon="13.709635"><ele>876.9999999999999</ele><time>2026-03-29T09:22:05.201Z</time></trkpt><trkpt lat="41.7396317" lon="13.7097317"><ele>877.0</ele><time>2026-03-29T09:22:06.201Z</time></trkpt><trkpt lat="41.7396567" lon="13.7098167"><ele>877.0</ele><time>2026-03-29T09:22:07.201Z</time></trkpt><trkpt lat="41.7396767" lon="13.7099167"><ele>877.0</ele><time>2026-03-29T09:22:08.201Z</time></trkpt><trkpt lat="41.7396933" lon="13.71002"><ele>876.9999999999999</ele><time>2026-03-29T09:22:09.201Z</time></trkpt><trkpt lat="41.7397067" lon="13.7101317"><ele>877.0</ele><time>2026-03-29T09:22:10.201Z</time></trkpt><trkpt lat="41.7397083" lon="13.7102417"><ele>877.0</ele><time>2026-03-29T09:22:11.201Z</time></trkpt><trkpt lat="41.7397067" lon="13.710345"><ele>877.0</ele><time>2026-03-29T09:22:12.201Z</time></trkpt><trkpt lat="41.7397017" lon="13.7104383"><ele>877.0</ele><time>2026-03-29T09:22:13.201Z</time></trkpt><trkpt lat="41.7396883" lon="13.7105967"><ele>877.0</ele><time>2026-03-29T09:22:15.201Z</time></trkpt><trkpt lat="41.7396667" lon="13.710725"><ele>877.0</ele><time>2026-03-29T09:22:17.201Z</time></trkpt><trkpt lat="41.7396533" lon="13.710855"><ele>877.0</ele><time>2026-03-29T09:22:19.201Z</time></trkpt><trkpt lat="41.7396433" lon="13.71097"><ele>877.0</ele><time>2026-03-29T09:22:21.201Z</time></trkpt><trkpt lat="41.73963" lon="13.7110533"><ele>877.0</ele><time>2026-03-29T09:22:22.201Z</time></trkpt><trkpt lat="41.7396067" lon="13.7111967"><ele>877.0</ele><time>2026-03-29T09:22:24.201Z</time></trkpt><trkpt lat="41.7395917" lon="13.7113383"><ele>877.0</ele><time>2026-03-29T09:22:26.201Z</time></trkpt><trkpt lat="41.7395767" lon="13.7114533"><ele>875.8</ele><time>2026-03-29T09:22:28.201Z</time></trkpt><trkpt lat="41.73956" lon="13.71154"><ele>874.6</ele><time>2026-03-29T09:22:30.201Z</time></trkpt><trkpt lat="41.7395333" lon="13.711735"><ele>873.3999999999999</ele><time>2026-03-29T09:22:40.201Z</time></trkpt><trkpt lat="41.7394917" lon="13.7118717"><ele>872.1999999999999</ele><time>2026-03-29T09:22:42.201Z</time></trkpt><trkpt lat="41.7394467" lon="13.711985"><ele>871.0</ele><time>2026-03-29T09:22:43.201Z</time></trkpt><trkpt lat="41.7394083" lon="13.7120933"><ele>876.4</ele><time>2026-03-29T09:22:44.201Z</time></trkpt><trkpt lat="41.7393667" lon="13.712185"><ele>881.8</ele><time>2026-03-29T09:22:45.201Z</time></trkpt><trkpt lat="41.7393267" lon="13.7123217"><ele>887.1999999999999</ele><time>2026-03-29T09:22:47.201Z</time></trkpt><trkpt lat="41.73931" lon="13.712405"><ele>892.5999999999999</ele><time>2026-03-29T09:22:48.201Z</time></trkpt><trkpt lat="41.7392817" lon="13.71251"><ele>898.0</ele><time>2026-03-29T09:22:50.201Z</time></trkpt><trkpt lat="41.7392367" lon="13.7126567"><ele>898.4</ele><time>2026-03-29T09:22:52.201Z</time></trkpt><trkpt lat="41.7392283" lon="13.7127533"><ele>898.8</ele><time>2026-03-29T09:22:53.201Z</time></trkpt><trkpt lat="41.73923" lon="13.7128933"><ele>899.2</ele><time>2026-03-29T09:22:54.201Z</time></trkpt><trkpt lat="41.7392283" lon="13.7130183"><ele>899.6</ele><time>2026-03-29T09:22:55.201Z</time></trkpt><trkpt lat="41.73922" lon="13.7131417"><ele>900.0</ele><time>2026-03-29T09:22:56.201Z</time></trkpt><trkpt lat="41.7392183" lon="13.71326"><ele>900.0</ele><time>2026-03-29T09:22:57.201Z</time></trkpt><trkpt lat="41.7392067" lon="13.7133817"><ele>900.0</ele><time>2026-03-29T09:22:58.201Z</time></trkpt><trkpt lat="41.7392033" lon="13.7134983"><ele>900.0</ele><time>2026-03-29T09:22:59.201Z</time></trkpt><trkpt lat="41.7392067" lon="13.713595"><ele>900.0</ele><time>2026-03-29T09:23:00.201Z</time></trkpt><trkpt lat="41.7392083" lon="13.7136883"><ele>900.0</ele><time>2026-03-29T09:23:01.201Z</time></trkpt><trkpt lat="41.73919" lon="13.7138733"><ele>900.0</ele><time>2026-03-29T09:23:03.201Z</time></trkpt><trkpt lat="41.7391733" lon="13.7139683"><ele>900.0</ele><time>2026-03-29T09:23:04.201Z</time></trkpt><trkpt lat="41.73916" lon="13.7140617"><ele>900.0</ele><time>2026-03-29T09:23:05.201Z</time></trkpt><trkpt lat="41.7391683" lon="13.7142083"><ele>900.0</ele><time>2026-03-29T09:23:07.201Z</time></trkpt><trkpt lat="41.7391583" lon="13.7143417"><ele>900.0</ele><time>2026-03-29T09:23:09.201Z</time></trkpt><trkpt lat="41.7391283" lon="13.7144183"><ele>900.0</ele><time>2026-03-29T09:23:10.201Z</time></trkpt><trkpt lat="41.73907" lon="13.7144967"><ele>901.4285714285716</ele><time>2026-03-29T09:23:11.201Z</time></trkpt><trkpt lat="41.7389917" lon="13.7145733"><ele>902.8571428571429</ele><time>2026-03-29T09:23:12.201Z</time></trkpt><trkpt lat="41.7389317" lon="13.7146233"><ele>904.2857142857143</ele><time>2026-03-29T09:23:13.201Z</time></trkpt><trkpt lat="41.7388717" lon="13.7146617"><ele>905.7142857142858</ele><time>2026-03-29T09:23:14.201Z</time></trkpt><trkpt lat="41.7388133" lon="13.714695"><ele>907.1428571428571</ele><time>2026-03-29T09:23:15.201Z</time></trkpt><trkpt lat="41.73875" lon="13.71471"><ele>908.5714285714286</ele><time>2026-03-29T09:23:16.201Z</time></trkpt><trkpt lat="41.738675" lon="13.7147267"><ele>910.0</ele><time>2026-03-29T09:23:17.201Z</time></trkpt><trkpt lat="41.7386033" lon="13.714745"><ele>909.4999999999999</ele><time>2026-03-29T09:23:18.201Z</time></trkpt><trkpt lat="41.7385367" lon="13.71479"><ele>909.0</ele><time>2026-03-29T09:23:19.201Z</time></trkpt><trkpt lat="41.7384667" lon="13.71483"><ele>908.5</ele><time>2026-03-29T09:23:20.201Z</time></trkpt><trkpt lat="41.7384067" lon="13.7148617"><ele>908.0</ele><time>2026-03-29T09:23:21.201Z</time></trkpt><trkpt lat="41.7382967" lon="13.7149183"><ele>907.4999999999999</ele><time>2026-03-29T09:23:23.201Z</time></trkpt><trkpt lat="41.7381917" lon="13.7148733"><ele>907.0</ele><time>2026-03-29T09:23:25.201Z</time></trkpt><trkpt lat="41.7380767" lon="13.7148167"><ele>907.0</ele><time>2026-03-29T09:23:27.201Z</time></trkpt><trkpt lat="41.738005" lon="13.7148083"><ele>907.0</ele><time>2026-03-29T09:23:28.201Z</time></trkpt><trkpt lat="41.737935" lon="13.7147967"><ele>907.0</ele><time>2026-03-29T09:23:29.201Z</time></trkpt><trkpt lat="41.737815" lon="13.7147767"><ele>907.0</ele><time>2026-03-29T09:23:31.201Z</time></trkpt><trkpt lat="41.7377033" lon="13.7147917"><ele>907.0</ele><time>2026-03-29T09:23:33.201Z</time></trkpt><trkpt lat="41.7375867" lon="13.7148217"><ele>905.3333333333333</ele><time>2026-03-29T09:23:35.201Z</time></trkpt><trkpt lat="41.7374717" lon="13.7148633"><ele>903.6666666666666</ele><time>2026-03-29T09:23:37.201Z</time></trkpt><trkpt lat="41.73741" lon="13.7148917"><ele>902.0</ele><time>2026-03-29T09:23:38.201Z</time></trkpt><trkpt lat="41.73734" lon="13.714905"><ele>900.3333333333333</ele><time>2026-03-29T09:23:39.201Z</time></trkpt><trkpt lat="41.7372717" lon="13.714925"><ele>898.6666666666666</ele><time>2026-03-29T09:23:40.201Z</time></trkpt><trkpt lat="41.737175" lon="13.714935"><ele>897.0</ele><time>2026-03-29T09:23:42.201Z</time></trkpt><trkpt lat="41.7370533" lon="13.714955"><ele>897.0</ele><time>2026-03-29T09:23:44.201Z</time></trkpt><trkpt lat="41.7369867" lon="13.71496"><ele>897.0</ele><time>2026-03-29T09:23:45.201Z</time></trkpt><trkpt lat="41.7368633" lon="13.7149133"><ele>897.0</ele><time>2026-03-29T09:23:47.201Z</time></trkpt><trkpt lat="41.7368017" lon="13.7148583"><ele>897.0</ele><time>2026-03-29T09:23:48.201Z</time></trkpt><trkpt lat="41.7367117" lon="13.7147583"><ele>897.0</ele><time>2026-03-29T09:23:50.201Z</time></trkpt><trkpt lat="41.73663" lon="13.71466"><ele>897.8</ele><time>2026-03-29T09:23:52.201Z</time></trkpt><trkpt lat="41.7365683" lon="13.7145433"><ele>898.6</ele><time>2026-03-29T09:23:54.201Z</time></trkpt><trkpt lat="41.7365117" lon="13.7144433"><ele>899.3999999999999</ele><time>2026-03-29T09:23:56.201Z</time></trkpt><trkpt lat="41.7364583" lon="13.7143333"><ele>900.1999999999999</ele><time>2026-03-29T09:23:58.201Z</time></trkpt><trkpt lat="41.73641" lon="13.7142233"><ele>901.0</ele><time>2026-03-29T09:24:00.201Z</time></trkpt><trkpt lat="41.7363633" lon="13.7140683"><ele>897.9999999999999</ele><time>2026-03-29T09:24:02.201Z</time></trkpt><trkpt lat="41.7363367" lon="13.71397"><ele>895.0</ele><time>2026-03-29T09:24:03.201Z</time></trkpt><trkpt lat="41.7363083" lon="13.71385"><ele>892.0</ele><time>2026-03-29T09:24:04.201Z</time></trkpt><trkpt lat="41.736265" lon="13.7137367"><ele>889.0</ele><time>2026-03-29T09:24:05.201Z</time></trkpt><trkpt lat="41.7362383" lon="13.713625"><ele>885.9999999999999</ele><time>2026-03-29T09:24:06.201Z</time></trkpt><trkpt lat="41.736225" lon="13.7135217"><ele>883.0</ele><time>2026-03-29T09:24:07.201Z</time></trkpt><trkpt lat="41.7361833" lon="13.7133"><ele>880.6666666666666</ele><time>2026-03-29T09:24:08.201Z</time></trkpt><trkpt lat="41.7361567" lon="13.71315"><ele>878.3333333333333</ele><time>2026-03-29T09:24:09.201Z</time></trkpt><trkpt lat="41.7361417" lon="13.7130567"><ele>876.0</ele><time>2026-03-29T09:24:10.202Z</time></trkpt><trkpt lat="41.7361317" lon="13.712955"><ele>873.6666666666667</ele><time>2026-03-29T09:24:11.201Z</time></trkpt><trkpt lat="41.7361017" lon="13.7128117"><ele>871.3333333333334</ele><time>2026-03-29T09:24:13.201Z</time></trkpt><trkpt lat="41.73609" lon="13.7127167"><ele>869.0</ele><time>2026-03-29T09:24:15.201Z</time></trkpt><trkpt lat="41.7360667" lon="13.71261"><ele>871.2</ele><time>2026-03-29T09:24:17.201Z</time></trkpt><trkpt lat="41.7360333" lon="13.7125217"><ele>873.4000000000001</ele><time>2026-03-29T09:24:20.201Z</time></trkpt><trkpt lat="41.7359917" lon="13.71241"><ele>875.6</ele><time>2026-03-29T09:24:22.201Z</time></trkpt><trkpt lat="41.73595" lon="13.7122883"><ele>877.8</ele><time>2026-03-29T09:24:24.201Z</time></trkpt><trkpt lat="41.7358883" lon="13.712115"><ele>880.0</ele><time>2026-03-29T09:24:26.201Z</time></trkpt><trkpt lat="41.7358483" lon="13.7120333"><ele>880.0</ele><time>2026-03-29T09:24:27.201Z</time></trkpt><trkpt lat="41.735815" lon="13.7119517"><ele>880.0</ele><time>2026-03-29T09:24:28.201Z</time></trkpt><trkpt lat="41.7357733" lon="13.7118517"><ele>880.0</ele><time>2026-03-29T09:24:31.201Z</time></trkpt><trkpt lat="41.7357167" lon="13.7117867"><ele>880.0</ele><time>2026-03-29T09:24:35.201Z</time></trkpt><trkpt lat="41.7356767" lon="13.7116067"><ele>880.0</ele><time>2026-03-29T09:24:42.201Z</time></trkpt><trkpt lat="41.7356533" lon="13.7114733"><ele>875.0</ele><time>2026-03-29T09:24:44.201Z</time></trkpt><trkpt lat="41.73564" lon="13.7112833"><ele>870.0</ele><time>2026-03-29T09:24:50.201Z</time></trkpt><trkpt lat="41.7356467" lon="13.71106"><ele>865.0</ele><time>2026-03-29T09:24:59.201Z</time></trkpt><trkpt lat="41.73567" lon="13.710945"><ele>860.0</ele><time>2026-03-29T09:25:01.201Z</time></trkpt><trkpt lat="41.735695" lon="13.7108617"><ele>856.0</ele><time>2026-03-29T09:25:03.201Z</time></trkpt><trkpt lat="41.73571" lon="13.7107117"><ele>852.0</ele><time>2026-03-29T09:25:05.201Z</time></trkpt><trkpt lat="41.7356883" lon="13.7105417"><ele>848.0</ele><time>2026-03-29T09:25:07.201Z</time></trkpt><trkpt lat="41.735675" lon="13.710415"><ele>844.0</ele><time>2026-03-29T09:25:09.201Z</time></trkpt><trkpt lat="41.7356383" lon="13.7102733"><ele>840.0</ele><time>2026-03-29T09:25:11.201Z</time></trkpt><trkpt lat="41.735605" lon="13.710175"><ele>838.2</ele><time>2026-03-29T09:25:12.201Z</time></trkpt><trkpt lat="41.7355567" lon="13.7100583"><ele>836.4</ele><time>2026-03-29T09:25:14.201Z</time></trkpt><trkpt lat="41.7355017" lon="13.7099867"><ele>834.5999999999999</ele><time>2026-03-29T09:25:16.201Z</time></trkpt><trkpt lat="41.7354333" lon="13.709875"><ele>832.8</ele><time>2026-03-29T09:25:18.201Z</time></trkpt><trkpt lat="41.7353717" lon="13.7097933"><ele>831.0</ele><time>2026-03-29T09:25:20.201Z</time></trkpt><trkpt lat="41.7353117" lon="13.7097117"><ele>831.0</ele><time>2026-03-29T09:25:22.201Z</time></trkpt><trkpt lat="41.7352517" lon="13.7096483"><ele>831.0</ele><time>2026-03-29T09:25:24.201Z</time></trkpt><trkpt lat="41.7352" lon="13.7095667"><ele>831.0</ele><time>2026-03-29T09:25:26.201Z</time></trkpt><trkpt lat="41.7351233" lon="13.7094333"><ele>831.0</ele><time>2026-03-29T09:25:28.202Z</time></trkpt><trkpt lat="41.735075" lon="13.709275"><ele>831.0</ele><time>2026-03-29T09:25:30.201Z</time></trkpt><trkpt lat="41.7350267" lon="13.70915"><ele>830.5999999999999</ele><time>2026-03-29T09:25:32.201Z</time></trkpt><trkpt lat="41.7349983" lon="13.7090567"><ele>830.2</ele><time>2026-03-29T09:25:34.201Z</time></trkpt><trkpt lat="41.7350817" lon="13.7088967"><ele>829.8</ele><time>2026-03-29T09:25:48.201Z</time></trkpt><trkpt lat="41.7351233" lon="13.7087717"><ele>829.4000000000001</ele><time>2026-03-29T09:25:54.201Z</time></trkpt><trkpt lat="41.7351383" lon="13.7086533"><ele>829.0</ele><time>2026-03-29T09:25:58.201Z</time></trkpt><trkpt lat="41.7351783" lon="13.7085633"><ele>829.0</ele><time>2026-03-29T09:25:59.201Z</time></trkpt><trkpt lat="41.7351933" lon="13.70838"><ele>829.0</ele><time>2026-03-29T09:26:01.201Z</time></trkpt><trkpt lat="41.7351967" lon="13.70827"><ele>829.0</ele><time>2026-03-29T09:26:02.201Z</time></trkpt><trkpt lat="41.735225" lon="13.7081233"><ele>829.0</ele><time>2026-03-29T09:26:04.202Z</time></trkpt><trkpt lat="41.7352383" lon="13.70803"><ele>829.0</ele><time>2026-03-29T09:26:05.202Z</time></trkpt><trkpt lat="41.735245" lon="13.7079333"><ele>827.2</ele><time>2026-03-29T09:26:06.202Z</time></trkpt><trkpt lat="41.7352467" lon="13.7078417"><ele>825.4000000000001</ele><time>2026-03-29T09:26:08.201Z</time></trkpt><trkpt lat="41.7352933" lon="13.7077033"><ele>823.6</ele><time>2026-03-29T09:26:11.201Z</time></trkpt><trkpt lat="41.7353183" lon="13.707595"><ele>821.8</ele><time>2026-03-29T09:26:13.201Z</time></trkpt><trkpt lat="41.7353217" lon="13.7074783"><ele>820.0</ele><time>2026-03-29T09:26:15.201Z</time></trkpt><trkpt lat="41.73537" lon="13.7072883"><ele>816.5</ele><time>2026-03-29T09:26:17.201Z</time></trkpt><trkpt lat="41.7354233" lon="13.7071567"><ele>813.0</ele><time>2026-03-29T09:26:19.201Z</time></trkpt><trkpt lat="41.7354083" lon="13.7069883"><ele>809.5</ele><time>2026-03-29T09:26:21.201Z</time></trkpt><trkpt lat="41.7353667" lon="13.7068"><ele>806.0</ele><time>2026-03-29T09:26:22.201Z</time></trkpt><trkpt lat="41.73535" lon="13.7066983"><ele>807.0</ele><time>2026-03-29T09:26:23.202Z</time></trkpt><trkpt lat="41.735325" lon="13.7065983"><ele>808.0</ele><time>2026-03-29T09:26:24.201Z</time></trkpt><trkpt lat="41.7352883" lon="13.706465"><ele>809.0</ele><time>2026-03-29T09:26:25.201Z</time></trkpt><trkpt lat="41.7352567" lon="13.7063367"><ele>810.0</ele><time>2026-03-29T09:26:26.201Z</time></trkpt><trkpt lat="41.73522" lon="13.7062083"><ele>811.0</ele><time>2026-03-29T09:26:27.202Z</time></trkpt><trkpt lat="41.7352183" lon="13.70611"><ele>810.3333333333333</ele><time>2026-03-29T09:26:28.201Z</time></trkpt><trkpt lat="41.73521" lon="13.7060183"><ele>809.6666666666666</ele><time>2026-03-29T09:26:29.201Z</time></trkpt><trkpt lat="41.7351967" lon="13.70587"><ele>809.0</ele><time>2026-03-29T09:26:31.201Z</time></trkpt><trkpt lat="41.7351883" lon="13.7057583"><ele>808.3333333333333</ele><time>2026-03-29T09:26:33.201Z</time></trkpt><trkpt lat="41.73517" lon="13.705665"><ele>807.6666666666666</ele><time>2026-03-29T09:26:35.201Z</time></trkpt><trkpt lat="41.7351533" lon="13.7055167"><ele>807.0</ele><time>2026-03-29T09:26:37.202Z</time></trkpt><trkpt lat="41.7351467" lon="13.7054167"><ele>807.0</ele><time>2026-03-29T09:26:38.201Z</time></trkpt><trkpt lat="41.73513" lon="13.7052767"><ele>807.0</ele><time>2026-03-29T09:26:43.202Z</time></trkpt><trkpt lat="41.7351417" lon="13.7050883"><ele>807.0</ele><time>2026-03-29T09:26:44.201Z</time></trkpt><trkpt lat="41.73525" lon="13.7042567"><ele>797.5</ele><time>2026-03-29T09:26:47.632Z</time></trkpt><trkpt lat="41.735145" lon="13.7042367"><ele>788.0</ele><time>2026-03-29T09:26:48.132Z</time></trkpt><trkpt lat="41.7352" lon="13.7041283"><ele>778.5</ele><time>2026-03-29T09:26:50.702Z</time></trkpt><trkpt lat="41.7352883" lon="13.7039133"><ele>769.0</ele><time>2026-03-29T09:27:57.202Z</time></trkpt><trkpt lat="41.7352233" lon="13.70391"><ele>769.2</ele><time>2026-03-29T09:28:14.202Z</time></trkpt><trkpt lat="41.735245" lon="13.704025"><ele>769.4000000000001</ele><time>2026-03-29T09:28:48.203Z</time></trkpt><trkpt lat="41.7353367" lon="13.7041167"><ele>769.6</ele><time>2026-03-29T09:28:50.202Z</time></trkpt><trkpt lat="41.7354133" lon="13.7042183"><ele>769.8</ele><time>2026-03-29T09:28:52.202Z</time></trkpt><trkpt lat="41.7354917" lon="13.70436"><ele>770.0</ele><time>2026-03-29T09:28:54.202Z</time></trkpt><trkpt lat="41.7355333" lon="13.704465"><ele>770.0000000000001</ele><time>2026-03-29T09:28:55.203Z</time></trkpt><trkpt lat="41.7355783" lon="13.7045683"><ele>770.0</ele><time>2026-03-29T09:28:56.202Z</time></trkpt><trkpt lat="41.7356117" lon="13.70466"><ele>770.0</ele><time>2026-03-29T09:28:57.202Z</time></trkpt><trkpt lat="41.7356317" lon="13.7047517"><ele>770.0</ele><time>2026-03-29T09:28:58.202Z</time></trkpt><trkpt lat="41.7356367" lon="13.7048433"><ele>770.0000000000001</ele><time>2026-03-29T09:28:59.202Z</time></trkpt><trkpt lat="41.73563" lon="13.7049367"><ele>770.0</ele><time>2026-03-29T09:29:00.202Z</time></trkpt><trkpt lat="41.7356167" lon="13.705095"><ele>770.0</ele><time>2026-03-29T09:29:02.203Z</time></trkpt><trkpt lat="41.7356083" lon="13.7051883"><ele>770.0</ele><time>2026-03-29T09:29:03.202Z</time></trkpt><trkpt lat="41.7355967" lon="13.7052883"><ele>770.0</ele><time>2026-03-29T09:29:04.202Z</time></trkpt><trkpt lat="41.7355883" lon="13.7053733"><ele>770.0</ele><time>2026-03-29T09:29:05.202Z</time></trkpt><trkpt lat="41.735585" lon="13.7054667"><ele>770.0</ele><time>2026-03-29T09:29:06.202Z</time></trkpt><trkpt lat="41.7355833" lon="13.705555"><ele>770.0</ele><time>2026-03-29T09:29:07.202Z</time></trkpt><trkpt lat="41.7355883" lon="13.70564"><ele>770.0</ele><time>2026-03-29T09:29:08.202Z</time></trkpt><trkpt lat="41.7355867" lon="13.7057967"><ele>772.0</ele><time>2026-03-29T09:29:10.202Z</time></trkpt><trkpt lat="41.7355633" lon="13.70594"><ele>774.0</ele><time>2026-03-29T09:29:12.202Z</time></trkpt><trkpt lat="41.735515" lon="13.7060817"><ele>776.0</ele><time>2026-03-29T09:29:14.203Z</time></trkpt><trkpt lat="41.7354917" lon="13.7061767"><ele>778.0</ele><time>2026-03-29T09:29:15.202Z</time></trkpt><trkpt lat="41.735465" lon="13.70627"><ele>780.0</ele><time>2026-03-29T09:29:16.202Z</time></trkpt><trkpt lat="41.73541" lon="13.7064483"><ele>781.6666666666666</ele><time>2026-03-29T09:29:18.202Z</time></trkpt><trkpt lat="41.7353633" lon="13.7065983"><ele>783.3333333333333</ele><time>2026-03-29T09:29:20.202Z</time></trkpt><trkpt lat="41.7353233" lon="13.706685"><ele>785.0</ele><time>2026-03-29T09:29:21.202Z</time></trkpt><trkpt lat="41.7352817" lon="13.70678"><ele>786.6666666666666</ele><time>2026-03-29T09:29:22.202Z</time></trkpt><trkpt lat="41.7352433" lon="13.706875"><ele>788.3333333333333</ele><time>2026-03-29T09:29:23.202Z</time></trkpt><trkpt lat="41.7352083" lon="13.7069833"><ele>790.0</ele><time>2026-03-29T09:29:24.202Z</time></trkpt><trkpt lat="41.7351833" lon="13.7071033"><ele>794.8</ele><time>2026-03-29T09:29:25.202Z</time></trkpt><trkpt lat="41.7351583" lon="13.7072"><ele>799.6</ele><time>2026-03-29T09:29:26.202Z</time></trkpt><trkpt lat="41.73514" lon="13.7072967"><ele>804.4000000000001</ele><time>2026-03-29T09:29:27.202Z</time></trkpt><trkpt lat="41.7351167" lon="13.7073983"><ele>809.2</ele><time>2026-03-29T09:29:28.202Z</time></trkpt><trkpt lat="41.7351017" lon="13.7075233"><ele>814.0</ele><time>2026-03-29T09:29:29.202Z</time></trkpt><trkpt lat="41.73511" lon="13.7077117"><ele>814.9999999999999</ele><time>2026-03-29T09:29:31.202Z</time></trkpt><trkpt lat="41.735125" lon="13.7078117"><ele>816.0</ele><time>2026-03-29T09:29:32.202Z</time></trkpt><trkpt lat="41.7351383" lon="13.707935"><ele>817.0</ele><time>2026-03-29T09:29:33.202Z</time></trkpt><trkpt lat="41.7351683" lon="13.7080533"><ele>818.0</ele><time>2026-03-29T09:29:34.202Z</time></trkpt><trkpt lat="41.735195" lon="13.7081517"><ele>818.9999999999999</ele><time>2026-03-29T09:29:35.202Z</time></trkpt><trkpt lat="41.7352233" lon="13.7082417"><ele>820.0</ele><time>2026-03-29T09:29:36.202Z</time></trkpt><trkpt lat="41.7352667" lon="13.7083217"><ele>820.0</ele><time>2026-03-29T09:29:37.202Z</time></trkpt><trkpt lat="41.7353067" lon="13.7083917"><ele>820.0</ele><time>2026-03-29T09:29:38.203Z</time></trkpt><trkpt lat="41.7353917" lon="13.7085117"><ele>820.0</ele><time>2026-03-29T09:29:40.202Z</time></trkpt><trkpt lat="41.735435" lon="13.708605"><ele>820.0</ele><time>2026-03-29T09:29:41.202Z</time></trkpt><trkpt lat="41.7354717" lon="13.7087383"><ele>820.0</ele><time>2026-03-29T09:29:43.202Z</time></trkpt><trkpt lat="41.7354867" lon="13.7089283"><ele>820.6666666666666</ele><time>2026-03-29T09:29:45.202Z</time></trkpt><trkpt lat="41.735495" lon="13.7090433"><ele>821.3333333333333</ele><time>2026-03-29T09:29:46.202Z</time></trkpt><trkpt lat="41.73549" lon="13.709145"><ele>822.0</ele><time>2026-03-29T09:29:47.202Z</time></trkpt><trkpt lat="41.7354733" lon="13.7092283"><ele>822.6666666666667</ele><time>2026-03-29T09:29:48.202Z</time></trkpt><trkpt lat="41.735455" lon="13.7093183"><ele>823.3333333333334</ele><time>2026-03-29T09:29:49.202Z</time></trkpt><trkpt lat="41.7354317" lon="13.7094383"><ele>824.0</ele><time>2026-03-29T09:29:51.202Z</time></trkpt><trkpt lat="41.735455" lon="13.7095717"><ele>825.4000000000001</ele><time>2026-03-29T09:29:55.202Z</time></trkpt><trkpt lat="41.7354967" lon="13.7096967"><ele>826.8</ele><time>2026-03-29T09:30:00.202Z</time></trkpt><trkpt lat="41.7355383" lon="13.7099017"><ele>828.2</ele><time>2026-03-29T09:30:12.202Z</time></trkpt><trkpt lat="41.735525" lon="13.709985"><ele>829.5999999999999</ele><time>2026-03-29T09:30:13.202Z</time></trkpt><trkpt lat="41.7355133" lon="13.7100933"><ele>831.0</ele><time>2026-03-29T09:30:16.202Z</time></trkpt><trkpt lat="41.735485" lon="13.71024"><ele>831.0</ele><time>2026-03-29T09:30:17.202Z</time></trkpt><trkpt lat="41.7355183" lon="13.7104133"><ele>831.0</ele><time>2026-03-29T09:30:29.202Z</time></trkpt><trkpt lat="41.7355667" lon="13.7105383"><ele>831.0</ele><time>2026-03-29T09:30:45.202Z</time></trkpt><trkpt lat="41.7356467" lon="13.7104233"><ele>831.0</ele><time>2026-03-29T09:31:36.202Z</time></trkpt><trkpt lat="41.735645" lon="13.7103083"><ele>831.0</ele><time>2026-03-29T09:31:38.202Z</time></trkpt><trkpt lat="41.735655" lon="13.7102117"><ele>831.0</ele><time>2026-03-29T09:31:40.202Z</time></trkpt><trkpt lat="41.7356533" lon="13.7100967"><ele>831.0</ele><time>2026-03-29T09:31:43.202Z</time></trkpt><trkpt lat="41.735635" lon="13.70999"><ele>831.0</ele><time>2026-03-29T09:31:45.202Z</time></trkpt><trkpt lat="41.7356133" lon="13.709875"><ele>831.0</ele><time>2026-03-29T09:31:47.203Z</time></trkpt><trkpt lat="41.735575" lon="13.7097383"><ele>831.0</ele><time>2026-03-29T09:31:49.202Z</time></trkpt><trkpt lat="41.7355167" lon="13.7096483"><ele>831.0</ele><time>2026-03-29T09:31:51.203Z</time></trkpt><trkpt lat="41.73545" lon="13.7095567"><ele>831.0</ele><time>2026-03-29T09:31:52.202Z</time></trkpt><trkpt lat="41.735405" lon="13.7094817"><ele>831.0</ele><time>2026-03-29T09:31:54.202Z</time></trkpt><trkpt lat="41.7353433" lon="13.7093867"><ele>831.0</ele><time>2026-03-29T09:31:56.202Z</time></trkpt><trkpt lat="41.7352883" lon="13.7092667"><ele>831.0</ele><time>2026-03-29T09:31:58.202Z</time></trkpt><trkpt lat="41.73522" lon="13.709125"><ele>830.6666666666666</ele><time>2026-03-29T09:32:00.202Z</time></trkpt><trkpt lat="41.7351717" lon="13.7089967"><ele>830.3333333333333</ele><time>2026-03-29T09:32:02.202Z</time></trkpt><trkpt lat="41.7351683" lon="13.708905"><ele>830.0</ele><time>2026-03-29T09:32:03.202Z</time></trkpt><trkpt lat="41.7351767" lon="13.7088167"><ele>829.6666666666666</ele><time>2026-03-29T09:32:04.202Z</time></trkpt><trkpt lat="41.735175" lon="13.708715"><ele>829.3333333333333</ele><time>2026-03-29T09:32:05.202Z</time></trkpt><trkpt lat="41.7351783" lon="13.7086083"><ele>829.0</ele><time>2026-03-29T09:32:06.202Z</time></trkpt><trkpt lat="41.7352" lon="13.70843"><ele>827.4999999999999</ele><time>2026-03-29T09:32:08.202Z</time></trkpt><trkpt lat="41.7352217" lon="13.7083133"><ele>826.0</ele><time>2026-03-29T09:32:09.202Z</time></trkpt><trkpt lat="41.735255" lon="13.7082"><ele>824.5</ele><time>2026-03-29T09:32:10.202Z</time></trkpt><trkpt lat="41.73529" lon="13.7080967"><ele>823.0</ele><time>2026-03-29T09:32:11.202Z</time></trkpt><trkpt lat="41.7353233" lon="13.7080067"><ele>821.4999999999999</ele><time>2026-03-29T09:32:12.202Z</time></trkpt><trkpt lat="41.73535" lon="13.7079033"><ele>820.0</ele><time>2026-03-29T09:32:13.202Z</time></trkpt><trkpt lat="41.7353767" lon="13.7078183"><ele>817.6666666666666</ele><time>2026-03-29T09:32:14.202Z</time></trkpt><trkpt lat="41.7354017" lon="13.7077283"><ele>815.3333333333333</ele><time>2026-03-29T09:32:15.202Z</time></trkpt><trkpt lat="41.7354333" lon="13.7076433"><ele>813.0</ele><time>2026-03-29T09:32:16.202Z</time></trkpt><trkpt lat="41.73549" lon="13.7074933"><ele>810.6666666666667</ele><time>2026-03-29T09:32:18.202Z</time></trkpt><trkpt lat="41.735505" lon="13.707395"><ele>808.3333333333334</ele><time>2026-03-29T09:32:19.202Z</time></trkpt><trkpt lat="41.735505" lon="13.7072783"><ele>806.0</ele><time>2026-03-29T09:32:20.202Z</time></trkpt><trkpt lat="41.735495" lon="13.707185"><ele>806.0</ele><time>2026-03-29T09:32:21.202Z</time></trkpt><trkpt lat="41.7355017" lon="13.70701"><ele>806.0</ele><time>2026-03-29T09:32:23.202Z</time></trkpt><trkpt lat="41.7354933" lon="13.7069217"><ele>806.0</ele><time>2026-03-29T09:32:24.202Z</time></trkpt><trkpt lat="41.7354833" lon="13.7068033"><ele>806.0</ele><time>2026-03-29T09:32:25.202Z</time></trkpt><trkpt lat="41.7354783" lon="13.7066983"><ele>806.0</ele><time>2026-03-29T09:32:26.202Z</time></trkpt><trkpt lat="41.7354683" lon="13.706585"><ele>802.8</ele><time>2026-03-29T09:32:27.202Z</time></trkpt><trkpt lat="41.73547" lon="13.7064483"><ele>799.5999999999999</ele><time>2026-03-29T09:32:29.202Z</time></trkpt><trkpt lat="41.7354617" lon="13.706345"><ele>796.4</ele><time>2026-03-29T09:32:30.203Z</time></trkpt><trkpt lat="41.7354633" lon="13.7061183"><ele>793.2</ele><time>2026-03-29T09:32:32.202Z</time></trkpt><trkpt lat="41.7354433" lon="13.706015"><ele>790.0</ele><time>2026-03-29T09:32:33.202Z</time></trkpt><trkpt lat="41.7354317" lon="13.705895"><ele>788.3333333333333</ele><time>2026-03-29T09:32:34.202Z</time></trkpt><trkpt lat="41.735395" lon="13.7057983"><ele>786.6666666666666</ele><time>2026-03-29T09:32:35.202Z</time></trkpt><trkpt lat="41.73536" lon="13.705705"><ele>785.0</ele><time>2026-03-29T09:32:36.202Z</time></trkpt><trkpt lat="41.7353283" lon="13.7055867"><ele>783.3333333333333</ele><time>2026-03-29T09:32:37.202Z</time></trkpt><trkpt lat="41.7352933" lon="13.7054817"><ele>781.6666666666666</ele><time>2026-03-29T09:32:38.202Z</time></trkpt><trkpt lat="41.7352583" lon="13.7053517"><ele>780.0</ele><time>2026-03-29T09:32:39.202Z</time></trkpt><trkpt lat="41.7352433" lon="13.7052583"><ele>778.0</ele><time>2026-03-29T09:32:40.202Z</time></trkpt><trkpt lat="41.7352283" lon="13.705125"><ele>776.0</ele><time>2026-03-29T09:32:41.202Z</time></trkpt><trkpt lat="41.7352233" lon="13.7049717"><ele>774.0</ele><time>2026-03-29T09:32:43.202Z</time></trkpt><trkpt lat="41.73523" lon="13.7048667"><ele>772.0</ele><time>2026-03-29T09:32:44.202Z</time></trkpt><trkpt lat="41.7352467" lon="13.7047117"><ele>770.0</ele><time>2026-03-29T09:32:47.202Z</time></trkpt><trkpt lat="41.7352617" lon="13.7045383"><ele>769.75</ele><time>2026-03-29T09:32:48.202Z</time></trkpt><trkpt lat="41.73527" lon="13.7043967"><ele>769.5</ele><time>2026-03-29T09:32:50.203Z</time></trkpt><trkpt lat="41.7352783" lon="13.704205"><ele>769.25</ele><time>2026-03-29T09:32:53.202Z</time></trkpt><trkpt lat="41.735265" lon="13.7041183"><ele>769.0</ele><time>2026-03-29T09:32:55.202Z</time></trkpt><trkpt lat="41.7352183" lon="13.70394"><ele>768.9999999999999</ele><time>2026-03-29T09:33:00.202Z</time></trkpt><trkpt lat="41.73516" lon="13.703865"><ele>769.0</ele><time>2026-03-29T09:33:15.203Z</time></trkpt><trkpt lat="41.73509" lon="13.7038033"><ele>769.0</ele><time>2026-03-29T09:33:17.202Z</time></trkpt><trkpt lat="41.73502" lon="13.703725"><ele>769.0</ele><time>2026-03-29T09:33:19.202Z</time></trkpt><trkpt lat="41.7349683" lon="13.7036483"><ele>768.9999999999999</ele><time>2026-03-29T09:33:21.202Z</time></trkpt><trkpt lat="41.7349183" lon="13.7035867"><ele>769.0</ele><time>2026-03-29T09:33:23.203Z</time></trkpt><trkpt lat="41.734855" lon="13.7034817"><ele>764.8000000000001</ele><time>2026-03-29T09:33:25.202Z</time></trkpt><trkpt lat="41.7347783" lon="13.7033683"><ele>760.6</ele><time>2026-03-29T09:33:27.202Z</time></trkpt><trkpt lat="41.7347033" lon="13.70325"><ele>756.4</ele><time>2026-03-29T09:33:29.202Z</time></trkpt><trkpt lat="41.7346233" lon="13.7031367"><ele>752.2</ele><time>2026-03-29T09:33:31.202Z</time></trkpt><trkpt lat="41.734565" lon="13.7030317"><ele>748.0</ele><time>2026-03-29T09:33:32.202Z</time></trkpt><trkpt lat="41.7345" lon="13.7029217"><ele>748.0</ele><time>2026-03-29T09:33:33.202Z</time></trkpt><trkpt lat="41.7344583" lon="13.7028467"><ele>748.0</ele><time>2026-03-29T09:33:34.203Z</time></trkpt><trkpt lat="41.7343933" lon="13.70271"><ele>748.0</ele><time>2026-03-29T09:33:36.202Z</time></trkpt><trkpt lat="41.7343483" lon="13.7026217"><ele>748.0</ele><time>2026-03-29T09:33:37.202Z</time></trkpt><trkpt lat="41.7343067" lon="13.7025383"><ele>748.0</ele><time>2026-03-29T09:33:38.202Z</time></trkpt><trkpt lat="41.73427" lon="13.7024517"><ele>748.0</ele><time>2026-03-29T09:33:39.202Z</time></trkpt><trkpt lat="41.7342" lon="13.7023067"><ele>746.6666666666667</ele><time>2026-03-29T09:33:40.202Z</time></trkpt><trkpt lat="41.7341317" lon="13.7021883"><ele>745.3333333333334</ele><time>2026-03-29T09:33:41.202Z</time></trkpt><trkpt lat="41.7340967" lon="13.702095"><ele>744.0</ele><time>2026-03-29T09:33:42.202Z</time></trkpt><trkpt lat="41.734065" lon="13.7019833"><ele>742.6666666666666</ele><time>2026-03-29T09:33:43.202Z</time></trkpt><trkpt lat="41.7340333" lon="13.7019"><ele>741.3333333333333</ele><time>2026-03-29T09:33:44.202Z</time></trkpt><trkpt lat="41.734005" lon="13.7018167"><ele>740.0</ele><time>2026-03-29T09:33:45.202Z</time></trkpt><trkpt lat="41.7339483" lon="13.7016583"><ele>737.1666666666666</ele><time>2026-03-29T09:33:47.202Z</time></trkpt><trkpt lat="41.733915" lon="13.7015617"><ele>734.3333333333333</ele><time>2026-03-29T09:33:48.202Z</time></trkpt><trkpt lat="41.7338767" lon="13.701465"><ele>731.5</ele><time>2026-03-29T09:33:49.202Z</time></trkpt><trkpt lat="41.733835" lon="13.70136"><ele>728.6666666666666</ele><time>2026-03-29T09:33:50.203Z</time></trkpt><trkpt lat="41.733795" lon="13.7012783"><ele>725.8333333333334</ele><time>2026-03-29T09:33:51.202Z</time></trkpt><trkpt lat="41.73375" lon="13.7011733"><ele>723.0</ele><time>2026-03-29T09:33:52.202Z</time></trkpt><trkpt lat="41.7336683" lon="13.7009917"><ele>721.5</ele><time>2026-03-29T09:33:54.202Z</time></trkpt><trkpt lat="41.733625" lon="13.7009"><ele>720.0</ele><time>2026-03-29T09:33:55.202Z</time></trkpt><trkpt lat="41.73358" lon="13.7008167"><ele>718.5</ele><time>2026-03-29T09:33:56.202Z</time></trkpt><trkpt lat="41.7335267" lon="13.7007267"><ele>717.0</ele><time>2026-03-29T09:33:57.202Z</time></trkpt><trkpt lat="41.7334917" lon="13.700635"><ele>715.5</ele><time>2026-03-29T09:33:58.202Z</time></trkpt><trkpt lat="41.7334483" lon="13.7005567"><ele>714.0</ele><time>2026-03-29T09:33:59.202Z</time></trkpt><trkpt lat="41.7334" lon="13.7004933"><ele>714.0</ele><time>2026-03-29T09:34:00.202Z</time></trkpt><trkpt lat="41.7333483" lon="13.70042"><ele>714.0</ele><time>2026-03-29T09:34:01.202Z</time></trkpt><trkpt lat="41.73331" lon="13.700345"><ele>714.0</ele><time>2026-03-29T09:34:02.202Z</time></trkpt><trkpt lat="41.7332633" lon="13.7002567"><ele>714.0</ele><time>2026-03-29T09:34:03.202Z</time></trkpt><trkpt lat="41.733225" lon="13.7001567"><ele>714.0</ele><time>2026-03-29T09:34:04.202Z</time></trkpt><trkpt lat="41.7331817" lon="13.700055"><ele>714.0</ele><time>2026-03-29T09:34:05.202Z</time></trkpt><trkpt lat="41.733135" lon="13.69994"><ele>709.8333333333334</ele><time>2026-03-29T09:34:06.202Z</time></trkpt><trkpt lat="41.733095" lon="13.6998417"><ele>705.6666666666666</ele><time>2026-03-29T09:34:07.202Z</time></trkpt><trkpt lat="41.7330567" lon="13.699755"><ele>701.5</ele><time>2026-03-29T09:34:08.202Z</time></trkpt><trkpt lat="41.7330283" lon="13.6996683"><ele>697.3333333333333</ele><time>2026-03-29T09:34:09.202Z</time></trkpt><trkpt lat="41.7329683" lon="13.6994933"><ele>693.1666666666666</ele><time>2026-03-29T09:34:11.202Z</time></trkpt><trkpt lat="41.7329517" lon="13.6994117"><ele>689.0</ele><time>2026-03-29T09:34:12.202Z</time></trkpt><trkpt lat="41.7329067" lon="13.699345"><ele>687.4000000000001</ele><time>2026-03-29T09:34:13.202Z</time></trkpt><trkpt lat="41.73284" lon="13.699275"><ele>685.8</ele><time>2026-03-29T09:34:14.202Z</time></trkpt><trkpt lat="41.73276" lon="13.6992183"><ele>684.2</ele><time>2026-03-29T09:34:15.202Z</time></trkpt><trkpt lat="41.7326817" lon="13.6991833"><ele>682.5999999999999</ele><time>2026-03-29T09:34:16.202Z</time></trkpt><trkpt lat="41.7326" lon="13.699135"><ele>681.0</ele><time>2026-03-29T09:34:17.202Z</time></trkpt><trkpt lat="41.7325067" lon="13.6990667"><ele>679.4</ele><time>2026-03-29T09:34:18.202Z</time></trkpt><trkpt lat="41.732425" lon="13.6989783"><ele>677.8</ele><time>2026-03-29T09:34:19.202Z</time></trkpt><trkpt lat="41.7323367" lon="13.6988717"><ele>676.1999999999999</ele><time>2026-03-29T09:34:20.202Z</time></trkpt><trkpt lat="41.7322633" lon="13.69877"><ele>674.5999999999999</ele><time>2026-03-29T09:34:21.202Z</time></trkpt><trkpt lat="41.7321967" lon="13.6986933"><ele>673.0</ele><time>2026-03-29T09:34:22.202Z</time></trkpt><trkpt lat="41.73214" lon="13.6986317"><ele>672.2</ele><time>2026-03-29T09:34:23.202Z</time></trkpt><trkpt lat="41.732085" lon="13.6985817"><ele>671.4</ele><time>2026-03-29T09:34:24.202Z</time></trkpt><trkpt lat="41.7319833" lon="13.698495"><ele>670.6</ele><time>2026-03-29T09:34:26.202Z</time></trkpt><trkpt lat="41.73191" lon="13.6983867"><ele>669.8000000000001</ele><time>2026-03-29T09:34:28.202Z</time></trkpt><trkpt lat="41.7318583" lon="13.6982983"><ele>669.0</ele><time>2026-03-29T09:34:30.202Z</time></trkpt><trkpt lat="41.73185" lon="13.6981883"><ele>669.0</ele><time>2026-03-29T09:34:33.202Z</time></trkpt><trkpt lat="41.73191" lon="13.6981567"><ele>669.0</ele><time>2026-03-29T09:34:35.202Z</time></trkpt><trkpt lat="41.73196" lon="13.698095"><ele>669.0</ele><time>2026-03-29T09:34:37.202Z</time></trkpt><trkpt lat="41.73198" lon="13.6980017"><ele>669.0</ele><time>2026-03-29T09:34:39.202Z</time></trkpt><trkpt lat="41.7319483" lon="13.697885"><ele>669.0</ele><time>2026-03-29T09:34:41.202Z</time></trkpt><trkpt lat="41.73195" lon="13.6977517"><ele>669.0</ele><time>2026-03-29T09:34:43.202Z</time></trkpt><trkpt lat="41.73196" lon="13.6976583"><ele>668.3333333333334</ele><time>2026-03-29T09:34:44.202Z</time></trkpt><trkpt lat="41.7319817" lon="13.6975183"><ele>667.6666666666666</ele><time>2026-03-29T09:34:46.203Z</time></trkpt><trkpt lat="41.7319933" lon="13.697375"><ele>667.0</ele><time>2026-03-29T09:34:48.202Z</time></trkpt><trkpt lat="41.73198" lon="13.6972817"><ele>666.3333333333333</ele><time>2026-03-29T09:34:49.203Z</time></trkpt><trkpt lat="41.7319667" lon="13.697195"><ele>665.6666666666666</ele><time>2026-03-29T09:34:50.202Z</time></trkpt><trkpt lat="41.731945" lon="13.6971117"><ele>665.0</ele><time>2026-03-29T09:34:51.203Z</time></trkpt><trkpt lat="41.7318867" lon="13.6970133"><ele>661.4</ele><time>2026-03-29T09:34:53.202Z</time></trkpt><trkpt lat="41.73182" lon="13.6969967"><ele>657.8</ele><time>2026-03-29T09:34:55.202Z</time></trkpt><trkpt lat="41.7317233" lon="13.6969567"><ele>654.2</ele><time>2026-03-29T09:35:12.625Z</time></trkpt><trkpt lat="41.7316583" lon="13.69691"><ele>650.6</ele><time>2026-03-29T09:35:19.201Z</time></trkpt><trkpt lat="41.731545" lon="13.6967917"><ele>647.0</ele><time>2026-03-29T09:39:58.201Z</time></trkpt><trkpt lat="41.731435" lon="13.6967917"><ele>643.75</ele><time>2026-03-29T09:40:00.201Z</time></trkpt><trkpt lat="41.7313367" lon="13.6968067"><ele>640.5</ele><time>2026-03-29T09:40:01.201Z</time></trkpt><trkpt lat="41.7312233" lon="13.6968233"><ele>637.25</ele><time>2026-03-29T09:40:02.201Z</time></trkpt><trkpt lat="41.7310967" lon="13.6968317"><ele>634.0</ele><time>2026-03-29T09:40:03.201Z</time></trkpt><trkpt lat="41.7309733" lon="13.6968283"><ele>632.25</ele><time>2026-03-29T09:40:04.201Z</time></trkpt><trkpt lat="41.7308417" lon="13.6967983"><ele>630.5</ele><time>2026-03-29T09:40:05.201Z</time></trkpt><trkpt lat="41.73072" lon="13.6967267"><ele>628.75</ele><time>2026-03-29T09:40:06.201Z</time></trkpt><trkpt lat="41.7306067" lon="13.69664"><ele>627.0</ele><time>2026-03-29T09:40:07.201Z</time></trkpt><trkpt lat="41.7305067" lon="13.6965417"><ele>627.0</ele><time>2026-03-29T09:40:08.201Z</time></trkpt><trkpt lat="41.7304217" lon="13.69646"><ele>627.0</ele><time>2026-03-29T09:40:09.201Z</time></trkpt><trkpt lat="41.730345" lon="13.6963633"><ele>627.0</ele><time>2026-03-29T09:40:10.202Z</time></trkpt><trkpt lat="41.73027" lon="13.6962733"><ele>627.0</ele><time>2026-03-29T09:40:11.201Z</time></trkpt><trkpt lat="41.73021" lon="13.6961717"><ele>627.0</ele><time>2026-03-29T09:40:12.201Z</time></trkpt><trkpt lat="41.7301667" lon="13.696085"><ele>625.1666666666666</ele><time>2026-03-29T09:40:13.201Z</time></trkpt><trkpt lat="41.7301283" lon="13.6960133"><ele>623.3333333333334</ele><time>2026-03-29T09:40:14.202Z</time></trkpt><trkpt lat="41.730035" lon="13.6959433"><ele>621.5</ele><time>2026-03-29T09:40:16.202Z</time></trkpt><trkpt lat="41.7299667" lon="13.69592"><ele>619.6666666666667</ele><time>2026-03-29T09:40:17.201Z</time></trkpt><trkpt lat="41.7298883" lon="13.6959183"><ele>617.8333333333334</ele><time>2026-03-29T09:40:18.201Z</time></trkpt><trkpt lat="41.7298067" lon="13.6959133"><ele>616.0</ele><time>2026-03-29T09:40:19.201Z</time></trkpt><trkpt lat="41.7297167" lon="13.6958917"><ele>616.0</ele><time>2026-03-29T09:40:20.201Z</time></trkpt><trkpt lat="41.72962" lon="13.69588"><ele>616.0</ele><time>2026-03-29T09:40:21.201Z</time></trkpt><trkpt lat="41.7295283" lon="13.6958667"><ele>616.0</ele><time>2026-03-29T09:40:22.201Z</time></trkpt><trkpt lat="41.7294567" lon="13.69587"><ele>616.0</ele><time>2026-03-29T09:40:23.201Z</time></trkpt><trkpt lat="41.729385" lon="13.6958717"><ele>616.0</ele><time>2026-03-29T09:40:24.201Z</time></trkpt><trkpt lat="41.729315" lon="13.6958817"><ele>616.0</ele><time>2026-03-29T09:40:25.201Z</time></trkpt><trkpt lat="41.7292717" lon="13.6959433"><ele>616.2</ele><time>2026-03-29T09:40:26.201Z</time></trkpt><trkpt lat="41.7292217" lon="13.696035"><ele>616.4000000000001</ele><time>2026-03-29T09:40:27.201Z</time></trkpt><trkpt lat="41.7291683" lon="13.6961367"><ele>616.6</ele><time>2026-03-29T09:40:28.201Z</time></trkpt><trkpt lat="41.7291267" lon="13.696245"><ele>616.8000000000001</ele><time>2026-03-29T09:40:29.201Z</time></trkpt><trkpt lat="41.72907" lon="13.696375"><ele>617.0</ele><time>2026-03-29T09:40:30.201Z</time></trkpt><trkpt lat="41.7290317" lon="13.6965017"><ele>619.6</ele><time>2026-03-29T09:40:31.201Z</time></trkpt><trkpt lat="41.728985" lon="13.6966183"><ele>622.2</ele><time>2026-03-29T09:40:32.201Z</time></trkpt><trkpt lat="41.72893" lon="13.696705"><ele>624.8</ele><time>2026-03-29T09:40:33.201Z</time></trkpt><trkpt lat="41.7288617" lon="13.69678"><ele>627.4</ele><time>2026-03-29T09:40:34.201Z</time></trkpt><trkpt lat="41.7287917" lon="13.6967833"><ele>630.0</ele><time>2026-03-29T09:40:35.201Z</time></trkpt><trkpt lat="41.7286883" lon="13.6967017"><ele>630.0</ele><time>2026-03-29T09:40:37.201Z</time></trkpt><trkpt lat="41.7286317" lon="13.6966333"><ele>630.0</ele><time>2026-03-29T09:40:38.201Z</time></trkpt><trkpt lat="41.72857" lon="13.6965583"><ele>630.0</ele><time>2026-03-29T09:40:39.201Z</time></trkpt><trkpt lat="41.72847" lon="13.6964567"><ele>630.0</ele><time>2026-03-29T09:40:40.201Z</time></trkpt><trkpt lat="41.728345" lon="13.6963483"><ele>630.0</ele><time>2026-03-29T09:40:41.201Z</time></trkpt><trkpt lat="41.7282117" lon="13.69624"><ele>631.75</ele><time>2026-03-29T09:40:42.201Z</time></trkpt><trkpt lat="41.7280783" lon="13.6961383"><ele>633.5</ele><time>2026-03-29T09:40:43.201Z</time></trkpt><trkpt lat="41.72795" lon="13.69605"><ele>635.25</ele><time>2026-03-29T09:40:44.201Z</time></trkpt><trkpt lat="41.7278283" lon="13.6959683"><ele>637.0</ele><time>2026-03-29T09:40:45.201Z</time></trkpt><trkpt lat="41.7277117" lon="13.6958917"><ele>637.0</ele><time>2026-03-29T09:40:46.201Z</time></trkpt><trkpt lat="41.7276067" lon="13.695825"><ele>637.0</ele><time>2026-03-29T09:40:47.201Z</time></trkpt><trkpt lat="41.727495" lon="13.6957667"><ele>637.0</ele><time>2026-03-29T09:40:48.201Z</time></trkpt><trkpt lat="41.7273767" lon="13.6957317"><ele>637.0</ele><time>2026-03-29T09:40:49.202Z</time></trkpt><trkpt lat="41.7272517" lon="13.6957217"><ele>637.0</ele><time>2026-03-29T09:40:50.201Z</time></trkpt><trkpt lat="41.7271383" lon="13.6957317"><ele>637.0</ele><time>2026-03-29T09:40:51.201Z</time></trkpt><trkpt lat="41.72704" lon="13.69575"><ele>637.0</ele><time>2026-03-29T09:40:52.201Z</time></trkpt><trkpt lat="41.7269517" lon="13.6957567"><ele>637.0</ele><time>2026-03-29T09:40:53.201Z</time></trkpt><trkpt lat="41.7268717" lon="13.6957667"><ele>637.0</ele><time>2026-03-29T09:40:54.201Z</time></trkpt><trkpt lat="41.726795" lon="13.695775"><ele>638.0</ele><time>2026-03-29T09:40:55.201Z</time></trkpt><trkpt lat="41.7267117" lon="13.6957917"><ele>639.0</ele><time>2026-03-29T09:40:56.201Z</time></trkpt><trkpt lat="41.7266117" lon="13.6958183"><ele>640.0</ele><time>2026-03-29T09:40:57.201Z</time></trkpt><trkpt lat="41.7264833" lon="13.6958767"><ele>641.0</ele><time>2026-03-29T09:40:58.202Z</time></trkpt><trkpt lat="41.7263467" lon="13.695945"><ele>641.0</ele><time>2026-03-29T09:40:59.201Z</time></trkpt><trkpt lat="41.72621" lon="13.6960067"><ele>641.0</ele><time>2026-03-29T09:41:00.201Z</time></trkpt><trkpt lat="41.7260683" lon="13.6960733"><ele>641.0</ele><time>2026-03-29T09:41:01.201Z</time></trkpt><trkpt lat="41.7259317" lon="13.696125"><ele>641.0</ele><time>2026-03-29T09:41:02.201Z</time></trkpt><trkpt lat="41.7258133" lon="13.69617"><ele>644.0</ele><time>2026-03-29T09:41:03.201Z</time></trkpt><trkpt lat="41.7257083" lon="13.6962167"><ele>647.0</ele><time>2026-03-29T09:41:04.201Z</time></trkpt><trkpt lat="41.7256217" lon="13.6962617"><ele>650.0</ele><time>2026-03-29T09:41:05.201Z</time></trkpt><trkpt lat="41.7255417" lon="13.69633"><ele>653.0</ele><time>2026-03-29T09:41:06.201Z</time></trkpt><trkpt lat="41.72546" lon="13.6964367"><ele>656.0</ele><time>2026-03-29T09:41:07.201Z</time></trkpt><trkpt lat="41.72538" lon="13.6965433"><ele>656.0</ele><time>2026-03-29T09:41:08.201Z</time></trkpt><trkpt lat="41.7253083" lon="13.6966567"><ele>656.0</ele><time>2026-03-29T09:41:09.201Z</time></trkpt><trkpt lat="41.7252433" lon="13.6967483"><ele>656.0</ele><time>2026-03-29T09:41:10.201Z</time></trkpt><trkpt lat="41.7251833" lon="13.6968317"><ele>656.0</ele><time>2026-03-29T09:41:11.201Z</time></trkpt><trkpt lat="41.7251267" lon="13.69691"><ele>656.0</ele><time>2026-03-29T09:41:12.201Z</time></trkpt><trkpt lat="41.7250583" lon="13.6969583"><ele>657.8333333333333</ele><time>2026-03-29T09:41:13.201Z</time></trkpt><trkpt lat="41.7249967" lon="13.6969817"><ele>659.6666666666666</ele><time>2026-03-29T09:41:14.201Z</time></trkpt><trkpt lat="41.7248917" lon="13.6970267"><ele>661.5</ele><time>2026-03-29T09:41:16.201Z</time></trkpt><trkpt lat="41.724825" lon="13.697005"><ele>663.3333333333334</ele><time>2026-03-29T09:41:17.201Z</time></trkpt><trkpt lat="41.7247483" lon="13.6969667"><ele>665.1666666666667</ele><time>2026-03-29T09:41:18.201Z</time></trkpt><trkpt lat="41.7246617" lon="13.6969233"><ele>667.0</ele><time>2026-03-29T09:41:19.201Z</time></trkpt><trkpt lat="41.724595" lon="13.696865"><ele>664.8333333333334</ele><time>2026-03-29T09:41:20.201Z</time></trkpt><trkpt lat="41.7245333" lon="13.6968183"><ele>662.6666666666667</ele><time>2026-03-29T09:41:21.201Z</time></trkpt><trkpt lat="41.7244633" lon="13.6967767"><ele>660.5</ele><time>2026-03-29T09:41:22.202Z</time></trkpt><trkpt lat="41.724385" lon="13.6967383"><ele>658.3333333333334</ele><time>2026-03-29T09:41:23.203Z</time></trkpt><trkpt lat="41.72429" lon="13.696725"><ele>656.1666666666666</ele><time>2026-03-29T09:41:24.202Z</time></trkpt><trkpt lat="41.7241967" lon="13.6967233"><ele>654.0</ele><time>2026-03-29T09:41:25.202Z</time></trkpt><trkpt lat="41.724105" lon="13.6967383"><ele>654.0</ele><time>2026-03-29T09:41:26.202Z</time></trkpt><trkpt lat="41.7240067" lon="13.6967567"><ele>654.0</ele><time>2026-03-29T09:41:27.202Z</time></trkpt><trkpt lat="41.72391" lon="13.6967933"><ele>654.0</ele><time>2026-03-29T09:41:28.202Z</time></trkpt><trkpt lat="41.7238117" lon="13.6968283"><ele>654.0</ele><time>2026-03-29T09:41:29.202Z</time></trkpt><trkpt lat="41.7237167" lon="13.6968567"><ele>654.0</ele><time>2026-03-29T09:41:30.202Z</time></trkpt><trkpt lat="41.723635" lon="13.696865"><ele>654.8333333333334</ele><time>2026-03-29T09:41:31.203Z</time></trkpt><trkpt lat="41.723555" lon="13.696865"><ele>655.6666666666666</ele><time>2026-03-29T09:41:32.202Z</time></trkpt><trkpt lat="41.7234917" lon="13.6968483"><ele>656.5</ele><time>2026-03-29T09:41:33.202Z</time></trkpt><trkpt lat="41.7234083" lon="13.6968083"><ele>657.3333333333333</ele><time>2026-03-29T09:41:35.202Z</time></trkpt><trkpt lat="41.7233183" lon="13.696805"><ele>658.1666666666666</ele><time>2026-03-29T09:41:37.202Z</time></trkpt><trkpt lat="41.7232483" lon="13.6968133"><ele>659.0</ele><time>2026-03-29T09:41:38.202Z</time></trkpt><trkpt lat="41.7231867" lon="13.696835"><ele>659.0</ele><time>2026-03-29T09:41:39.203Z</time></trkpt><trkpt lat="41.723095" lon="13.6968667"><ele>659.0</ele><time>2026-03-29T09:41:41.202Z</time></trkpt><trkpt lat="41.7229567" lon="13.6968217"><ele>659.0</ele><time>2026-03-29T09:41:56.889Z</time></trkpt><trkpt lat="41.7229733" lon="13.6967383"><ele>659.0</ele><time>2026-03-29T09:41:58.058Z</time></trkpt><trkpt lat="41.7229267" lon="13.6966733"><ele>659.0</ele><time>2026-03-29T09:42:05.202Z</time></trkpt><trkpt lat="41.7229167" lon="13.69659"><ele>659.0</ele><time>2026-03-29T09:42:11.202Z</time></trkpt><trkpt lat="41.7228933" lon="13.6966917"><ele>659.0</ele><time>2026-03-29T09:42:20.202Z</time></trkpt><trkpt lat="41.72282" lon="13.6967283"><ele>659.0</ele><time>2026-03-29T09:42:21.202Z</time></trkpt><trkpt lat="41.72274" lon="13.6967733"><ele>659.0</ele><time>2026-03-29T09:42:22.202Z</time></trkpt><trkpt lat="41.7226667" lon="13.696825"><ele>659.0</ele><time>2026-03-29T09:42:23.202Z</time></trkpt><trkpt lat="41.72258" lon="13.6968783"><ele>659.0</ele><time>2026-03-29T09:42:24.203Z</time></trkpt><trkpt lat="41.7224933" lon="13.6969383"><ele>659.0</ele><time>2026-03-29T09:42:25.202Z</time></trkpt><trkpt lat="41.7223983" lon="13.6970017"><ele>665.0</ele><time>2026-03-29T09:42:26.202Z</time></trkpt><trkpt lat="41.7222883" lon="13.69707"><ele>671.0</ele><time>2026-03-29T09:42:27.202Z</time></trkpt><trkpt lat="41.7221767" lon="13.6971417"><ele>677.0</ele><time>2026-03-29T09:42:28.202Z</time></trkpt><trkpt lat="41.7220683" lon="13.697205"><ele>683.0</ele><time>2026-03-29T09:42:29.202Z</time></trkpt><trkpt lat="41.721965" lon="13.6972617"><ele>680.8</ele><time>2026-03-29T09:42:30.202Z</time></trkpt><trkpt lat="41.72187" lon="13.6973167"><ele>678.5999999999999</ele><time>2026-03-29T09:42:31.202Z</time></trkpt><trkpt lat="41.7217917" lon="13.697385"><ele>676.4000000000001</ele><time>2026-03-29T09:42:32.202Z</time></trkpt><trkpt lat="41.7217083" lon="13.6974783"><ele>674.2</ele><time>2026-03-29T09:42:33.202Z</time></trkpt><trkpt lat="41.7216517" lon="13.6975883"><ele>672.0</ele><time>2026-03-29T09:42:34.202Z</time></trkpt><trkpt lat="41.721585" lon="13.6976583"><ele>672.0</ele><time>2026-03-29T09:42:35.202Z</time></trkpt><trkpt lat="41.7215283" lon="13.697715"><ele>672.0</ele><time>2026-03-29T09:42:36.202Z</time></trkpt><trkpt lat="41.721465" lon="13.6977683"><ele>672.0</ele><time>2026-03-29T09:42:38.202Z</time></trkpt><trkpt lat="41.7213967" lon="13.697825"><ele>672.0</ele><time>2026-03-29T09:42:42.202Z</time></trkpt><trkpt lat="41.7213733" lon="13.6979133"><ele>672.0</ele><time>2026-03-29T09:42:45.202Z</time></trkpt><trkpt lat="41.7213133" lon="13.697945"><ele>672.0</ele><time>2026-03-29T09:42:48.202Z</time></trkpt><trkpt lat="41.7212267" lon="13.6979233"><ele>672.0</ele><time>2026-03-29T09:42:51.202Z</time></trkpt><trkpt lat="41.7211667" lon="13.6978933"><ele>672.0</ele><time>2026-03-29T09:42:53.202Z</time></trkpt><trkpt lat="41.7210983" lon="13.6978333"><ele>672.0</ele><time>2026-03-29T09:42:56.203Z</time></trkpt><trkpt lat="41.72112" lon="13.6977517"><ele>672.0</ele><time>2026-03-29T09:42:59.202Z</time></trkpt><trkpt lat="41.7211817" lon="13.6976733"><ele>672.0</ele><time>2026-03-29T09:43:01.202Z</time></trkpt><trkpt lat="41.72124" lon="13.6975683"><ele>672.0</ele><time>2026-03-29T09:43:03.202Z</time></trkpt><trkpt lat="41.721315" lon="13.6974783"><ele>672.0</ele><time>2026-03-29T09:43:05.202Z</time></trkpt><trkpt lat="41.721415" lon="13.6973733"><ele>672.0</ele><time>2026-03-29T09:43:07.202Z</time></trkpt><trkpt lat="41.7214967" lon="13.697255"><ele>672.0</ele><time>2026-03-29T09:43:09.202Z</time></trkpt><trkpt lat="41.7215583" lon="13.6971333"><ele>672.0</ele><time>2026-03-29T09:43:11.202Z</time></trkpt><trkpt lat="41.72161" lon="13.6970783"><ele>672.0</ele><time>2026-03-29T09:43:12.202Z</time></trkpt><trkpt lat="41.721655" lon="13.6970067"><ele>672.0</ele><time>2026-03-29T09:43:13.202Z</time></trkpt><trkpt lat="41.7217017" lon="13.6969417"><ele>672.0</ele><time>2026-03-29T09:43:14.202Z</time></trkpt><trkpt lat="41.72175" lon="13.696885"><ele>669.8571428571429</ele><time>2026-03-29T09:43:15.202Z</time></trkpt><trkpt lat="41.7218067" lon="13.69683"><ele>667.7142857142858</ele><time>2026-03-29T09:43:16.202Z</time></trkpt><trkpt lat="41.72187" lon="13.6967983"><ele>665.5714285714286</ele><time>2026-03-29T09:43:17.202Z</time></trkpt><trkpt lat="41.72193" lon="13.6967617"><ele>663.4285714285714</ele><time>2026-03-29T09:43:18.203Z</time></trkpt><trkpt lat="41.7219917" lon="13.6967183"><ele>661.2857142857143</ele><time>2026-03-29T09:43:19.202Z</time></trkpt><trkpt lat="41.7220567" lon="13.6966533"><ele>659.1428571428571</ele><time>2026-03-29T09:43:20.202Z</time></trkpt><trkpt lat="41.7221217" lon="13.6966033"><ele>657.0</ele><time>2026-03-29T09:43:21.202Z</time></trkpt><trkpt lat="41.72219" lon="13.696555"><ele>657.0</ele><time>2026-03-29T09:43:22.202Z</time></trkpt><trkpt lat="41.7222567" lon="13.6965117"><ele>657.0</ele><time>2026-03-29T09:43:23.203Z</time></trkpt><trkpt lat="41.7223233" lon="13.69646"><ele>657.0</ele><time>2026-03-29T09:43:24.202Z</time></trkpt><trkpt lat="41.722385" lon="13.69641"><ele>657.0</ele><time>2026-03-29T09:43:25.202Z</time></trkpt><trkpt lat="41.7224483" lon="13.6963583"><ele>657.0</ele><time>2026-03-29T09:43:26.202Z</time></trkpt><trkpt lat="41.7225483" lon="13.6962783"><ele>657.0</ele><time>2026-03-29T09:43:28.202Z</time></trkpt><trkpt lat="41.7226317" lon="13.696225"><ele>657.0</ele><time>2026-03-29T09:43:30.202Z</time></trkpt><trkpt lat="41.722705" lon="13.69616"><ele>657.0</ele><time>2026-03-29T09:43:32.202Z</time></trkpt><trkpt lat="41.7227483" lon="13.6960967"><ele>657.0</ele><time>2026-03-29T09:43:34.202Z</time></trkpt><trkpt lat="41.7227317" lon="13.6960017"><ele>657.0</ele><time>2026-03-29T09:43:36.202Z</time></trkpt><trkpt lat="41.7226617" lon="13.695925"><ele>657.0</ele><time>2026-03-29T09:43:38.202Z</time></trkpt><trkpt lat="41.722565" lon="13.6959017"><ele>657.0</ele><time>2026-03-29T09:43:39.202Z</time></trkpt><trkpt lat="41.72246" lon="13.6958833"><ele>650.8000000000001</ele><time>2026-03-29T09:43:40.202Z</time></trkpt><trkpt lat="41.7223533" lon="13.6958683"><ele>644.6</ele><time>2026-03-29T09:43:41.202Z</time></trkpt><trkpt lat="41.7222483" lon="13.695845"><ele>638.4000000000001</ele><time>2026-03-29T09:43:42.202Z</time></trkpt><trkpt lat="41.7221533" lon="13.69582"><ele>632.2</ele><time>2026-03-29T09:43:43.202Z</time></trkpt><trkpt lat="41.72205" lon="13.6958"><ele>626.0</ele><time>2026-03-29T09:43:44.202Z</time></trkpt><trkpt lat="41.7219517" lon="13.6957867"><ele>625.2</ele><time>2026-03-29T09:43:45.202Z</time></trkpt><trkpt lat="41.7218417" lon="13.6957717"><ele>624.4000000000001</ele><time>2026-03-29T09:43:46.202Z</time></trkpt><trkpt lat="41.7217267" lon="13.6957533"><ele>623.6</ele><time>2026-03-29T09:43:47.202Z</time></trkpt><trkpt lat="41.7216183" lon="13.6957533"><ele>622.8000000000001</ele><time>2026-03-29T09:43:48.202Z</time></trkpt><trkpt lat="41.7215217" lon="13.6957483"><ele>622.0</ele><time>2026-03-29T09:43:49.202Z</time></trkpt><trkpt lat="41.721435" lon="13.6957367"><ele>622.0</ele><time>2026-03-29T09:43:50.202Z</time></trkpt><trkpt lat="41.7213167" lon="13.6957233"><ele>622.0</ele><time>2026-03-29T09:43:51.203Z</time></trkpt><trkpt lat="41.7212" lon="13.6957317"><ele>622.0</ele><time>2026-03-29T09:43:52.202Z</time></trkpt><trkpt lat="41.7210933" lon="13.69576"><ele>622.0</ele><time>2026-03-29T09:43:53.202Z</time></trkpt><trkpt lat="41.7209983" lon="13.6958"><ele>622.0</ele><time>2026-03-29T09:43:54.202Z</time></trkpt><trkpt lat="41.7209183" lon="13.6958233"><ele>620.3333333333334</ele><time>2026-03-29T09:43:55.203Z</time></trkpt><trkpt lat="41.7208483" lon="13.69583"><ele>618.6666666666667</ele><time>2026-03-29T09:43:56.202Z</time></trkpt><trkpt lat="41.72077" lon="13.695835"><ele>617.0</ele><time>2026-03-29T09:43:57.202Z</time></trkpt><trkpt lat="41.7206783" lon="13.6958633"><ele>615.3333333333334</ele><time>2026-03-29T09:43:58.202Z</time></trkpt><trkpt lat="41.7205883" lon="13.6959183"><ele>613.6666666666666</ele><time>2026-03-29T09:43:59.202Z</time></trkpt><trkpt lat="41.7205033" lon="13.6960017"><ele>612.0</ele><time>2026-03-29T09:44:00.202Z</time></trkpt><trkpt lat="41.7204317" lon="13.6960817"><ele>611.6</ele><time>2026-03-29T09:44:01.202Z</time></trkpt><trkpt lat="41.720375" lon="13.69614"><ele>611.2</ele><time>2026-03-29T09:44:02.202Z</time></trkpt><trkpt lat="41.7203233" lon="13.6961883"><ele>610.8</ele><time>2026-03-29T09:44:03.202Z</time></trkpt><trkpt lat="41.7202083" lon="13.6962383"><ele>610.4</ele><time>2026-03-29T09:44:05.202Z</time></trkpt><trkpt lat="41.7200967" lon="13.6963333"><ele>610.0</ele><time>2026-03-29T09:44:07.202Z</time></trkpt><trkpt lat="41.7200517" lon="13.6963933"><ele>610.0</ele><time>2026-03-29T09:44:08.202Z</time></trkpt><trkpt lat="41.719995" lon="13.696455"><ele>610.0</ele><time>2026-03-29T09:44:09.202Z</time></trkpt><trkpt lat="41.7199267" lon="13.696525"><ele>610.0</ele><time>2026-03-29T09:44:10.202Z</time></trkpt><trkpt lat="41.7198667" lon="13.6966"><ele>610.0</ele><time>2026-03-29T09:44:11.203Z</time></trkpt><trkpt lat="41.719805" lon="13.696695"><ele>610.0</ele><time>2026-03-29T09:44:12.202Z</time></trkpt><trkpt lat="41.71975" lon="13.696795"><ele>610.0</ele><time>2026-03-29T09:44:13.202Z</time></trkpt><trkpt lat="41.71971" lon="13.696895"><ele>610.0</ele><time>2026-03-29T09:44:14.202Z</time></trkpt><trkpt lat="41.7196583" lon="13.697015"><ele>610.0</ele><time>2026-03-29T09:44:16.202Z</time></trkpt><trkpt lat="41.7195783" lon="13.6970283"><ele>610.0</ele><time>2026-03-29T09:44:18.202Z</time></trkpt><trkpt lat="41.7195483" lon="13.6969417"><ele>610.0</ele><time>2026-03-29T09:44:20.202Z</time></trkpt><trkpt lat="41.719575" lon="13.6968117"><ele>610.0</ele><time>2026-03-29T09:44:21.202Z</time></trkpt><trkpt lat="41.7195967" lon="13.69667"><ele>610.0</ele><time>2026-03-29T09:44:22.202Z</time></trkpt><trkpt lat="41.719615" lon="13.6965267"><ele>610.0</ele><time>2026-03-29T09:44:23.202Z</time></trkpt><trkpt lat="41.7196333" lon="13.69639"><ele>610.0</ele><time>2026-03-29T09:44:24.202Z</time></trkpt><trkpt lat="41.71964" lon="13.6962567"><ele>610.0</ele><time>2026-03-29T09:44:25.202Z</time></trkpt><trkpt lat="41.7196417" lon="13.696145"><ele>610.0</ele><time>2026-03-29T09:44:26.202Z</time></trkpt><trkpt lat="41.7196433" lon="13.696045"><ele>608.0</ele><time>2026-03-29T09:44:27.202Z</time></trkpt><trkpt lat="41.7196517" lon="13.69594"><ele>606.0</ele><time>2026-03-29T09:44:28.202Z</time></trkpt><trkpt lat="41.7196633" lon="13.695825"><ele>604.0</ele><time>2026-03-29T09:44:29.202Z</time></trkpt><trkpt lat="41.719685" lon="13.69571"><ele>602.0</ele><time>2026-03-29T09:44:30.202Z</time></trkpt><trkpt lat="41.7197183" lon="13.695595"><ele>600.0</ele><time>2026-03-29T09:44:31.202Z</time></trkpt><trkpt lat="41.719765" lon="13.6954883"><ele>598.0</ele><time>2026-03-29T09:44:32.202Z</time></trkpt><trkpt lat="41.7198217" lon="13.6953883"><ele>598.0</ele><time>2026-03-29T09:44:33.202Z</time></trkpt><trkpt lat="41.7198817" lon="13.6952933"><ele>598.0</ele><time>2026-03-29T09:44:34.202Z</time></trkpt><trkpt lat="41.71994" lon="13.6952067"><ele>598.0</ele><time>2026-03-29T09:44:35.202Z</time></trkpt><trkpt lat="41.72" lon="13.6951133"><ele>598.0</ele><time>2026-03-29T09:44:36.202Z</time></trkpt><trkpt lat="41.72006" lon="13.6950133"><ele>598.0</ele><time>2026-03-29T09:44:37.202Z</time></trkpt><trkpt lat="41.7201267" lon="13.6949267"><ele>597.1666666666667</ele><time>2026-03-29T09:44:38.202Z</time></trkpt><trkpt lat="41.72019" lon="13.6948383"><ele>596.3333333333334</ele><time>2026-03-29T09:44:39.202Z</time></trkpt><trkpt lat="41.7202533" lon="13.6947483"><ele>595.5</ele><time>2026-03-29T09:44:40.202Z</time></trkpt><trkpt lat="41.7203217" lon="13.6946633"><ele>594.6666666666666</ele><time>2026-03-29T09:44:41.202Z</time></trkpt><trkpt lat="41.720375" lon="13.694595"><ele>593.8333333333333</ele><time>2026-03-29T09:44:42.202Z</time></trkpt><trkpt lat="41.720425" lon="13.6945433"><ele>593.0</ele><time>2026-03-29T09:44:43.202Z</time></trkpt><trkpt lat="41.7204967" lon="13.69447"><ele>588.4</ele><time>2026-03-29T09:44:45.202Z</time></trkpt><trkpt lat="41.7204933" lon="13.6943383"><ele>583.8</ele><time>2026-03-29T09:44:47.202Z</time></trkpt><trkpt lat="41.72038" lon="13.6943083"><ele>579.2</ele><time>2026-03-29T09:44:49.202Z</time></trkpt><trkpt lat="41.7202983" lon="13.69432"><ele>574.6</ele><time>2026-03-29T09:44:50.202Z</time></trkpt><trkpt lat="41.7202133" lon="13.6943317"><ele>570.0</ele><time>2026-03-29T09:44:51.202Z</time></trkpt><trkpt lat="41.7201383" lon="13.6943417"><ele>568.3333333333334</ele><time>2026-03-29T09:44:52.202Z</time></trkpt><trkpt lat="41.7200633" lon="13.6943433"><ele>566.6666666666666</ele><time>2026-03-29T09:44:53.202Z</time></trkpt><trkpt lat="41.7199883" lon="13.69433"><ele>565.0</ele><time>2026-03-29T09:44:54.202Z</time></trkpt><trkpt lat="41.71992" lon="13.694305"><ele>563.3333333333333</ele><time>2026-03-29T09:44:55.202Z</time></trkpt><trkpt lat="41.7198167" lon="13.6942567"><ele>561.6666666666666</ele><time>2026-03-29T09:44:57.202Z</time></trkpt><trkpt lat="41.71973" lon="13.6941517"><ele>560.0</ele><time>2026-03-29T09:44:59.203Z</time></trkpt><trkpt lat="41.7196967" lon="13.694025"><ele>560.0</ele><time>2026-03-29T09:45:01.202Z</time></trkpt><trkpt lat="41.7197383" lon="13.693915"><ele>560.0</ele><time>2026-03-29T09:45:03.202Z</time></trkpt><trkpt lat="41.71976" lon="13.693685"><ele>560.0</ele><time>2026-03-29T09:45:18.357Z</time></trkpt><trkpt lat="41.7198233" lon="13.6936683"><ele>560.0</ele><time>2026-03-29T09:47:55.202Z</time></trkpt><trkpt lat="41.71976" lon="13.6936283"><ele>560.0</ele><time>2026-03-29T09:48:26.203Z</time></trkpt><trkpt lat="41.7197117" lon="13.6936967"><ele>560.0</ele><time>2026-03-29T09:48:30.202Z</time></trkpt><trkpt lat="41.7196533" lon="13.693735"><ele>560.0</ele><time>2026-03-29T09:48:38.202Z</time></trkpt><trkpt lat="41.7196683" lon="13.6936333"><ele>560.0</ele><time>2026-03-29T09:48:44.202Z</time></trkpt><trkpt lat="41.7197233" lon="13.693555"><ele>560.0</ele><time>2026-03-29T09:48:46.202Z</time></trkpt><trkpt lat="41.7197883" lon="13.6934583"><ele>560.0</ele><time>2026-03-29T09:48:48.202Z</time></trkpt><trkpt lat="41.7198467" lon="13.6933617"><ele>560.0</ele><time>2026-03-29T09:48:50.202Z</time></trkpt><trkpt lat="41.7199083" lon="13.6932633"><ele>557.1666666666666</ele><time>2026-03-29T09:48:52.202Z</time></trkpt><trkpt lat="41.7199733" lon="13.69318"><ele>554.3333333333333</ele><time>2026-03-29T09:48:54.202Z</time></trkpt><trkpt lat="41.72004" lon="13.6931133"><ele>551.5</ele><time>2026-03-29T09:48:56.202Z</time></trkpt><trkpt lat="41.7200983" lon="13.6930417"><ele>548.6666666666666</ele><time>2026-03-29T09:48:58.202Z</time></trkpt><trkpt lat="41.7201617" lon="13.69301"><ele>545.8333333333334</ele><time>2026-03-29T09:49:00.202Z</time></trkpt><trkpt lat="41.72023" lon="13.6929817"><ele>543.0</ele><time>2026-03-29T09:49:03.202Z</time></trkpt><trkpt lat="41.7202967" lon="13.6929667"><ele>543.0</ele><time>2026-03-29T09:49:06.202Z</time></trkpt><trkpt lat="41.720355" lon="13.6929267"><ele>543.0</ele><time>2026-03-29T09:49:09.202Z</time></trkpt><trkpt lat="41.7203733" lon="13.692845"><ele>543.0</ele><time>2026-03-29T09:49:13.202Z</time></trkpt><trkpt lat="41.7202933" lon="13.692815"><ele>543.0</ele><time>2026-03-29T09:49:16.202Z</time></trkpt><trkpt lat="41.720165" lon="13.69277"><ele>543.0</ele><time>2026-03-29T09:49:18.202Z</time></trkpt><trkpt lat="41.720095" lon="13.6927683"><ele>543.0</ele><time>2026-03-29T09:49:19.202Z</time></trkpt><trkpt lat="41.7200233" lon="13.6927583"><ele>538.8</ele><time>2026-03-29T09:49:20.202Z</time></trkpt><trkpt lat="41.7199383" lon="13.6927417"><ele>534.5999999999999</ele><time>2026-03-29T09:49:21.202Z</time></trkpt><trkpt lat="41.71984" lon="13.692715"><ele>530.4000000000001</ele><time>2026-03-29T09:49:22.202Z</time></trkpt><trkpt lat="41.7197583" lon="13.69269"><ele>526.2</ele><time>2026-03-29T09:49:23.202Z</time></trkpt><trkpt lat="41.7196667" lon="13.6926583"><ele>522.0</ele><time>2026-03-29T09:49:24.202Z</time></trkpt><trkpt lat="41.7195817" lon="13.6926017"><ele>522.0</ele><time>2026-03-29T09:49:25.202Z</time></trkpt><trkpt lat="41.71952" lon="13.69257"><ele>522.0</ele><time>2026-03-29T09:49:26.202Z</time></trkpt><trkpt lat="41.7194533" lon="13.692515"><ele>522.0</ele><time>2026-03-29T09:49:27.202Z</time></trkpt><trkpt lat="41.7193767" lon="13.69246"><ele>522.0</ele><time>2026-03-29T09:49:28.202Z</time></trkpt><trkpt lat="41.71931" lon="13.6924317"><ele>522.0</ele><time>2026-03-29T09:49:29.202Z</time></trkpt><trkpt lat="41.7192383" lon="13.6924017"><ele>522.0</ele><time>2026-03-29T09:49:30.202Z</time></trkpt><trkpt lat="41.719115" lon="13.6923183"><ele>520.75</ele><time>2026-03-29T09:49:32.202Z</time></trkpt><trkpt lat="41.7189383" lon="13.6922983"><ele>519.5</ele><time>2026-03-29T09:49:34.202Z</time></trkpt><trkpt lat="41.71885" lon="13.6923183"><ele>518.25</ele><time>2026-03-29T09:49:35.202Z</time></trkpt><trkpt lat="41.71878" lon="13.69235"><ele>517.0</ele><time>2026-03-29T09:49:36.202Z</time></trkpt><trkpt lat="41.7186767" lon="13.6924683"><ele>517.0</ele><time>2026-03-29T09:49:38.202Z</time></trkpt><trkpt lat="41.7186167" lon="13.69254"><ele>517.0</ele><time>2026-03-29T09:49:39.202Z</time></trkpt><trkpt lat="41.7185517" lon="13.692605"><ele>517.0</ele><time>2026-03-29T09:49:40.203Z</time></trkpt><trkpt lat="41.71848" lon="13.6926767"><ele>517.0</ele><time>2026-03-29T09:49:41.202Z</time></trkpt><trkpt lat="41.7184133" lon="13.6927567"><ele>517.0</ele><time>2026-03-29T09:49:42.202Z</time></trkpt><trkpt lat="41.718355" lon="13.6928567"><ele>517.0</ele><time>2026-03-29T09:49:43.203Z</time></trkpt><trkpt lat="41.718315" lon="13.69294"><ele>517.0</ele><time>2026-03-29T09:49:44.202Z</time></trkpt><trkpt lat="41.718265" lon="13.693015"><ele>517.0</ele><time>2026-03-29T09:49:45.202Z</time></trkpt><trkpt lat="41.7182117" lon="13.69309"><ele>517.0</ele><time>2026-03-29T09:49:46.202Z</time></trkpt><trkpt lat="41.7181533" lon="13.6931767"><ele>517.0</ele><time>2026-03-29T09:49:47.202Z</time></trkpt><trkpt lat="41.7180983" lon="13.69324"><ele>517.0</ele><time>2026-03-29T09:49:48.202Z</time></trkpt><trkpt lat="41.7180517" lon="13.6932983"><ele>517.0</ele><time>2026-03-29T09:49:49.203Z</time></trkpt><trkpt lat="41.7180033" lon="13.6933783"><ele>517.0</ele><time>2026-03-29T09:49:50.202Z</time></trkpt><trkpt lat="41.7179567" lon="13.6934567"><ele>517.0</ele><time>2026-03-29T09:49:51.202Z</time></trkpt><trkpt lat="41.717915" lon="13.69353"><ele>517.0</ele><time>2026-03-29T09:49:52.202Z</time></trkpt><trkpt lat="41.7178683" lon="13.69367"><ele>517.0</ele><time>2026-03-29T09:49:53.202Z</time></trkpt><trkpt lat="41.7178283" lon="13.6937983"><ele>517.0</ele><time>2026-03-29T09:49:54.202Z</time></trkpt><trkpt lat="41.7178067" lon="13.693905"><ele>517.0</ele><time>2026-03-29T09:49:55.202Z</time></trkpt><trkpt lat="41.717785" lon="13.69405"><ele>518.6</ele><time>2026-03-29T09:49:56.202Z</time></trkpt><trkpt lat="41.7177783" lon="13.694175"><ele>520.2</ele><time>2026-03-29T09:49:57.203Z</time></trkpt><trkpt lat="41.7177683" lon="13.6943267"><ele>521.8</ele><time>2026-03-29T09:49:58.202Z</time></trkpt><trkpt lat="41.71775" lon="13.6944817"><ele>523.4</ele><time>2026-03-29T09:49:59.202Z</time></trkpt><trkpt lat="41.717725" lon="13.69462"><ele>525.0</ele><time>2026-03-29T09:50:00.203Z</time></trkpt><trkpt lat="41.717695" lon="13.69478"><ele>523.2</ele><time>2026-03-29T09:50:01.202Z</time></trkpt><trkpt lat="41.7176633" lon="13.6949333"><ele>521.4</ele><time>2026-03-29T09:50:02.202Z</time></trkpt><trkpt lat="41.7176233" lon="13.69506"><ele>519.6</ele><time>2026-03-29T09:50:03.202Z</time></trkpt><trkpt lat="41.71758" lon="13.69517"><ele>517.8</ele><time>2026-03-29T09:50:04.202Z</time></trkpt><trkpt lat="41.7175083" lon="13.6952733"><ele>516.0</ele><time>2026-03-29T09:50:05.202Z</time></trkpt><trkpt lat="41.71743" lon="13.6953433"><ele>516.0</ele><time>2026-03-29T09:50:06.202Z</time></trkpt><trkpt lat="41.7173533" lon="13.695415"><ele>516.0</ele><time>2026-03-29T09:50:07.202Z</time></trkpt><trkpt lat="41.71728" lon="13.695495"><ele>516.0</ele><time>2026-03-29T09:50:08.202Z</time></trkpt><trkpt lat="41.7172133" lon="13.695545"><ele>516.0</ele><time>2026-03-29T09:50:09.202Z</time></trkpt><trkpt lat="41.71714" lon="13.6955733"><ele>516.0</ele><time>2026-03-29T09:50:10.202Z</time></trkpt><trkpt lat="41.7170633" lon="13.6956133"><ele>516.0</ele><time>2026-03-29T09:50:11.202Z</time></trkpt><trkpt lat="41.7169767" lon="13.6956467"><ele>516.0</ele><time>2026-03-29T09:50:12.202Z</time></trkpt><trkpt lat="41.7169067" lon="13.6956983"><ele>516.0</ele><time>2026-03-29T09:50:13.202Z</time></trkpt><trkpt lat="41.7168433" lon="13.695755"><ele>516.0</ele><time>2026-03-29T09:50:14.202Z</time></trkpt><trkpt lat="41.7167683" lon="13.695825"><ele>516.0</ele><time>2026-03-29T09:50:15.202Z</time></trkpt><trkpt lat="41.716715" lon="13.6958867"><ele>516.0</ele><time>2026-03-29T09:50:16.202Z</time></trkpt><trkpt lat="41.7166433" lon="13.69596"><ele>516.0</ele><time>2026-03-29T09:50:17.202Z</time></trkpt><trkpt lat="41.7165617" lon="13.69603"><ele>516.0</ele><time>2026-03-29T09:50:18.202Z</time></trkpt><trkpt lat="41.7164883" lon="13.6960683"><ele>516.0</ele><time>2026-03-29T09:50:19.203Z</time></trkpt><trkpt lat="41.716405" lon="13.6960933"><ele>516.0</ele><time>2026-03-29T09:50:20.202Z</time></trkpt><trkpt lat="41.71631" lon="13.6961067"><ele>516.0</ele><time>2026-03-29T09:50:21.202Z</time></trkpt><trkpt lat="41.7162233" lon="13.69611"><ele>516.0</ele><time>2026-03-29T09:50:22.202Z</time></trkpt><trkpt lat="41.716125" lon="13.6960967"><ele>516.0</ele><time>2026-03-29T09:50:24.202Z</time></trkpt><trkpt lat="41.7160583" lon="13.6960883"><ele>516.0</ele><time>2026-03-29T09:50:26.202Z</time></trkpt><trkpt lat="41.7159717" lon="13.6961233"><ele>516.0</ele><time>2026-03-29T09:50:29.202Z</time></trkpt><trkpt lat="41.7161267" lon="13.696125"><ele>516.0</ele><time>2026-03-29T09:50:37.152Z</time></trkpt><trkpt lat="41.7158017" lon="13.696085"><ele>516.8333333333334</ele><time>2026-03-29T09:50:43.204Z</time></trkpt><trkpt lat="41.7157383" lon="13.6960517"><ele>517.6666666666666</ele><time>2026-03-29T09:50:46.204Z</time></trkpt><trkpt lat="41.7156833" lon="13.6959583"><ele>518.5</ele><time>2026-03-29T09:50:47.204Z</time></trkpt><trkpt lat="41.7157233" lon="13.6960433"><ele>519.3333333333333</ele><time>2026-03-29T09:51:01.204Z</time></trkpt><trkpt lat="41.7157917" lon="13.6961"><ele>520.1666666666666</ele><time>2026-03-29T09:51:06.204Z</time></trkpt><trkpt lat="41.715815" lon="13.696195"><ele>521.0</ele><time>2026-03-29T09:52:15.204Z</time></trkpt><trkpt lat="41.7158167" lon="13.69629"><ele>521.0</ele><time>2026-03-29T09:52:17.204Z</time></trkpt><trkpt lat="41.71581" lon="13.696415"><ele>521.0</ele><time>2026-03-29T09:52:19.204Z</time></trkpt><trkpt lat="41.7157883" lon="13.6965767"><ele>521.0</ele><time>2026-03-29T09:52:22.204Z</time></trkpt><trkpt lat="41.7157133" lon="13.6966883"><ele>521.0</ele><time>2026-03-29T09:52:24.204Z</time></trkpt><trkpt lat="41.7156533" lon="13.69674"><ele>521.0</ele><time>2026-03-29T09:52:25.204Z</time></trkpt><trkpt lat="41.71554" lon="13.6968083"><ele>521.0</ele><time>2026-03-29T09:52:27.204Z</time></trkpt><trkpt lat="41.7154633" lon="13.69684"><ele>521.0</ele><time>2026-03-29T09:52:29.204Z</time></trkpt><trkpt lat="41.715385" lon="13.6968683"><ele>521.0</ele><time>2026-03-29T09:52:30.204Z</time></trkpt><trkpt lat="41.7152817" lon="13.6968917"><ele>521.0</ele><time>2026-03-29T09:52:31.204Z</time></trkpt><trkpt lat="41.7151783" lon="13.6969083"><ele>521.0</ele><time>2026-03-29T09:52:32.204Z</time></trkpt><trkpt lat="41.7150517" lon="13.6969333"><ele>524.75</ele><time>2026-03-29T09:52:33.204Z</time></trkpt><trkpt lat="41.7149267" lon="13.6969417"><ele>528.5</ele><time>2026-03-29T09:52:34.204Z</time></trkpt><trkpt lat="41.71479" lon="13.696955"><ele>532.25</ele><time>2026-03-29T09:52:35.204Z</time></trkpt><trkpt lat="41.7146517" lon="13.6969633"><ele>536.0</ele><time>2026-03-29T09:52:36.204Z</time></trkpt><trkpt lat="41.7145067" lon="13.6969667"><ele>533.25</ele><time>2026-03-29T09:52:37.204Z</time></trkpt><trkpt lat="41.7143833" lon="13.6969617"><ele>530.5</ele><time>2026-03-29T09:52:38.204Z</time></trkpt><trkpt lat="41.7142683" lon="13.696955"><ele>527.75</ele><time>2026-03-29T09:52:39.204Z</time></trkpt><trkpt lat="41.7141433" lon="13.696955"><ele>525.0</ele><time>2026-03-29T09:52:40.204Z</time></trkpt><trkpt lat="41.71402" lon="13.6969467"><ele>525.0</ele><time>2026-03-29T09:52:41.204Z</time></trkpt><trkpt lat="41.7139133" lon="13.696945"><ele>525.0</ele><time>2026-03-29T09:52:42.204Z</time></trkpt><trkpt lat="41.7138067" lon="13.6969417"><ele>525.0</ele><time>2026-03-29T09:52:43.204Z</time></trkpt><trkpt lat="41.7137033" lon="13.6969367"><ele>525.0</ele><time>2026-03-29T09:52:44.204Z</time></trkpt><trkpt lat="41.71361" lon="13.696935"><ele>525.0</ele><time>2026-03-29T09:52:45.204Z</time></trkpt><trkpt lat="41.71352" lon="13.6969217"><ele>523.8333333333334</ele><time>2026-03-29T09:52:46.204Z</time></trkpt><trkpt lat="41.713435" lon="13.6968983"><ele>522.6666666666666</ele><time>2026-03-29T09:52:47.204Z</time></trkpt><trkpt lat="41.7133633" lon="13.6968533"><ele>521.5</ele><time>2026-03-29T09:52:48.204Z</time></trkpt><trkpt lat="41.7132917" lon="13.6967917"><ele>520.3333333333333</ele><time>2026-03-29T09:52:49.204Z</time></trkpt><trkpt lat="41.71322" lon="13.6967183"><ele>519.1666666666666</ele><time>2026-03-29T09:52:50.204Z</time></trkpt><trkpt lat="41.7131483" lon="13.69665"><ele>518.0</ele><time>2026-03-29T09:52:51.204Z</time></trkpt><trkpt lat="41.7130833" lon="13.6966183"><ele>518.0</ele><time>2026-03-29T09:52:52.204Z</time></trkpt><trkpt lat="41.7129983" lon="13.6965867"><ele>518.0</ele><time>2026-03-29T09:52:53.204Z</time></trkpt><trkpt lat="41.7129" lon="13.6965667"><ele>518.0</ele><time>2026-03-29T09:52:54.204Z</time></trkpt><trkpt lat="41.7127783" lon="13.6965617"><ele>518.0</ele><time>2026-03-29T09:52:55.205Z</time></trkpt><trkpt lat="41.7126433" lon="13.69658"><ele>518.0</ele><time>2026-03-29T09:52:56.204Z</time></trkpt><trkpt lat="41.7125117" lon="13.6966083"><ele>517.25</ele><time>2026-03-29T09:52:57.204Z</time></trkpt><trkpt lat="41.7123833" lon="13.6966433"><ele>516.5</ele><time>2026-03-29T09:52:58.204Z</time></trkpt><trkpt lat="41.7122683" lon="13.696675"><ele>515.75</ele><time>2026-03-29T09:52:59.204Z</time></trkpt><trkpt lat="41.7121583" lon="13.696705"><ele>515.0</ele><time>2026-03-29T09:53:00.204Z</time></trkpt><trkpt lat="41.7120583" lon="13.6967467"><ele>515.0</ele><time>2026-03-29T09:53:01.204Z</time></trkpt><trkpt lat="41.7119633" lon="13.6968017"><ele>515.0</ele><time>2026-03-29T09:53:02.204Z</time></trkpt><trkpt lat="41.7118683" lon="13.6968517"><ele>515.0</ele><time>2026-03-29T09:53:03.204Z</time></trkpt><trkpt lat="41.7117833" lon="13.6969"><ele>515.0</ele><time>2026-03-29T09:53:04.204Z</time></trkpt><trkpt lat="41.7116983" lon="13.6969467"><ele>515.0</ele><time>2026-03-29T09:53:05.204Z</time></trkpt><trkpt lat="41.7116083" lon="13.696995"><ele>513.8</ele><time>2026-03-29T09:53:06.204Z</time></trkpt><trkpt lat="41.7115233" lon="13.6970433"><ele>512.6</ele><time>2026-03-29T09:53:07.204Z</time></trkpt><trkpt lat="41.7114367" lon="13.6970783"><ele>511.4</ele><time>2026-03-29T09:53:08.205Z</time></trkpt><trkpt lat="41.7113433" lon="13.6971267"><ele>510.2</ele><time>2026-03-29T09:53:09.204Z</time></trkpt><trkpt lat="41.71125" lon="13.69719"><ele>509.0</ele><time>2026-03-29T09:53:10.205Z</time></trkpt><trkpt lat="41.711145" lon="13.6972467"><ele>507.0</ele><time>2026-03-29T09:53:11.204Z</time></trkpt><trkpt lat="41.7110433" lon="13.69731"><ele>505.0</ele><time>2026-03-29T09:53:12.204Z</time></trkpt><trkpt lat="41.7109567" lon="13.697355"><ele>503.0</ele><time>2026-03-29T09:53:13.204Z</time></trkpt><trkpt lat="41.7108767" lon="13.6973917"><ele>501.0</ele><time>2026-03-29T09:53:14.204Z</time></trkpt><trkpt lat="41.7108083" lon="13.6974283"><ele>499.0</ele><time>2026-03-29T09:53:15.204Z</time></trkpt><trkpt lat="41.7107217" lon="13.69747"><ele>499.0</ele><time>2026-03-29T09:53:17.204Z</time></trkpt><trkpt lat="41.71081" lon="13.697605"><ele>499.0</ele><time>2026-03-29T09:53:26.573Z</time></trkpt><trkpt lat="41.71066" lon="13.697545"><ele>499.0</ele><time>2026-03-29T09:53:31.203Z</time></trkpt><trkpt lat="41.710665" lon="13.697455"><ele>499.0</ele><time>2026-03-29T09:53:48.203Z</time></trkpt><trkpt lat="41.71059" lon="13.6973867"><ele>499.0</ele><time>2026-03-29T09:53:51.203Z</time></trkpt><trkpt lat="41.710535" lon="13.6973167"><ele>499.00000000000006</ele><time>2026-03-29T09:53:58.203Z</time></trkpt><trkpt lat="41.7104667" lon="13.69725"><ele>499.0</ele><time>2026-03-29T09:54:01.203Z</time></trkpt><trkpt lat="41.7104067" lon="13.6972117"><ele>499.0</ele><time>2026-03-29T09:54:10.203Z</time></trkpt><trkpt lat="41.71033" lon="13.6971283"><ele>499.0</ele><time>2026-03-29T09:54:57.203Z</time></trkpt><trkpt lat="41.7102683" lon="13.6970417"><ele>499.00000000000006</ele><time>2026-03-29T09:55:01.203Z</time></trkpt><trkpt lat="41.7102433" lon="13.6969533"><ele>499.0</ele><time>2026-03-29T09:55:04.203Z</time></trkpt><trkpt lat="41.7103017" lon="13.697065"><ele>499.0</ele><time>2026-03-29T09:55:13.203Z</time></trkpt><trkpt lat="41.7103867" lon="13.6971667"><ele>499.0</ele><time>2026-03-29T09:55:15.203Z</time></trkpt><trkpt lat="41.7105" lon="13.6972383"><ele>499.0</ele><time>2026-03-29T09:55:17.203Z</time></trkpt><trkpt lat="41.7106033" lon="13.6973167"><ele>499.0</ele><time>2026-03-29T09:55:19.203Z</time></trkpt><trkpt lat="41.7106483" lon="13.6974017"><ele>499.0</ele><time>2026-03-29T09:55:21.203Z</time></trkpt><trkpt lat="41.7106017" lon="13.6974917"><ele>499.0</ele><time>2026-03-29T09:55:23.203Z</time></trkpt><trkpt lat="41.7105067" lon="13.6975433"><ele>499.0</ele><time>2026-03-29T09:55:25.203Z</time></trkpt><trkpt lat="41.7104333" lon="13.6975567"><ele>499.0</ele><time>2026-03-29T09:55:26.203Z</time></trkpt><trkpt lat="41.71033" lon="13.6975833"><ele>499.0</ele><time>2026-03-29T09:55:27.203Z</time></trkpt><trkpt lat="41.71024" lon="13.697615"><ele>499.0</ele><time>2026-03-29T09:55:28.203Z</time></trkpt><trkpt lat="41.7101533" lon="13.69766"><ele>498.2</ele><time>2026-03-29T09:55:29.203Z</time></trkpt><trkpt lat="41.710075" lon="13.6977"><ele>497.4</ele><time>2026-03-29T09:55:30.203Z</time></trkpt><trkpt lat="41.7100067" lon="13.6977283"><ele>496.6</ele><time>2026-03-29T09:55:31.203Z</time></trkpt><trkpt lat="41.709875" lon="13.697745"><ele>495.8</ele><time>2026-03-29T09:55:33.203Z</time></trkpt><trkpt lat="41.70979" lon="13.6977217"><ele>495.0</ele><time>2026-03-29T09:55:34.203Z</time></trkpt><trkpt lat="41.7096933" lon="13.6976883"><ele>495.0</ele><time>2026-03-29T09:55:35.203Z</time></trkpt><trkpt lat="41.709595" lon="13.69765"><ele>495.0</ele><time>2026-03-29T09:55:36.203Z</time></trkpt><trkpt lat="41.7095" lon="13.6976167"><ele>495.0</ele><time>2026-03-29T09:55:37.203Z</time></trkpt><trkpt lat="41.7093967" lon="13.6976033"><ele>495.0</ele><time>2026-03-29T09:55:38.203Z</time></trkpt><trkpt lat="41.7092767" lon="13.6975983"><ele>495.0</ele><time>2026-03-29T09:55:39.203Z</time></trkpt><trkpt lat="41.7091417" lon="13.697625"><ele>493.5</ele><time>2026-03-29T09:55:40.203Z</time></trkpt><trkpt lat="41.70901" lon="13.6976533"><ele>492.0</ele><time>2026-03-29T09:55:41.204Z</time></trkpt><trkpt lat="41.7088983" lon="13.6977"><ele>490.5</ele><time>2026-03-29T09:55:42.203Z</time></trkpt><trkpt lat="41.7087983" lon="13.6977417"><ele>489.0</ele><time>2026-03-29T09:55:43.203Z</time></trkpt><trkpt lat="41.7087" lon="13.69776"><ele>486.79999999999995</ele><time>2026-03-29T09:55:44.203Z</time></trkpt><trkpt lat="41.70859" lon="13.69777"><ele>484.59999999999997</ele><time>2026-03-29T09:55:45.203Z</time></trkpt><trkpt lat="41.7084883" lon="13.6977733"><ele>482.4</ele><time>2026-03-29T09:55:46.203Z</time></trkpt><trkpt lat="41.70837" lon="13.6977583"><ele>480.2</ele><time>2026-03-29T09:55:47.203Z</time></trkpt><trkpt lat="41.70826" lon="13.697745"><ele>478.0</ele><time>2026-03-29T09:55:48.203Z</time></trkpt><trkpt lat="41.7081567" lon="13.6977417"><ele>478.0</ele><time>2026-03-29T09:55:49.203Z</time></trkpt><trkpt lat="41.7080517" lon="13.69774"><ele>477.99999999999994</ele><time>2026-03-29T09:55:50.203Z</time></trkpt><trkpt lat="41.7079567" lon="13.6977433"><ele>477.99999999999994</ele><time>2026-03-29T09:55:51.203Z</time></trkpt><trkpt lat="41.7078583" lon="13.6977383"><ele>478.0</ele><time>2026-03-29T09:55:52.203Z</time></trkpt><trkpt lat="41.7077567" lon="13.6977167"><ele>478.0</ele><time>2026-03-29T09:55:53.203Z</time></trkpt><trkpt lat="41.7076433" lon="13.69768"><ele>476.75</ele><time>2026-03-29T09:55:54.203Z</time></trkpt><trkpt lat="41.7075317" lon="13.6976383"><ele>475.5</ele><time>2026-03-29T09:55:55.203Z</time></trkpt><trkpt lat="41.707415" lon="13.69761"><ele>474.25</ele><time>2026-03-29T09:55:56.203Z</time></trkpt><trkpt lat="41.70731" lon="13.6975917"><ele>473.0</ele><time>2026-03-29T09:55:57.203Z</time></trkpt><trkpt lat="41.7072" lon="13.6975683"><ele>473.0</ele><time>2026-03-29T09:55:58.204Z</time></trkpt><trkpt lat="41.707095" lon="13.6975617"><ele>472.99999999999994</ele><time>2026-03-29T09:55:59.203Z</time></trkpt><trkpt lat="41.7069917" lon="13.6975417"><ele>472.99999999999994</ele><time>2026-03-29T09:56:00.203Z</time></trkpt><trkpt lat="41.7068933" lon="13.6975233"><ele>473.0</ele><time>2026-03-29T09:56:01.203Z</time></trkpt><trkpt lat="41.7068017" lon="13.69749"><ele>473.0</ele><time>2026-03-29T09:56:02.203Z</time></trkpt><trkpt lat="41.7067117" lon="13.6974483"><ele>473.0</ele><time>2026-03-29T09:56:03.203Z</time></trkpt><trkpt lat="41.706635" lon="13.697395"><ele>472.99999999999994</ele><time>2026-03-29T09:56:04.203Z</time></trkpt><trkpt lat="41.7065667" lon="13.6973117"><ele>472.99999999999994</ele><time>2026-03-29T09:56:05.203Z</time></trkpt><trkpt lat="41.706505" lon="13.6972167"><ele>473.0</ele><time>2026-03-29T09:56:06.203Z</time></trkpt><trkpt lat="41.706455" lon="13.6971"><ele>473.0</ele><time>2026-03-29T09:56:07.203Z</time></trkpt><trkpt lat="41.7064167" lon="13.69698"><ele>469.25</ele><time>2026-03-29T09:56:08.204Z</time></trkpt><trkpt lat="41.7063667" lon="13.6968633"><ele>465.5</ele><time>2026-03-29T09:56:09.203Z</time></trkpt><trkpt lat="41.7062967" lon="13.6967717"><ele>461.75</ele><time>2026-03-29T09:56:10.203Z</time></trkpt><trkpt lat="41.7061917" lon="13.696705"><ele>458.0</ele><time>2026-03-29T09:56:11.203Z</time></trkpt><trkpt lat="41.7060567" lon="13.6966467"><ele>458.0</ele><time>2026-03-29T09:56:12.203Z</time></trkpt><trkpt lat="41.7059317" lon="13.6965883"><ele>458.0</ele><time>2026-03-29T09:56:13.203Z</time></trkpt><trkpt lat="41.7058133" lon="13.6965167"><ele>458.0</ele><time>2026-03-29T09:56:14.203Z</time></trkpt><trkpt lat="41.7057033" lon="13.6964583"><ele>458.0</ele><time>2026-03-29T09:56:15.203Z</time></trkpt><trkpt lat="41.7055933" lon="13.6964133"><ele>458.0</ele><time>2026-03-29T09:56:16.204Z</time></trkpt><trkpt lat="41.7054833" lon="13.6963683"><ele>458.0</ele><time>2026-03-29T09:56:17.203Z</time></trkpt><trkpt lat="41.7053783" lon="13.69634"><ele>458.0</ele><time>2026-03-29T09:56:18.203Z</time></trkpt><trkpt lat="41.7052583" lon="13.6963317"><ele>458.0</ele><time>2026-03-29T09:56:19.203Z</time></trkpt><trkpt lat="41.7051267" lon="13.69633"><ele>458.5</ele><time>2026-03-29T09:56:20.203Z</time></trkpt><trkpt lat="41.7049983" lon="13.69634"><ele>459.0</ele><time>2026-03-29T09:56:21.203Z</time></trkpt><trkpt lat="41.7048683" lon="13.6963417"><ele>459.5</ele><time>2026-03-29T09:56:22.203Z</time></trkpt><trkpt lat="41.7047367" lon="13.6963367"><ele>460.0</ele><time>2026-03-29T09:56:23.203Z</time></trkpt><trkpt lat="41.70461" lon="13.6963267"><ele>460.0</ele><time>2026-03-29T09:56:24.203Z</time></trkpt><trkpt lat="41.7044967" lon="13.6963183"><ele>460.0</ele><time>2026-03-29T09:56:25.204Z</time></trkpt><trkpt lat="41.70438" lon="13.6963383"><ele>460.0</ele><time>2026-03-29T09:56:26.203Z</time></trkpt><trkpt lat="41.7042717" lon="13.6963833"><ele>460.0</ele><time>2026-03-29T09:56:27.203Z</time></trkpt><trkpt lat="41.7041667" lon="13.69646"><ele>457.4</ele><time>2026-03-29T09:56:28.203Z</time></trkpt><trkpt lat="41.7040617" lon="13.69653"><ele>454.8</ele><time>2026-03-29T09:56:29.203Z</time></trkpt><trkpt lat="41.7039767" lon="13.6966033"><ele>452.20000000000005</ele><time>2026-03-29T09:56:30.203Z</time></trkpt><trkpt lat="41.7039" lon="13.69669"><ele>449.6</ele><time>2026-03-29T09:56:31.203Z</time></trkpt><trkpt lat="41.7038217" lon="13.6967817"><ele>447.0</ele><time>2026-03-29T09:56:32.203Z</time></trkpt><trkpt lat="41.7037367" lon="13.696865"><ele>445.5</ele><time>2026-03-29T09:56:33.204Z</time></trkpt><trkpt lat="41.7036517" lon="13.6969633"><ele>444.0</ele><time>2026-03-29T09:56:34.203Z</time></trkpt><trkpt lat="41.703565" lon="13.69706"><ele>442.5</ele><time>2026-03-29T09:56:35.203Z</time></trkpt><trkpt lat="41.7034817" lon="13.6971683"><ele>441.0</ele><time>2026-03-29T09:56:36.203Z</time></trkpt><trkpt lat="41.7033983" lon="13.6972767"><ele>440.4</ele><time>2026-03-29T09:56:37.203Z</time></trkpt><trkpt lat="41.7033117" lon="13.6973633"><ele>439.8</ele><time>2026-03-29T09:56:38.204Z</time></trkpt><trkpt lat="41.70322" lon="13.6974383"><ele>439.19999999999993</ele><time>2026-03-29T09:56:39.204Z</time></trkpt><trkpt lat="41.7031133" lon="13.6974917"><ele>438.59999999999997</ele><time>2026-03-29T09:56:40.203Z</time></trkpt><trkpt lat="41.7029967" lon="13.6975167"><ele>438.0</ele><time>2026-03-29T09:56:41.203Z</time></trkpt><trkpt lat="41.7028917" lon="13.697525"><ele>438.0</ele><time>2026-03-29T09:56:42.203Z</time></trkpt><trkpt lat="41.702805" lon="13.6975533"><ele>437.99999999999994</ele><time>2026-03-29T09:56:43.204Z</time></trkpt><trkpt lat="41.702735" lon="13.6976067"><ele>437.99999999999994</ele><time>2026-03-29T09:56:44.203Z</time></trkpt><trkpt lat="41.7026817" lon="13.6977317"><ele>438.0</ele><time>2026-03-29T09:56:45.203Z</time></trkpt><trkpt lat="41.70263" lon="13.6978983"><ele>438.0</ele><time>2026-03-29T09:56:46.203Z</time></trkpt><trkpt lat="41.702575" lon="13.6980617"><ele>438.79999999999995</ele><time>2026-03-29T09:56:47.203Z</time></trkpt><trkpt lat="41.7025067" lon="13.6982"><ele>439.59999999999997</ele><time>2026-03-29T09:56:48.203Z</time></trkpt><trkpt lat="41.7024417" lon="13.6983217"><ele>440.40000000000003</ele><time>2026-03-29T09:56:49.203Z</time></trkpt><trkpt lat="41.70239" lon="13.698435"><ele>441.20000000000005</ele><time>2026-03-29T09:56:50.203Z</time></trkpt><trkpt lat="41.7023533" lon="13.698545"><ele>442.0</ele><time>2026-03-29T09:56:51.203Z</time></trkpt><trkpt lat="41.70233" lon="13.6986383"><ele>442.00000000000006</ele><time>2026-03-29T09:56:52.203Z</time></trkpt><trkpt lat="41.702315" lon="13.6987217"><ele>442.0</ele><time>2026-03-29T09:56:53.203Z</time></trkpt><trkpt lat="41.702265" lon="13.6987933"><ele>442.0</ele><time>2026-03-29T09:56:55.203Z</time></trkpt><trkpt lat="41.7021833" lon="13.6986833"><ele>442.0</ele><time>2026-03-29T09:56:58.203Z</time></trkpt><trkpt lat="41.7021417" lon="13.6985933"><ele>442.00000000000006</ele><time>2026-03-29T09:56:59.203Z</time></trkpt><trkpt lat="41.7020983" lon="13.69848"><ele>442.0</ele><time>2026-03-29T09:57:00.203Z</time></trkpt><trkpt lat="41.7020333" lon="13.69836"><ele>442.0</ele><time>2026-03-29T09:57:01.203Z</time></trkpt><trkpt lat="41.7019483" lon="13.698245"><ele>442.0</ele><time>2026-03-29T09:57:02.203Z</time></trkpt><trkpt lat="41.7018383" lon="13.6981433"><ele>442.0</ele><time>2026-03-29T09:57:03.204Z</time></trkpt><trkpt lat="41.7017383" lon="13.6980417"><ele>442.0</ele><time>2026-03-29T09:57:04.203Z</time></trkpt><trkpt lat="41.701665" lon="13.6979133"><ele>442.6</ele><time>2026-03-29T09:57:05.203Z</time></trkpt><trkpt lat="41.7016117" lon="13.6977767"><ele>443.20000000000005</ele><time>2026-03-29T09:57:06.203Z</time></trkpt><trkpt lat="41.7015817" lon="13.69763"><ele>443.8</ele><time>2026-03-29T09:57:07.203Z</time></trkpt><trkpt lat="41.7015417" lon="13.6974983"><ele>444.4</ele><time>2026-03-29T09:57:08.203Z</time></trkpt><trkpt lat="41.701485" lon="13.6973933"><ele>445.0</ele><time>2026-03-29T09:57:09.203Z</time></trkpt><trkpt lat="41.7014133" lon="13.697315"><ele>442.75</ele><time>2026-03-29T09:57:10.203Z</time></trkpt><trkpt lat="41.701315" lon="13.6972783"><ele>440.5</ele><time>2026-03-29T09:57:11.203Z</time></trkpt><trkpt lat="41.70119" lon="13.6972783"><ele>438.25</ele><time>2026-03-29T09:57:12.204Z</time></trkpt><trkpt lat="41.7010517" lon="13.697285"><ele>436.0</ele><time>2026-03-29T09:57:13.204Z</time></trkpt><trkpt lat="41.7009183" lon="13.697275"><ele>436.0</ele><time>2026-03-29T09:57:14.203Z</time></trkpt><trkpt lat="41.7007867" lon="13.69725"><ele>436.0</ele><time>2026-03-29T09:57:15.203Z</time></trkpt><trkpt lat="41.7006683" lon="13.697215"><ele>436.0</ele><time>2026-03-29T09:57:16.203Z</time></trkpt><trkpt lat="41.7005567" lon="13.6971633"><ele>436.0</ele><time>2026-03-29T09:57:17.204Z</time></trkpt><trkpt lat="41.7004533" lon="13.6971133"><ele>436.0</ele><time>2026-03-29T09:57:18.203Z</time></trkpt><trkpt lat="41.7003567" lon="13.697075"><ele>436.0</ele><time>2026-03-29T09:57:19.203Z</time></trkpt><trkpt lat="41.7002583" lon="13.6970333"><ele>436.0</ele><time>2026-03-29T09:57:20.203Z</time></trkpt><trkpt lat="41.700165" lon="13.6969917"><ele>436.0</ele><time>2026-03-29T09:57:21.203Z</time></trkpt><trkpt lat="41.7000783" lon="13.6969433"><ele>436.0</ele><time>2026-03-29T09:57:22.203Z</time></trkpt><trkpt lat="41.70001" lon="13.696905"><ele>434.0</ele><time>2026-03-29T09:57:23.203Z</time></trkpt><trkpt lat="41.699925" lon="13.6968833"><ele>432.0</ele><time>2026-03-29T09:57:25.203Z</time></trkpt><trkpt lat="41.6998833" lon="13.69703"><ele>430.0</ele><time>2026-03-29T09:57:28.203Z</time></trkpt><trkpt lat="41.69988" lon="13.6971683"><ele>428.0</ele><time>2026-03-29T09:57:29.203Z</time></trkpt><trkpt lat="41.699855" lon="13.697335"><ele>426.0</ele><time>2026-03-29T09:57:30.203Z</time></trkpt><trkpt lat="41.6998083" lon="13.6974983"><ele>426.0</ele><time>2026-03-29T09:57:31.203Z</time></trkpt><trkpt lat="41.6997583" lon="13.6976367"><ele>426.0</ele><time>2026-03-29T09:57:32.203Z</time></trkpt><trkpt lat="41.6996817" lon="13.6977683"><ele>426.0</ele><time>2026-03-29T09:57:33.203Z</time></trkpt><trkpt lat="41.6996017" lon="13.6978767"><ele>426.0</ele><time>2026-03-29T09:57:34.203Z</time></trkpt><trkpt lat="41.699515" lon="13.6979817"><ele>422.75</ele><time>2026-03-29T09:57:35.203Z</time></trkpt><trkpt lat="41.6994117" lon="13.698075"><ele>419.5</ele><time>2026-03-29T09:57:36.203Z</time></trkpt><trkpt lat="41.6993083" lon="13.69817"><ele>416.25</ele><time>2026-03-29T09:57:37.203Z</time></trkpt><trkpt lat="41.699205" lon="13.6982567"><ele>413.0</ele><time>2026-03-29T09:57:38.203Z</time></trkpt><trkpt lat="41.6991083" lon="13.6983517"><ele>413.0</ele><time>2026-03-29T09:57:39.203Z</time></trkpt><trkpt lat="41.6990267" lon="13.69842"><ele>413.0</ele><time>2026-03-29T09:57:40.203Z</time></trkpt><trkpt lat="41.6989417" lon="13.6984717"><ele>413.0</ele><time>2026-03-29T09:57:41.203Z</time></trkpt><trkpt lat="41.698845" lon="13.6985383"><ele>413.0</ele><time>2026-03-29T09:57:42.203Z</time></trkpt><trkpt lat="41.698735" lon="13.6986033"><ele>413.0</ele><time>2026-03-29T09:57:43.203Z</time></trkpt><trkpt lat="41.6986367" lon="13.6986667"><ele>412.2</ele><time>2026-03-29T09:57:44.203Z</time></trkpt><trkpt lat="41.698535" lon="13.6986967"><ele>411.4</ele><time>2026-03-29T09:57:45.203Z</time></trkpt><trkpt lat="41.6984567" lon="13.6987017"><ele>410.59999999999997</ele><time>2026-03-29T09:57:46.203Z</time></trkpt><trkpt lat="41.698365" lon="13.6986983"><ele>409.79999999999995</ele><time>2026-03-29T09:57:47.203Z</time></trkpt><trkpt lat="41.6982717" lon="13.6986467"><ele>409.0</ele><time>2026-03-29T09:57:48.203Z</time></trkpt><trkpt lat="41.698195" lon="13.6985467"><ele>409.0</ele><time>2026-03-29T09:57:49.203Z</time></trkpt><trkpt lat="41.6981183" lon="13.6984467"><ele>409.0</ele><time>2026-03-29T09:57:50.203Z</time></trkpt><trkpt lat="41.6980483" lon="13.6983867"><ele>409.0</ele><time>2026-03-29T09:57:51.203Z</time></trkpt><trkpt lat="41.69796" lon="13.69835"><ele>409.0</ele><time>2026-03-29T09:57:52.203Z</time></trkpt><trkpt lat="41.6978383" lon="13.6983683"><ele>409.0</ele><time>2026-03-29T09:57:53.203Z</time></trkpt><trkpt lat="41.697705" lon="13.6984217"><ele>409.33333333333337</ele><time>2026-03-29T09:57:54.203Z</time></trkpt><trkpt lat="41.6975733" lon="13.698495"><ele>409.66666666666663</ele><time>2026-03-29T09:57:55.203Z</time></trkpt><trkpt lat="41.6974267" lon="13.69856"><ele>410.0</ele><time>2026-03-29T09:57:56.203Z</time></trkpt><trkpt lat="41.6972733" lon="13.6986383"><ele>417.75</ele><time>2026-03-29T09:57:57.203Z</time></trkpt><trkpt lat="41.697135" lon="13.69872"><ele>425.5</ele><time>2026-03-29T09:57:58.203Z</time></trkpt><trkpt lat="41.697" lon="13.698785"><ele>433.25</ele><time>2026-03-29T09:57:59.204Z</time></trkpt><trkpt lat="41.6968683" lon="13.6988367"><ele>441.0</ele><time>2026-03-29T09:58:00.203Z</time></trkpt><trkpt lat="41.696735" lon="13.6988833"><ele>441.0</ele><time>2026-03-29T09:58:01.204Z</time></trkpt><trkpt lat="41.69661" lon="13.698925"><ele>441.0</ele><time>2026-03-29T09:58:02.203Z</time></trkpt><trkpt lat="41.6964917" lon="13.6989583"><ele>441.0</ele><time>2026-03-29T09:58:03.203Z</time></trkpt><trkpt lat="41.6963817" lon="13.6989767"><ele>441.0</ele><time>2026-03-29T09:58:04.203Z</time></trkpt><trkpt lat="41.69628" lon="13.69898"><ele>441.0</ele><time>2026-03-29T09:58:05.203Z</time></trkpt><trkpt lat="41.6961717" lon="13.6989567"><ele>441.0</ele><time>2026-03-29T09:58:06.203Z</time></trkpt><trkpt lat="41.6960617" lon="13.6989183"><ele>441.0</ele><time>2026-03-29T09:58:07.203Z</time></trkpt><trkpt lat="41.6959467" lon="13.6988467"><ele>441.0</ele><time>2026-03-29T09:58:08.203Z</time></trkpt><trkpt lat="41.6958317" lon="13.6987767"><ele>439.5</ele><time>2026-03-29T09:58:09.203Z</time></trkpt><trkpt lat="41.6957317" lon="13.6987317"><ele>438.0</ele><time>2026-03-29T09:58:10.204Z</time></trkpt><trkpt lat="41.6956483" lon="13.698695"><ele>436.5</ele><time>2026-03-29T09:58:11.203Z</time></trkpt><trkpt lat="41.6955683" lon="13.6986767"><ele>435.0</ele><time>2026-03-29T09:58:12.203Z</time></trkpt><trkpt lat="41.6954917" lon="13.6986267"><ele>433.5</ele><time>2026-03-29T09:58:13.203Z</time></trkpt><trkpt lat="41.69542" lon="13.6985933"><ele>432.0</ele><time>2026-03-29T09:58:14.203Z</time></trkpt><trkpt lat="41.695325" lon="13.6985583"><ele>431.8</ele><time>2026-03-29T09:58:15.203Z</time></trkpt><trkpt lat="41.695215" lon="13.6985"><ele>431.6</ele><time>2026-03-29T09:58:16.203Z</time></trkpt><trkpt lat="41.695115" lon="13.6984483"><ele>431.40000000000003</ele><time>2026-03-29T09:58:17.203Z</time></trkpt><trkpt lat="41.6950417" lon="13.698425"><ele>431.20000000000005</ele><time>2026-03-29T09:58:18.204Z</time></trkpt><trkpt lat="41.6949367" lon="13.6984433"><ele>431.0</ele><time>2026-03-29T09:58:20.204Z</time></trkpt><trkpt lat="41.6948717" lon="13.6984867"><ele>431.0</ele><time>2026-03-29T09:58:22.203Z</time></trkpt><trkpt lat="41.6948017" lon="13.6985733"><ele>431.0</ele><time>2026-03-29T09:58:25.203Z</time></trkpt><trkpt lat="41.6946867" lon="13.6986883"><ele>431.0</ele><time>2026-03-29T09:58:27.203Z</time></trkpt><trkpt lat="41.6945967" lon="13.698775"><ele>431.0</ele><time>2026-03-29T09:58:28.203Z</time></trkpt><trkpt lat="41.6945133" lon="13.6988583"><ele>429.99999999999994</ele><time>2026-03-29T09:58:29.203Z</time></trkpt><trkpt lat="41.69443" lon="13.69892"><ele>429.0</ele><time>2026-03-29T09:58:30.203Z</time></trkpt><trkpt lat="41.69435" lon="13.698965"><ele>428.0</ele><time>2026-03-29T09:58:31.203Z</time></trkpt><trkpt lat="41.6942833" lon="13.69899"><ele>427.0</ele><time>2026-03-29T09:58:32.203Z</time></trkpt><trkpt lat="41.69422" lon="13.699"><ele>425.99999999999994</ele><time>2026-03-29T09:58:33.203Z</time></trkpt><trkpt lat="41.694135" lon="13.699055"><ele>425.0</ele><time>2026-03-29T09:58:35.204Z</time></trkpt><trkpt lat="41.6940817" lon="13.6991783"><ele>423.8333333333333</ele><time>2026-03-29T10:01:10.202Z</time></trkpt><trkpt lat="41.69404" lon="13.699275"><ele>422.66666666666663</ele><time>2026-03-29T10:01:11.202Z</time></trkpt><trkpt lat="41.6939867" lon="13.699385"><ele>421.5</ele><time>2026-03-29T10:01:12.202Z</time></trkpt><trkpt lat="41.69394" lon="13.6994967"><ele>420.33333333333337</ele><time>2026-03-29T10:01:13.202Z</time></trkpt><trkpt lat="41.6939083" lon="13.699605"><ele>419.1666666666667</ele><time>2026-03-29T10:01:14.202Z</time></trkpt><trkpt lat="41.693895" lon="13.6996967"><ele>418.0</ele><time>2026-03-29T10:01:15.202Z</time></trkpt><trkpt lat="41.6938917" lon="13.6998033"><ele>418.00000000000006</ele><time>2026-03-29T10:01:17.202Z</time></trkpt><trkpt lat="41.693955" lon="13.6998633"><ele>418.0</ele><time>2026-03-29T10:01:22.202Z</time></trkpt><trkpt lat="41.693995" lon="13.69978"><ele>418.0</ele><time>2026-03-29T10:01:24.202Z</time></trkpt><trkpt lat="41.6940017" lon="13.6996917"><ele>418.0</ele><time>2026-03-29T10:01:25.202Z</time></trkpt><trkpt lat="41.6939967" lon="13.699585"><ele>418.00000000000006</ele><time>2026-03-29T10:01:26.202Z</time></trkpt><trkpt lat="41.6939917" lon="13.69948"><ele>418.0</ele><time>2026-03-29T10:01:27.202Z</time></trkpt><trkpt lat="41.6940183" lon="13.699315"><ele>418.0</ele><time>2026-03-29T10:01:29.203Z</time></trkpt><trkpt lat="41.6940533" lon="13.6992167"><ele>418.0</ele><time>2026-03-29T10:01:30.202Z</time></trkpt><trkpt lat="41.6940867" lon="13.69914"><ele>418.0</ele><time>2026-03-29T10:01:31.202Z</time></trkpt><trkpt lat="41.6941117" lon="13.6990583"><ele>418.0</ele><time>2026-03-29T10:01:32.203Z</time></trkpt><trkpt lat="41.6940983" lon="13.698975"><ele>418.0</ele><time>2026-03-29T10:01:33.202Z</time></trkpt><trkpt lat="41.6940733" lon="13.6988867"><ele>418.0</ele><time>2026-03-29T10:01:34.202Z</time></trkpt><trkpt lat="41.6940283" lon="13.69878"><ele>418.0</ele><time>2026-03-29T10:01:35.202Z</time></trkpt><trkpt lat="41.693965" lon="13.69865"><ele>419.0</ele><time>2026-03-29T10:01:36.202Z</time></trkpt><trkpt lat="41.6938967" lon="13.698525"><ele>420.0</ele><time>2026-03-29T10:01:37.202Z</time></trkpt><trkpt lat="41.6938417" lon="13.6984017"><ele>421.0</ele><time>2026-03-29T10:01:38.202Z</time></trkpt><trkpt lat="41.6937983" lon="13.69829"><ele>422.0</ele><time>2026-03-29T10:01:39.202Z</time></trkpt><trkpt lat="41.6937467" lon="13.698195"><ele>423.0</ele><time>2026-03-29T10:01:40.202Z</time></trkpt><trkpt lat="41.6936867" lon="13.6980733"><ele>423.0</ele><time>2026-03-29T10:01:41.202Z</time></trkpt><trkpt lat="41.69362" lon="13.6979517"><ele>423.0</ele><time>2026-03-29T10:01:42.202Z</time></trkpt><trkpt lat="41.6935517" lon="13.697835"><ele>423.0</ele><time>2026-03-29T10:01:43.202Z</time></trkpt><trkpt lat="41.6934883" lon="13.69774"><ele>423.0</ele><time>2026-03-29T10:01:44.202Z</time></trkpt><trkpt lat="41.6934367" lon="13.6976467"><ele>423.0</ele><time>2026-03-29T10:01:45.203Z</time></trkpt><trkpt lat="41.693385" lon="13.697565"><ele>421.5</ele><time>2026-03-29T10:01:46.202Z</time></trkpt><trkpt lat="41.693335" lon="13.697485"><ele>420.0</ele><time>2026-03-29T10:01:47.203Z</time></trkpt><trkpt lat="41.6932967" lon="13.69741"><ele>418.5</ele><time>2026-03-29T10:01:48.202Z</time></trkpt><trkpt lat="41.6932633" lon="13.69733"><ele>417.0</ele><time>2026-03-29T10:01:49.202Z</time></trkpt><trkpt lat="41.693235" lon="13.6972467"><ele>415.5</ele><time>2026-03-29T10:01:50.202Z</time></trkpt><trkpt lat="41.6932167" lon="13.69716"><ele>414.0</ele><time>2026-03-29T10:01:51.202Z</time></trkpt><trkpt lat="41.6931883" lon="13.6970283"><ele>414.0</ele><time>2026-03-29T10:01:53.202Z</time></trkpt><trkpt lat="41.69314" lon="13.6969483"><ele>414.0</ele><time>2026-03-29T10:01:57.202Z</time></trkpt><trkpt lat="41.69304" lon="13.6969333"><ele>414.0</ele><time>2026-03-29T10:01:59.203Z</time></trkpt><trkpt lat="41.6929567" lon="13.69694"><ele>414.0</ele><time>2026-03-29T10:02:00.202Z</time></trkpt><trkpt lat="41.6928683" lon="13.69694"><ele>414.0</ele><time>2026-03-29T10:02:01.202Z</time></trkpt><trkpt lat="41.6927833" lon="13.6969433"><ele>414.0</ele><time>2026-03-29T10:02:02.202Z</time></trkpt><trkpt lat="41.6926917" lon="13.6969483"><ele>412.5</ele><time>2026-03-29T10:02:03.202Z</time></trkpt><trkpt lat="41.69261" lon="13.69695"><ele>411.0</ele><time>2026-03-29T10:02:04.202Z</time></trkpt><trkpt lat="41.6925367" lon="13.6969583"><ele>409.5</ele><time>2026-03-29T10:02:05.203Z</time></trkpt><trkpt lat="41.69247" lon="13.696955"><ele>408.0</ele><time>2026-03-29T10:02:06.202Z</time></trkpt><trkpt lat="41.6924" lon="13.696965"><ele>406.5</ele><time>2026-03-29T10:02:07.202Z</time></trkpt><trkpt lat="41.6922983" lon="13.69701"><ele>405.0</ele><time>2026-03-29T10:02:09.202Z</time></trkpt><trkpt lat="41.69225" lon="13.697065"><ele>405.0</ele><time>2026-03-29T10:02:10.202Z</time></trkpt><trkpt lat="41.69217" lon="13.6971433"><ele>405.0</ele><time>2026-03-29T10:02:12.202Z</time></trkpt><trkpt lat="41.6920917" lon="13.6971983"><ele>405.0</ele><time>2026-03-29T10:02:14.202Z</time></trkpt><trkpt lat="41.6920217" lon="13.6971767"><ele>405.0</ele><time>2026-03-29T10:02:16.202Z</time></trkpt><trkpt lat="41.6919617" lon="13.6971183"><ele>405.0</ele><time>2026-03-29T10:02:18.202Z</time></trkpt><trkpt lat="41.6919" lon="13.6971683"><ele>405.0</ele><time>2026-03-29T10:02:20.202Z</time></trkpt><trkpt lat="41.69189" lon="13.69732"><ele>400.8333333333333</ele><time>2026-03-29T10:02:22.202Z</time></trkpt><trkpt lat="41.6918833" lon="13.69741"><ele>396.6666666666667</ele><time>2026-03-29T10:02:23.202Z</time></trkpt><trkpt lat="41.69188" lon="13.6975217"><ele>392.5</ele><time>2026-03-29T10:02:24.202Z</time></trkpt><trkpt lat="41.6918583" lon="13.6976367"><ele>388.33333333333337</ele><time>2026-03-29T10:02:25.202Z</time></trkpt><trkpt lat="41.6918367" lon="13.6977567"><ele>384.1666666666667</ele><time>2026-03-29T10:02:26.202Z</time></trkpt><trkpt lat="41.6918183" lon="13.6978783"><ele>380.0</ele><time>2026-03-29T10:02:27.202Z</time></trkpt><trkpt lat="41.6918033" lon="13.6980033"><ele>379.6666666666667</ele><time>2026-03-29T10:02:28.202Z</time></trkpt><trkpt lat="41.6917817" lon="13.698125"><ele>379.33333333333337</ele><time>2026-03-29T10:02:29.202Z</time></trkpt><trkpt lat="41.69176" lon="13.6982283"><ele>379.0</ele><time>2026-03-29T10:02:30.202Z</time></trkpt><trkpt lat="41.6917433" lon="13.698315"><ele>378.6666666666667</ele><time>2026-03-29T10:02:31.202Z</time></trkpt><trkpt lat="41.6917217" lon="13.6984133"><ele>378.3333333333333</ele><time>2026-03-29T10:02:32.202Z</time></trkpt><trkpt lat="41.6916933" lon="13.6985017"><ele>378.0</ele><time>2026-03-29T10:02:33.202Z</time></trkpt><trkpt lat="41.691665" lon="13.69858"><ele>377.0</ele><time>2026-03-29T10:02:34.202Z</time></trkpt><trkpt lat="41.6916367" lon="13.6986733"><ele>376.0</ele><time>2026-03-29T10:02:35.202Z</time></trkpt><trkpt lat="41.6916117" lon="13.6987583"><ele>375.0</ele><time>2026-03-29T10:02:36.202Z</time></trkpt><trkpt lat="41.6915767" lon="13.6988517"><ele>374.0</ele><time>2026-03-29T10:02:38.202Z</time></trkpt><trkpt lat="41.6915133" lon="13.6989433"><ele>373.0</ele><time>2026-03-29T10:02:41.202Z</time></trkpt><trkpt lat="41.6914383" lon="13.699105"><ele>373.0</ele><time>2026-03-29T10:02:43.202Z</time></trkpt><trkpt lat="41.6914167" lon="13.69924"><ele>373.0</ele><time>2026-03-29T10:02:44.202Z</time></trkpt><trkpt lat="41.6913883" lon="13.6993883"><ele>373.0</ele><time>2026-03-29T10:02:45.202Z</time></trkpt><trkpt lat="41.6913483" lon="13.69953"><ele>373.0</ele><time>2026-03-29T10:02:46.202Z</time></trkpt><trkpt lat="41.6912883" lon="13.6996633"><ele>373.0</ele><time>2026-03-29T10:02:47.202Z</time></trkpt><trkpt lat="41.6911967" lon="13.69981"><ele>371.25</ele><time>2026-03-29T10:02:48.202Z</time></trkpt><trkpt lat="41.6910867" lon="13.6999217"><ele>369.5</ele><time>2026-03-29T10:02:49.202Z</time></trkpt><trkpt lat="41.690955" lon="13.7000217"><ele>367.75</ele><time>2026-03-29T10:02:50.203Z</time></trkpt><trkpt lat="41.690825" lon="13.7000867"><ele>366.0</ele><time>2026-03-29T10:02:51.202Z</time></trkpt><trkpt lat="41.690695" lon="13.7001467"><ele>366.0</ele><time>2026-03-29T10:02:52.202Z</time></trkpt><trkpt lat="41.6905733" lon="13.7001767"><ele>366.0</ele><time>2026-03-29T10:02:53.203Z</time></trkpt><trkpt lat="41.6904617" lon="13.7001917"><ele>366.0</ele><time>2026-03-29T10:02:54.202Z</time></trkpt><trkpt lat="41.6903367" lon="13.7001833"><ele>366.0</ele><time>2026-03-29T10:02:55.202Z</time></trkpt><trkpt lat="41.69021" lon="13.7001733"><ele>366.75</ele><time>2026-03-29T10:02:56.202Z</time></trkpt><trkpt lat="41.6900883" lon="13.70018"><ele>367.5</ele><time>2026-03-29T10:02:57.202Z</time></trkpt><trkpt lat="41.6899617" lon="13.700225"><ele>368.25</ele><time>2026-03-29T10:02:58.202Z</time></trkpt><trkpt lat="41.6898383" lon="13.7002917"><ele>369.0</ele><time>2026-03-29T10:02:59.202Z</time></trkpt><trkpt lat="41.689725" lon="13.7003517"><ele>369.0</ele><time>2026-03-29T10:03:00.202Z</time></trkpt><trkpt lat="41.6895983" lon="13.7003933"><ele>369.0</ele><time>2026-03-29T10:03:01.202Z</time></trkpt><trkpt lat="41.6894667" lon="13.700435"><ele>369.0</ele><time>2026-03-29T10:03:02.202Z</time></trkpt><trkpt lat="41.68934" lon="13.700465"><ele>369.0</ele><time>2026-03-29T10:03:03.202Z</time></trkpt><trkpt lat="41.689205" lon="13.7004883"><ele>366.75</ele><time>2026-03-29T10:03:04.202Z</time></trkpt><trkpt lat="41.6890733" lon="13.70051"><ele>364.5</ele><time>2026-03-29T10:03:05.202Z</time></trkpt><trkpt lat="41.6889483" lon="13.70053"><ele>362.25</ele><time>2026-03-29T10:03:06.202Z</time></trkpt><trkpt lat="41.688835" lon="13.7005683"><ele>360.0</ele><time>2026-03-29T10:03:07.202Z</time></trkpt><trkpt lat="41.6887333" lon="13.70062"><ele>360.0</ele><time>2026-03-29T10:03:08.202Z</time></trkpt><trkpt lat="41.6886283" lon="13.7006633"><ele>360.0</ele><time>2026-03-29T10:03:09.202Z</time></trkpt><trkpt lat="41.6885317" lon="13.7007133"><ele>360.0</ele><time>2026-03-29T10:03:10.202Z</time></trkpt><trkpt lat="41.6884283" lon="13.70076"><ele>360.0</ele><time>2026-03-29T10:03:11.202Z</time></trkpt><trkpt lat="41.6883333" lon="13.7007983"><ele>360.0</ele><time>2026-03-29T10:03:12.202Z</time></trkpt><trkpt lat="41.6882333" lon="13.7008217"><ele>358.6666666666667</ele><time>2026-03-29T10:03:13.202Z</time></trkpt><trkpt lat="41.6881483" lon="13.7008317"><ele>357.3333333333333</ele><time>2026-03-29T10:03:14.202Z</time></trkpt><trkpt lat="41.68808" lon="13.7008267"><ele>356.0</ele><time>2026-03-29T10:03:15.202Z</time></trkpt><trkpt lat="41.6880117" lon="13.7008067"><ele>354.66666666666663</ele><time>2026-03-29T10:03:16.202Z</time></trkpt><trkpt lat="41.6879467" lon="13.700715"><ele>353.3333333333333</ele><time>2026-03-29T10:03:18.202Z</time></trkpt><trkpt lat="41.687995" lon="13.700645"><ele>352.0</ele><time>2026-03-29T10:03:19.202Z</time></trkpt><trkpt lat="41.688075" lon="13.7005767"><ele>352.0</ele><time>2026-03-29T10:03:20.202Z</time></trkpt><trkpt lat="41.68818" lon="13.7005083"><ele>352.0</ele><time>2026-03-29T10:03:21.202Z</time></trkpt><trkpt lat="41.6883117" lon="13.700405"><ele>352.0</ele><time>2026-03-29T10:03:22.202Z</time></trkpt><trkpt lat="41.68844" lon="13.7002817"><ele>352.0</ele><time>2026-03-29T10:03:23.202Z</time></trkpt><trkpt lat="41.6885483" lon="13.7001367"><ele>351.5</ele><time>2026-03-29T10:03:24.202Z</time></trkpt><trkpt lat="41.68865" lon="13.7000167"><ele>351.0</ele><time>2026-03-29T10:03:25.202Z</time></trkpt><trkpt lat="41.688745" lon="13.6998983"><ele>350.5</ele><time>2026-03-29T10:03:26.202Z</time></trkpt><trkpt lat="41.6888367" lon="13.6997867"><ele>350.0</ele><time>2026-03-29T10:03:27.202Z</time></trkpt><trkpt lat="41.68893" lon="13.6996867"><ele>350.0</ele><time>2026-03-29T10:03:28.202Z</time></trkpt><trkpt lat="41.6890167" lon="13.6995717"><ele>350.0</ele><time>2026-03-29T10:03:29.202Z</time></trkpt><trkpt lat="41.68913" lon="13.6994583"><ele>350.0</ele><time>2026-03-29T10:03:30.202Z</time></trkpt><trkpt lat="41.6892367" lon="13.6993283"><ele>350.0</ele><time>2026-03-29T10:03:31.202Z</time></trkpt><trkpt lat="41.68932" lon="13.69918"><ele>349.0</ele><time>2026-03-29T10:03:32.203Z</time></trkpt><trkpt lat="41.6893917" lon="13.699025"><ele>348.0</ele><time>2026-03-29T10:03:33.202Z</time></trkpt><trkpt lat="41.68946" lon="13.6988683"><ele>347.0</ele><time>2026-03-29T10:03:34.202Z</time></trkpt><trkpt lat="41.689525" lon="13.6987283"><ele>346.0</ele><time>2026-03-29T10:03:35.202Z</time></trkpt><trkpt lat="41.6896083" lon="13.6986017"><ele>344.25</ele><time>2026-03-29T10:03:36.202Z</time></trkpt><trkpt lat="41.6896883" lon="13.698465"><ele>342.5</ele><time>2026-03-29T10:03:37.202Z</time></trkpt><trkpt lat="41.68978" lon="13.69832"><ele>340.75</ele><time>2026-03-29T10:03:38.202Z</time></trkpt><trkpt lat="41.689845" lon="13.69819"><ele>339.0</ele><time>2026-03-29T10:03:39.202Z</time></trkpt><trkpt lat="41.6899083" lon="13.698065"><ele>339.0</ele><time>2026-03-29T10:03:40.202Z</time></trkpt><trkpt lat="41.689965" lon="13.6979283"><ele>339.0</ele><time>2026-03-29T10:03:41.202Z</time></trkpt><trkpt lat="41.6900167" lon="13.6978017"><ele>339.0</ele><time>2026-03-29T10:03:42.203Z</time></trkpt><trkpt lat="41.6900717" lon="13.6976667"><ele>339.0</ele><time>2026-03-29T10:03:43.202Z</time></trkpt><trkpt lat="41.6901317" lon="13.69755"><ele>339.0</ele><time>2026-03-29T10:03:44.202Z</time></trkpt><trkpt lat="41.6901833" lon="13.6974483"><ele>339.2</ele><time>2026-03-29T10:03:45.202Z</time></trkpt><trkpt lat="41.6902333" lon="13.697335"><ele>339.4</ele><time>2026-03-29T10:03:46.202Z</time></trkpt><trkpt lat="41.6902833" lon="13.6972167"><ele>339.6</ele><time>2026-03-29T10:03:47.203Z</time></trkpt><trkpt lat="41.69033" lon="13.697085"><ele>339.8</ele><time>2026-03-29T10:03:48.203Z</time></trkpt><trkpt lat="41.69038" lon="13.6969533"><ele>340.0</ele><time>2026-03-29T10:03:49.202Z</time></trkpt><trkpt lat="41.6904267" lon="13.6968283"><ele>340.0</ele><time>2026-03-29T10:03:50.202Z</time></trkpt><trkpt lat="41.6904783" lon="13.6967133"><ele>340.0</ele><time>2026-03-29T10:03:51.203Z</time></trkpt><trkpt lat="41.6905233" lon="13.6966033"><ele>340.0</ele><time>2026-03-29T10:03:52.202Z</time></trkpt><trkpt lat="41.6905767" lon="13.6965033"><ele>340.0</ele><time>2026-03-29T10:03:53.202Z</time></trkpt><trkpt lat="41.69063" lon="13.6964067"><ele>340.0</ele><time>2026-03-29T10:03:54.202Z</time></trkpt><trkpt lat="41.6906883" lon="13.696315"><ele>340.0</ele><time>2026-03-29T10:03:55.202Z</time></trkpt><trkpt lat="41.6907417" lon="13.6962367"><ele>340.0</ele><time>2026-03-29T10:03:56.202Z</time></trkpt><trkpt lat="41.69082" lon="13.6961417"><ele>340.0</ele><time>2026-03-29T10:03:58.202Z</time></trkpt><trkpt lat="41.69078" lon="13.69605"><ele>340.0</ele><time>2026-03-29T10:04:00.202Z</time></trkpt><trkpt lat="41.690655" lon="13.6960717"><ele>340.0</ele><time>2026-03-29T10:04:02.203Z</time></trkpt><trkpt lat="41.69058" lon="13.6961517"><ele>340.0</ele><time>2026-03-29T10:04:03.202Z</time></trkpt><trkpt lat="41.69051" lon="13.6962367"><ele>340.0</ele><time>2026-03-29T10:04:04.202Z</time></trkpt><trkpt lat="41.6904417" lon="13.6963133"><ele>340.0</ele><time>2026-03-29T10:04:05.202Z</time></trkpt><trkpt lat="41.69038" lon="13.6963933"><ele>340.0</ele><time>2026-03-29T10:04:06.202Z</time></trkpt><trkpt lat="41.6903133" lon="13.696475"><ele>340.0</ele><time>2026-03-29T10:04:07.202Z</time></trkpt><trkpt lat="41.690255" lon="13.6965533"><ele>340.0</ele><time>2026-03-29T10:04:08.202Z</time></trkpt><trkpt lat="41.6901983" lon="13.6966167"><ele>336.8</ele><time>2026-03-29T10:04:09.202Z</time></trkpt><trkpt lat="41.6901383" lon="13.6966633"><ele>333.6</ele><time>2026-03-29T10:04:10.202Z</time></trkpt><trkpt lat="41.6900217" lon="13.6966317"><ele>330.4</ele><time>2026-03-29T10:04:12.202Z</time></trkpt><trkpt lat="41.689955" lon="13.6965517"><ele>327.2</ele><time>2026-03-29T10:04:13.202Z</time></trkpt><trkpt lat="41.689905" lon="13.6964467"><ele>324.0</ele><time>2026-03-29T10:04:14.202Z</time></trkpt><trkpt lat="41.6898583" lon="13.6963333"><ele>324.0</ele><time>2026-03-29T10:04:15.202Z</time></trkpt><trkpt lat="41.68981" lon="13.6962167"><ele>324.0</ele><time>2026-03-29T10:04:16.202Z</time></trkpt><trkpt lat="41.6897667" lon="13.6961117"><ele>324.0</ele><time>2026-03-29T10:04:17.202Z</time></trkpt><trkpt lat="41.6897167" lon="13.696"><ele>324.0</ele><time>2026-03-29T10:04:18.202Z</time></trkpt><trkpt lat="41.68968" lon="13.6958883"><ele>324.0</ele><time>2026-03-29T10:04:19.202Z</time></trkpt><trkpt lat="41.6896317" lon="13.6957917"><ele>322.5</ele><time>2026-03-29T10:04:20.202Z</time></trkpt><trkpt lat="41.6895933" lon="13.6956933"><ele>321.0</ele><time>2026-03-29T10:04:21.202Z</time></trkpt><trkpt lat="41.689555" lon="13.6956067"><ele>319.5</ele><time>2026-03-29T10:04:22.202Z</time></trkpt><trkpt lat="41.6895217" lon="13.6955217"><ele>318.0</ele><time>2026-03-29T10:04:23.202Z</time></trkpt><trkpt lat="41.6894833" lon="13.6954333"><ele>316.5</ele><time>2026-03-29T10:04:24.202Z</time></trkpt><trkpt lat="41.6894483" lon="13.6953417"><ele>315.0</ele><time>2026-03-29T10:04:25.202Z</time></trkpt><trkpt lat="41.6894233" lon="13.6952517"><ele>314.6</ele><time>2026-03-29T10:04:26.202Z</time></trkpt><trkpt lat="41.6893917" lon="13.6951367"><ele>314.2</ele><time>2026-03-29T10:04:28.202Z</time></trkpt><trkpt lat="41.68941" lon="13.6950283"><ele>313.8</ele><time>2026-03-29T10:04:30.202Z</time></trkpt><trkpt lat="41.6894833" lon="13.6948917"><ele>313.4</ele><time>2026-03-29T10:04:32.202Z</time></trkpt><trkpt lat="41.6895583" lon="13.6948217"><ele>313.0</ele><time>2026-03-29T10:04:33.202Z</time></trkpt><trkpt lat="41.6896417" lon="13.6947533"><ele>312.6</ele><time>2026-03-29T10:04:34.202Z</time></trkpt><trkpt lat="41.6897533" lon="13.694695"><ele>312.20000000000005</ele><time>2026-03-29T10:04:35.202Z</time></trkpt><trkpt lat="41.6898483" lon="13.6946433"><ele>311.8</ele><time>2026-03-29T10:04:36.202Z</time></trkpt><trkpt lat="41.6899233" lon="13.6945933"><ele>311.40000000000003</ele><time>2026-03-29T10:04:37.202Z</time></trkpt><trkpt lat="41.6900317" lon="13.6945533"><ele>311.0</ele><time>2026-03-29T10:04:39.203Z</time></trkpt><trkpt lat="41.690145" lon="13.6945983"><ele>311.0</ele><time>2026-03-29T10:04:41.202Z</time></trkpt><trkpt lat="41.6902483" lon="13.6947617"><ele>311.0</ele><time>2026-03-29T10:04:43.202Z</time></trkpt><trkpt lat="41.6903467" lon="13.6948767"><ele>311.0</ele><time>2026-03-29T10:04:44.202Z</time></trkpt><trkpt lat="41.6904483" lon="13.6949617"><ele>311.0</ele><time>2026-03-29T10:04:45.202Z</time></trkpt><trkpt lat="41.6905633" lon="13.69502"><ele>309.75</ele><time>2026-03-29T10:04:46.202Z</time></trkpt><trkpt lat="41.6907033" lon="13.6950467"><ele>308.5</ele><time>2026-03-29T10:04:47.202Z</time></trkpt><trkpt lat="41.6908333" lon="13.6950617"><ele>307.25</ele><time>2026-03-29T10:04:48.202Z</time></trkpt><trkpt lat="41.69096" lon="13.6950717"><ele>306.0</ele><time>2026-03-29T10:04:49.202Z</time></trkpt><trkpt lat="41.6910683" lon="13.6950917"><ele>306.2</ele><time>2026-03-29T10:04:50.202Z</time></trkpt><trkpt lat="41.691175" lon="13.6950967"><ele>306.40000000000003</ele><time>2026-03-29T10:04:51.202Z</time></trkpt><trkpt lat="41.6912817" lon="13.6950967"><ele>306.6</ele><time>2026-03-29T10:04:52.202Z</time></trkpt><trkpt lat="41.69139" lon="13.6950833"><ele>306.8</ele><time>2026-03-29T10:04:53.202Z</time></trkpt><trkpt lat="41.6915033" lon="13.69503"><ele>307.0</ele><time>2026-03-29T10:04:54.202Z</time></trkpt><trkpt lat="41.691615" lon="13.6949867"><ele>307.0</ele><time>2026-03-29T10:04:55.202Z</time></trkpt><trkpt lat="41.6917183" lon="13.6949467"><ele>307.0</ele><time>2026-03-29T10:04:56.202Z</time></trkpt><trkpt lat="41.6918283" lon="13.69492"><ele>307.0</ele><time>2026-03-29T10:04:57.202Z</time></trkpt><trkpt lat="41.6919433" lon="13.6949033"><ele>307.0</ele><time>2026-03-29T10:04:58.202Z</time></trkpt><trkpt lat="41.692065" lon="13.6948833"><ele>307.8</ele><time>2026-03-29T10:04:59.202Z</time></trkpt><trkpt lat="41.6921833" lon="13.69486"><ele>308.6</ele><time>2026-03-29T10:05:00.202Z</time></trkpt><trkpt lat="41.6922883" lon="13.694825"><ele>309.40000000000003</ele><time>2026-03-29T10:05:01.202Z</time></trkpt><trkpt lat="41.6923783" lon="13.69481"><ele>310.2</ele><time>2026-03-29T10:05:02.202Z</time></trkpt><trkpt lat="41.69246" lon="13.6948183"><ele>311.0</ele><time>2026-03-29T10:05:03.202Z</time></trkpt><trkpt lat="41.69256" lon="13.6948667"><ele>311.0</ele><time>2026-03-29T10:05:04.202Z</time></trkpt><trkpt lat="41.6926667" lon="13.6949333"><ele>311.0</ele><time>2026-03-29T10:05:05.202Z</time></trkpt><trkpt lat="41.692775" lon="13.69496"><ele>311.0</ele><time>2026-03-29T10:05:06.202Z</time></trkpt><trkpt lat="41.69288" lon="13.6949617"><ele>311.0</ele><time>2026-03-29T10:05:07.202Z</time></trkpt><trkpt lat="41.69299" lon="13.6949283"><ele>311.0</ele><time>2026-03-29T10:05:08.202Z</time></trkpt><trkpt lat="41.6931017" lon="13.6948783"><ele>312.40000000000003</ele><time>2026-03-29T10:05:09.202Z</time></trkpt><trkpt lat="41.6932083" lon="13.694815"><ele>313.8</ele><time>2026-03-29T10:05:10.202Z</time></trkpt><trkpt lat="41.6933017" lon="13.6947633"><ele>315.20000000000005</ele><time>2026-03-29T10:05:11.202Z</time></trkpt><trkpt lat="41.6933967" lon="13.6946933"><ele>316.6</ele><time>2026-03-29T10:05:12.202Z</time></trkpt><trkpt lat="41.693475" lon="13.69464"><ele>318.0</ele><time>2026-03-29T10:05:13.202Z</time></trkpt><trkpt lat="41.693555" lon="13.6945867"><ele>321.4</ele><time>2026-03-29T10:05:14.202Z</time></trkpt><trkpt lat="41.6936467" lon="13.69452"><ele>324.8</ele><time>2026-03-29T10:05:15.202Z</time></trkpt><trkpt lat="41.693735" lon="13.6944633"><ele>328.2</ele><time>2026-03-29T10:05:16.202Z</time></trkpt><trkpt lat="41.6938283" lon="13.6943983"><ele>331.6</ele><time>2026-03-29T10:05:17.202Z</time></trkpt><trkpt lat="41.6939433" lon="13.6943217"><ele>335.0</ele><time>2026-03-29T10:05:18.202Z</time></trkpt><trkpt lat="41.694055" lon="13.6942633"><ele>329.0</ele><time>2026-03-29T10:05:19.202Z</time></trkpt><trkpt lat="41.694155" lon="13.69422"><ele>323.0</ele><time>2026-03-29T10:05:20.202Z</time></trkpt><trkpt lat="41.69426" lon="13.69418"><ele>317.0</ele><time>2026-03-29T10:05:21.202Z</time></trkpt><trkpt lat="41.6943633" lon="13.6941433"><ele>311.0</ele><time>2026-03-29T10:05:22.202Z</time></trkpt><trkpt lat="41.694475" lon="13.6941117"><ele>305.0</ele><time>2026-03-29T10:05:23.202Z</time></trkpt><trkpt lat="41.6945967" lon="13.69409"><ele>305.0</ele><time>2026-03-29T10:05:24.202Z</time></trkpt><trkpt lat="41.6947283" lon="13.6940667"><ele>305.0</ele><time>2026-03-29T10:05:25.202Z</time></trkpt><trkpt lat="41.6948567" lon="13.694055"><ele>305.0</ele><time>2026-03-29T10:05:26.202Z</time></trkpt><trkpt lat="41.6949683" lon="13.6940317"><ele>305.0</ele><time>2026-03-29T10:05:27.202Z</time></trkpt><trkpt lat="41.6950767" lon="13.6940017"><ele>305.0</ele><time>2026-03-29T10:05:28.202Z</time></trkpt><trkpt lat="41.695175" lon="13.6939817"><ele>305.0</ele><time>2026-03-29T10:05:29.202Z</time></trkpt><trkpt lat="41.6952667" lon="13.69399"><ele>305.0</ele><time>2026-03-29T10:05:30.202Z</time></trkpt><trkpt lat="41.695365" lon="13.694025"><ele>305.0</ele><time>2026-03-29T10:05:31.202Z</time></trkpt><trkpt lat="41.6954583" lon="13.6940667"><ele>305.0</ele><time>2026-03-29T10:05:32.202Z</time></trkpt><trkpt lat="41.695555" lon="13.694105"><ele>304.6</ele><time>2026-03-29T10:05:33.202Z</time></trkpt><trkpt lat="41.69565" lon="13.6941433"><ele>304.2</ele><time>2026-03-29T10:05:34.202Z</time></trkpt><trkpt lat="41.6957367" lon="13.69418"><ele>303.8</ele><time>2026-03-29T10:05:35.202Z</time></trkpt><trkpt lat="41.6958267" lon="13.6942167"><ele>303.4</ele><time>2026-03-29T10:05:36.203Z</time></trkpt><trkpt lat="41.6959117" lon="13.6942583"><ele>303.0</ele><time>2026-03-29T10:05:37.202Z</time></trkpt><trkpt lat="41.6959933" lon="13.6943067"><ele>303.2</ele><time>2026-03-29T10:05:38.202Z</time></trkpt><trkpt lat="41.6960967" lon="13.6943467"><ele>303.4</ele><time>2026-03-29T10:05:39.202Z</time></trkpt><trkpt lat="41.696195" lon="13.6943767"><ele>303.59999999999997</ele><time>2026-03-29T10:05:40.203Z</time></trkpt><trkpt lat="41.69629" lon="13.6943817"><ele>303.8</ele><time>2026-03-29T10:05:41.203Z</time></trkpt><trkpt lat="41.6963817" lon="13.6943667"><ele>304.0</ele><time>2026-03-29T10:05:42.202Z</time></trkpt><trkpt lat="41.696475" lon="13.6943383"><ele>304.0</ele><time>2026-03-29T10:05:43.202Z</time></trkpt><trkpt lat="41.6965533" lon="13.694285"><ele>304.0</ele><time>2026-03-29T10:05:44.202Z</time></trkpt><trkpt lat="41.696595" lon="13.69418"><ele>304.0</ele><time>2026-03-29T10:05:45.203Z</time></trkpt><trkpt lat="41.6966267" lon="13.6940667"><ele>304.0</ele><time>2026-03-29T10:05:46.202Z</time></trkpt><trkpt lat="41.696655" lon="13.6939533"><ele>304.0</ele><time>2026-03-29T10:05:47.202Z</time></trkpt><trkpt lat="41.6966917" lon="13.6938433"><ele>304.0</ele><time>2026-03-29T10:05:48.202Z</time></trkpt><trkpt lat="41.6967233" lon="13.693745"><ele>304.0</ele><time>2026-03-29T10:05:49.202Z</time></trkpt><trkpt lat="41.6967467" lon="13.69365"><ele>304.0</ele><time>2026-03-29T10:05:50.202Z</time></trkpt><trkpt lat="41.6967867" lon="13.693515"><ele>304.0</ele><time>2026-03-29T10:05:52.202Z</time></trkpt><trkpt lat="41.6968117" lon="13.6934017"><ele>304.0</ele><time>2026-03-29T10:05:53.202Z</time></trkpt><trkpt lat="41.696835" lon="13.6932817"><ele>304.0</ele><time>2026-03-29T10:05:54.202Z</time></trkpt><trkpt lat="41.69685" lon="13.6931633"><ele>302.3333333333333</ele><time>2026-03-29T10:05:55.202Z</time></trkpt><trkpt lat="41.696855" lon="13.6930517"><ele>300.66666666666663</ele><time>2026-03-29T10:05:56.202Z</time></trkpt><trkpt lat="41.6968533" lon="13.692935"><ele>299.0</ele><time>2026-03-29T10:05:57.202Z</time></trkpt><trkpt lat="41.6968483" lon="13.6928317"><ele>297.3333333333333</ele><time>2026-03-29T10:05:58.202Z</time></trkpt><trkpt lat="41.6968633" lon="13.69274"><ele>295.6666666666667</ele><time>2026-03-29T10:05:59.202Z</time></trkpt><trkpt lat="41.696895" lon="13.6926567"><ele>294.0</ele><time>2026-03-29T10:06:00.202Z</time></trkpt><trkpt lat="41.6969433" lon="13.692565"><ele>294.0</ele><time>2026-03-29T10:06:01.202Z</time></trkpt><trkpt lat="41.697005" lon="13.6924783"><ele>294.0</ele><time>2026-03-29T10:06:02.202Z</time></trkpt><trkpt lat="41.6970983" lon="13.692375"><ele>294.0</ele><time>2026-03-29T10:06:03.202Z</time></trkpt><trkpt lat="41.6971933" lon="13.6922733"><ele>294.0</ele><time>2026-03-29T10:06:04.202Z</time></trkpt><trkpt lat="41.6972917" lon="13.6921767"><ele>294.0</ele><time>2026-03-29T10:06:05.202Z</time></trkpt><trkpt lat="41.6973633" lon="13.6920817"><ele>294.0</ele><time>2026-03-29T10:06:06.202Z</time></trkpt><trkpt lat="41.6974367" lon="13.6919983"><ele>294.0</ele><time>2026-03-29T10:06:07.202Z</time></trkpt><trkpt lat="41.6975133" lon="13.6919133"><ele>294.0</ele><time>2026-03-29T10:06:08.202Z</time></trkpt><trkpt lat="41.6975867" lon="13.6918317"><ele>294.0</ele><time>2026-03-29T10:06:09.202Z</time></trkpt><trkpt lat="41.6976617" lon="13.6917467"><ele>294.0</ele><time>2026-03-29T10:06:10.202Z</time></trkpt><trkpt lat="41.6977317" lon="13.6916567"><ele>294.0</ele><time>2026-03-29T10:06:11.202Z</time></trkpt><trkpt lat="41.697805" lon="13.6915617"><ele>294.0</ele><time>2026-03-29T10:06:12.202Z</time></trkpt><trkpt lat="41.697885" lon="13.6914667"><ele>294.0</ele><time>2026-03-29T10:06:13.202Z</time></trkpt><trkpt lat="41.6979667" lon="13.6913783"><ele>294.0</ele><time>2026-03-29T10:06:14.202Z</time></trkpt><trkpt lat="41.6980467" lon="13.691275"><ele>294.0</ele><time>2026-03-29T10:06:15.202Z</time></trkpt><trkpt lat="41.6981383" lon="13.691175"><ele>294.0</ele><time>2026-03-29T10:06:16.202Z</time></trkpt><trkpt lat="41.698215" lon="13.691075"><ele>294.0</ele><time>2026-03-29T10:06:17.202Z</time></trkpt><trkpt lat="41.69829" lon="13.6909833"><ele>294.0</ele><time>2026-03-29T10:06:18.203Z</time></trkpt><trkpt lat="41.6983617" lon="13.6909"><ele>294.0</ele><time>2026-03-29T10:06:19.202Z</time></trkpt><trkpt lat="41.6984333" lon="13.6908133"><ele>294.0</ele><time>2026-03-29T10:06:20.202Z</time></trkpt><trkpt lat="41.6985067" lon="13.6907367"><ele>294.0</ele><time>2026-03-29T10:06:21.202Z</time></trkpt><trkpt lat="41.6985917" lon="13.69066"><ele>294.0</ele><time>2026-03-29T10:06:22.202Z</time></trkpt><trkpt lat="41.6986783" lon="13.690595"><ele>294.0</ele><time>2026-03-29T10:06:23.202Z</time></trkpt><trkpt lat="41.6987667" lon="13.6905367"><ele>294.0</ele><time>2026-03-29T10:06:24.202Z</time></trkpt><trkpt lat="41.69885" lon="13.6904933"><ele>293.8333333333333</ele><time>2026-03-29T10:06:25.203Z</time></trkpt><trkpt lat="41.6989267" lon="13.6904467"><ele>293.6666666666667</ele><time>2026-03-29T10:06:26.202Z</time></trkpt><trkpt lat="41.6990133" lon="13.6904"><ele>293.5</ele><time>2026-03-29T10:06:27.202Z</time></trkpt><trkpt lat="41.6990917" lon="13.69035"><ele>293.33333333333337</ele><time>2026-03-29T10:06:28.202Z</time></trkpt><trkpt lat="41.69917" lon="13.6903"><ele>293.1666666666667</ele><time>2026-03-29T10:06:29.202Z</time></trkpt><trkpt lat="41.6992583" lon="13.6902483"><ele>293.0</ele><time>2026-03-29T10:06:30.202Z</time></trkpt><trkpt lat="41.6993417" lon="13.6902033"><ele>293.83333333333337</ele><time>2026-03-29T10:06:31.202Z</time></trkpt><trkpt lat="41.699425" lon="13.690155"><ele>294.6666666666667</ele><time>2026-03-29T10:06:32.202Z</time></trkpt><trkpt lat="41.6995117" lon="13.69011"><ele>295.5</ele><time>2026-03-29T10:06:33.202Z</time></trkpt><trkpt lat="41.6995867" lon="13.6900533"><ele>296.3333333333333</ele><time>2026-03-29T10:06:34.202Z</time></trkpt><trkpt lat="41.699655" lon="13.6900017"><ele>297.16666666666663</ele><time>2026-03-29T10:06:35.202Z</time></trkpt><trkpt lat="41.6997317" lon="13.6899517"><ele>298.0</ele><time>2026-03-29T10:06:36.202Z</time></trkpt><trkpt lat="41.6998133" lon="13.6899017"><ele>298.0</ele><time>2026-03-29T10:06:37.202Z</time></trkpt><trkpt lat="41.699895" lon="13.6898533"><ele>298.0</ele><time>2026-03-29T10:06:38.202Z</time></trkpt><trkpt lat="41.69998" lon="13.6898117"><ele>298.0</ele><time>2026-03-29T10:06:39.202Z</time></trkpt><trkpt lat="41.70006" lon="13.6897817"><ele>298.0</ele><time>2026-03-29T10:06:40.202Z</time></trkpt><trkpt lat="41.7001467" lon="13.6897833"><ele>298.0</ele><time>2026-03-29T10:06:41.202Z</time></trkpt><trkpt lat="41.7002167" lon="13.6897833"><ele>298.0</ele><time>2026-03-29T10:06:42.202Z</time></trkpt><trkpt lat="41.70028" lon="13.6898017"><ele>301.4</ele><time>2026-03-29T10:06:43.202Z</time></trkpt><trkpt lat="41.70038" lon="13.6898167"><ele>304.8</ele><time>2026-03-29T10:06:45.202Z</time></trkpt><trkpt lat="41.7004633" lon="13.6898167"><ele>308.2</ele><time>2026-03-29T10:06:47.202Z</time></trkpt><trkpt lat="41.7005467" lon="13.6897783"><ele>311.6</ele><time>2026-03-29T10:06:49.202Z</time></trkpt><trkpt lat="41.7006167" lon="13.68973"><ele>315.0</ele><time>2026-03-29T10:06:50.202Z</time></trkpt><trkpt lat="41.700705" lon="13.6896667"><ele>315.0</ele><time>2026-03-29T10:06:51.202Z</time></trkpt><trkpt lat="41.7008017" lon="13.6895917"><ele>315.0</ele><time>2026-03-29T10:06:52.202Z</time></trkpt><trkpt lat="41.7009283" lon="13.6894867"><ele>315.0</ele><time>2026-03-29T10:06:53.202Z</time></trkpt><trkpt lat="41.7010533" lon="13.689375"><ele>315.0</ele><time>2026-03-29T10:06:54.202Z</time></trkpt><trkpt lat="41.7011833" lon="13.68927"><ele>312.75</ele><time>2026-03-29T10:06:55.202Z</time></trkpt><trkpt lat="41.70131" lon="13.6891867"><ele>310.5</ele><time>2026-03-29T10:06:56.202Z</time></trkpt><trkpt lat="41.7014417" lon="13.6891083"><ele>308.25</ele><time>2026-03-29T10:06:57.202Z</time></trkpt><trkpt lat="41.7015533" lon="13.6890017"><ele>306.0</ele><time>2026-03-29T10:06:58.202Z</time></trkpt><trkpt lat="41.7016417" lon="13.6889067"><ele>306.0</ele><time>2026-03-29T10:06:59.202Z</time></trkpt><trkpt lat="41.7017217" lon="13.68882"><ele>306.0</ele><time>2026-03-29T10:07:00.202Z</time></trkpt><trkpt lat="41.7018017" lon="13.688735"><ele>306.0</ele><time>2026-03-29T10:07:01.202Z</time></trkpt><trkpt lat="41.7018867" lon="13.6886667"><ele>306.0</ele><time>2026-03-29T10:07:02.202Z</time></trkpt><trkpt lat="41.7019867" lon="13.6886017"><ele>306.0</ele><time>2026-03-29T10:07:03.202Z</time></trkpt><trkpt lat="41.7020917" lon="13.68855"><ele>305.0</ele><time>2026-03-29T10:07:04.202Z</time></trkpt><trkpt lat="41.702195" lon="13.6885083"><ele>304.0</ele><time>2026-03-29T10:07:05.202Z</time></trkpt><trkpt lat="41.7022933" lon="13.6884633"><ele>303.0</ele><time>2026-03-29T10:07:06.202Z</time></trkpt><trkpt lat="41.7023833" lon="13.688405"><ele>302.0</ele><time>2026-03-29T10:07:07.202Z</time></trkpt><trkpt lat="41.7024683" lon="13.688325"><ele>301.0</ele><time>2026-03-29T10:07:08.202Z</time></trkpt><trkpt lat="41.7025383" lon="13.6882383"><ele>301.0</ele><time>2026-03-29T10:07:09.202Z</time></trkpt><trkpt lat="41.702585" lon="13.6881483"><ele>301.0</ele><time>2026-03-29T10:07:10.202Z</time></trkpt><trkpt lat="41.70263" lon="13.68804"><ele>301.0</ele><time>2026-03-29T10:07:11.202Z</time></trkpt><trkpt lat="41.7026667" lon="13.687935"><ele>301.0</ele><time>2026-03-29T10:07:12.202Z</time></trkpt><trkpt lat="41.7026983" lon="13.6878567"><ele>301.0</ele><time>2026-03-29T10:07:13.202Z</time></trkpt><trkpt lat="41.7027333" lon="13.6876867"><ele>302.8</ele><time>2026-03-29T10:07:15.202Z</time></trkpt><trkpt lat="41.7027483" lon="13.6876033"><ele>304.6</ele><time>2026-03-29T10:07:16.202Z</time></trkpt><trkpt lat="41.7027967" lon="13.687445"><ele>306.4</ele><time>2026-03-29T10:07:18.202Z</time></trkpt><trkpt lat="41.7028317" lon="13.687325"><ele>308.2</ele><time>2026-03-29T10:07:20.202Z</time></trkpt><trkpt lat="41.7028467" lon="13.6871233"><ele>310.0</ele><time>2026-03-29T10:07:41.202Z</time></trkpt><trkpt lat="41.7028217" lon="13.687045"><ele>310.0</ele><time>2026-03-29T10:07:43.202Z</time></trkpt><trkpt lat="41.7028" lon="13.6869533"><ele>310.0</ele><time>2026-03-29T10:07:47.202Z</time></trkpt></trkseg></trk></gpx>